Wetterdaten: Sonntag, 21.04.2024
Datum Zeit Temp. I. Temp. A. Feuchte I. Feuchte A. Luftdruck Regen Wind Richtung Richtung Sonnenschein Solar Taupunkt Windchill Windböen
21.04.2024 00:00 21,4 °C 0,8 °C 52 % 93 % 1019,5 hPa 0,0 l/m² 0,0 km/h (0 Bft) W 271 ° 0 min 0 W/m² -0,2 °C 0,8 °C 0,0 km/h (0 Bft)
21.04.2024 00:01 21,5 °C 0,7 °C 52 % 93 % 1019,5 hPa 0,0 l/m² 0,0 km/h (0 Bft) W 271 ° 0 min 0 W/m² -0,3 °C 0,7 °C 0,0 km/h (0 Bft)
21.04.2024 00:02 21,4 °C 0,7 °C 52 % 92 % 1019,6 hPa 0,0 l/m² 0,0 km/h (0 Bft) W 271 ° 0 min 0 W/m² -0,4 °C 0,7 °C 0,0 km/h (0 Bft)
21.04.2024 00:03 21,4 °C 0,7 °C 52 % 93 % 1019,6 hPa 0,0 l/m² 0,0 km/h (0 Bft) W 271 ° 0 min 0 W/m² -0,3 °C 0,7 °C 0,0 km/h (0 Bft)
21.04.2024 00:04 21,5 °C 0,7 °C 52 % 93 % 1019,5 hPa 0,0 l/m² 0,0 km/h (0 Bft) W 271 ° 0 min 0 W/m² -0,3 °C 0,7 °C 0,0 km/h (0 Bft)
21.04.2024 00:06 21,4 °C 0,8 °C 52 % 93 % 1019,5 hPa 0,0 l/m² 0,0 km/h (0 Bft) W 271 ° 0 min 0 W/m² -0,2 °C 0,8 °C 0,0 km/h (0 Bft)
21.04.2024 00:08 21,4 °C 0,9 °C 52 % 93 % 1019,5 hPa 0,0 l/m² 0,0 km/h (0 Bft) W 271 ° 0 min 0 W/m² -0,1 °C 0,9 °C 0,0 km/h (0 Bft)
21.04.2024 00:09 21,4 °C 1,0 °C 52 % 93 % 1019,4 hPa 0,0 l/m² 0,0 km/h (0 Bft) W 271 ° 0 min 0 W/m² -0,0 °C 1,0 °C 0,0 km/h (0 Bft)
21.04.2024 00:11 21,5 °C 0,9 °C 52 % 93 % 1019,5 hPa 0,0 l/m² 0,0 km/h (0 Bft) W 271 ° 0 min 0 W/m² -0,1 °C 0,9 °C 0,0 km/h (0 Bft)
21.04.2024 00:12 21,5 °C 0,9 °C 52 % 93 % 1019,5 hPa 0,0 l/m² 0,0 km/h (0 Bft) W 271 ° 0 min 0 W/m² -0,1 °C 0,9 °C 0,0 km/h (0 Bft)
21.04.2024 00:13 21,5 °C 1,0 °C 52 % 93 % 1019,5 hPa 0,0 l/m² 0,0 km/h (0 Bft) W 271 ° 0 min 0 W/m² -0,0 °C 1,0 °C 0,0 km/h (0 Bft)
21.04.2024 00:15 21,4 °C 1,1 °C 52 % 93 % 1019,5 hPa 0,0 l/m² 0,0 km/h (0 Bft) W 271 ° 0 min 0 W/m² 0,1 °C 1,1 °C 0,0 km/h (0 Bft)
21.04.2024 00:17 21,5 °C 1,1 °C 52 % 93 % 1019,5 hPa 0,0 l/m² 0,0 km/h (0 Bft) W 271 ° 0 min 0 W/m² 0,1 °C 1,1 °C 0,0 km/h (0 Bft)
21.04.2024 00:19 21,5 °C 1,3 °C 52 % 93 % 1019,5 hPa 0,0 l/m² 0,0 km/h (0 Bft) W 271 ° 0 min 0 W/m² 0,3 °C 1,3 °C 0,0 km/h (0 Bft)
21.04.2024 00:21 21,5 °C 1,4 °C 52 % 93 % 1019,5 hPa 0,0 l/m² 0,0 km/h (0 Bft) W 271 ° 0 min 0 W/m² 0,4 °C 1,4 °C 0,0 km/h (0 Bft)
21.04.2024 00:23 21,5 °C 1,4 °C 52 % 93 % 1019,4 hPa 0,0 l/m² 0,0 km/h (0 Bft) W 271 ° 0 min 0 W/m² 0,4 °C 1,4 °C 0,0 km/h (0 Bft)
21.04.2024 00:25 21,4 °C 1,4 °C 52 % 94 % 1019,4 hPa 0,0 l/m² 0,0 km/h (0 Bft) W 271 ° 0 min 0 W/m² 0,5 °C 1,4 °C 0,0 km/h (0 Bft)
21.04.2024 00:27 21,5 °C 1,4 °C 52 % 93 % 1019,5 hPa 0,0 l/m² 0,0 km/h (0 Bft) W 271 ° 0 min 0 W/m² 0,4 °C 1,4 °C 0,0 km/h (0 Bft)
21.04.2024 00:29 21,5 °C 1,5 °C 52 % 94 % 1019,5 hPa 0,0 l/m² 0,0 km/h (0 Bft) W 271 ° 0 min 0 W/m² 0,6 °C 1,5 °C 0,0 km/h (0 Bft)
21.04.2024 00:31 21,5 °C 1,4 °C 52 % 94 % 1019,4 hPa 0,0 l/m² 0,0 km/h (0 Bft) W 271 ° 0 min 0 W/m² 0,5 °C 1,4 °C 0,0 km/h (0 Bft)
21.04.2024 00:32 21,5 °C 1,4 °C 52 % 93 % 1019,4 hPa 0,0 l/m² 0,0 km/h (0 Bft) W 271 ° 0 min 0 W/m² 0,4 °C 1,4 °C 0,0 km/h (0 Bft)
21.04.2024 00:33 21,5 °C 1,4 °C 52 % 93 % 1019,3 hPa 0,0 l/m² 0,0 km/h (0 Bft) W 271 ° 0 min 0 W/m² 0,4 °C 1,4 °C 0,0 km/h (0 Bft)
21.04.2024 00:35 21,5 °C 1,3 °C 52 % 93 % 1019,3 hPa 0,0 l/m² 0,8 km/h (0 Bft) W 271 ° 0 min 0 W/m² 0,3 °C 1,3 °C 3,2 km/h (1 Bft)
21.04.2024 00:37 21,5 °C 1,2 °C 52 % 93 % 1019,4 hPa 0,0 l/m² 0,6 km/h (0 Bft) W 271 ° 0 min 0 W/m² 0,2 °C 1,2 °C 1,6 km/h (1 Bft)
21.04.2024 00:39 21,4 °C 1,2 °C 52 % 93 % 1019,3 hPa 0,0 l/m² 0,0 km/h (0 Bft) W 271 ° 0 min 0 W/m² 0,2 °C 1,2 °C 0,0 km/h (0 Bft)
21.04.2024 00:41 21,5 °C 1,3 °C 52 % 93 % 1019,3 hPa 0,0 l/m² 0,0 km/h (0 Bft) W 271 ° 0 min 0 W/m² 0,3 °C 1,3 °C 0,0 km/h (0 Bft)
21.04.2024 00:42 21,5 °C 1,3 °C 52 % 94 % 1019,3 hPa 0,0 l/m² 0,0 km/h (0 Bft) W 271 ° 0 min 0 W/m² 0,4 °C 1,3 °C 0,0 km/h (0 Bft)
21.04.2024 00:43 21,5 °C 1,3 °C 52 % 94 % 1019,3 hPa 0,0 l/m² 0,0 km/h (0 Bft) W 271 ° 0 min 0 W/m² 0,4 °C 1,3 °C 0,0 km/h (0 Bft)
21.04.2024 00:46 21,5 °C 1,4 °C 52 % 94 % 1019,3 hPa 0,0 l/m² 0,0 km/h (0 Bft) W 271 ° 0 min 0 W/m² 0,5 °C 1,4 °C 0,0 km/h (0 Bft)
21.04.2024 00:48 21,5 °C 1,4 °C 52 % 93 % 1019,4 hPa 0,0 l/m² 0,7 km/h (0 Bft) W 271 ° 0 min 0 W/m² 0,4 °C 1,4 °C 1,6 km/h (1 Bft)
21.04.2024 00:50 21,5 °C 1,3 °C 52 % 93 % 1019,3 hPa 0,0 l/m² 0,7 km/h (0 Bft) W 271 ° 0 min 0 W/m² 0,3 °C 1,3 °C 3,2 km/h (1 Bft)
21.04.2024 00:52 21,5 °C 1,3 °C 52 % 93 % 1019,3 hPa 0,0 l/m² 0,0 km/h (0 Bft) W 271 ° 0 min 0 W/m² 0,3 °C 1,3 °C 0,0 km/h (0 Bft)
21.04.2024 00:53 21,5 °C 1,3 °C 52 % 93 % 1019,3 hPa 0,0 l/m² 0,0 km/h (0 Bft) W 271 ° 0 min 0 W/m² 0,3 °C 1,3 °C 0,0 km/h (0 Bft)
21.04.2024 00:54 21,5 °C 1,3 °C 52 % 93 % 1019,3 hPa 0,0 l/m² 0,0 km/h (0 Bft) W 271 ° 0 min 0 W/m² 0,3 °C 1,3 °C 0,0 km/h (0 Bft)
21.04.2024 00:56 21,5 °C 1,2 °C 52 % 93 % 1019,2 hPa 0,0 l/m² 0,0 km/h (0 Bft) W 271 ° 0 min 0 W/m² 0,2 °C 1,2 °C 0,0 km/h (0 Bft)
21.04.2024 00:58 21,5 °C 0,9 °C 52 % 93 % 1019,2 hPa 0,0 l/m² 0,0 km/h (0 Bft) W 271 ° 0 min 0 W/m² -0,1 °C 0,9 °C 0,0 km/h (0 Bft)
21.04.2024 01:00 21,5 °C 0,7 °C 52 % 93 % 1019,2 hPa 0,0 l/m² 0,0 km/h (0 Bft) W 271 ° 0 min 0 W/m² -0,3 °C 0,7 °C 0,0 km/h (0 Bft)
21.04.2024 01:02 21,5 °C 0,6 °C 52 % 93 % 1019,2 hPa 0,0 l/m² 0,0 km/h (0 Bft) W 271 ° 0 min 0 W/m² -0,4 °C 0,6 °C 0,0 km/h (0 Bft)
21.04.2024 01:04 21,5 °C 0,7 °C 52 % 93 % 1019,3 hPa 0,0 l/m² 0,0 km/h (0 Bft) W 271 ° 0 min 0 W/m² -0,3 °C 0,7 °C 0,0 km/h (0 Bft)
21.04.2024 01:06 21,5 °C 0,8 °C 52 % 94 % 1019,3 hPa 0,0 l/m² 0,0 km/h (0 Bft) W 271 ° 0 min 0 W/m² -0,1 °C 0,8 °C 0,0 km/h (0 Bft)
21.04.2024 01:08 21,4 °C 0,9 °C 52 % 94 % 1019,3 hPa 0,0 l/m² 0,0 km/h (0 Bft) W 271 ° 0 min 0 W/m² 0,0 °C 0,9 °C 0,0 km/h (0 Bft)
21.04.2024 01:10 21,5 °C 0,9 °C 52 % 94 % 1019,3 hPa 0,0 l/m² 0,0 km/h (0 Bft) W 271 ° 0 min 0 W/m² 0,0 °C 0,9 °C 1,6 km/h (1 Bft)
21.04.2024 01:12 21,5 °C 0,9 °C 52 % 94 % 1019,2 hPa 0,0 l/m² 0,0 km/h (0 Bft) W 271 ° 0 min 0 W/m² 0,0 °C 0,9 °C 0,0 km/h (0 Bft)
21.04.2024 01:13 21,5 °C 0,8 °C 52 % 93 % 1019,2 hPa 0,0 l/m² 0,0 km/h (0 Bft) W 271 ° 0 min 0 W/m² -0,2 °C 0,8 °C 0,0 km/h (0 Bft)
21.04.2024 01:14 21,5 °C 0,8 °C 52 % 93 % 1019,2 hPa 0,0 l/m² 0,0 km/h (0 Bft) W 271 ° 0 min 0 W/m² -0,2 °C 0,8 °C 0,0 km/h (0 Bft)
21.04.2024 01:16 21,4 °C 0,8 °C 52 % 93 % 1019,1 hPa 0,0 l/m² 0,0 km/h (0 Bft) W 271 ° 0 min 0 W/m² -0,2 °C 0,8 °C 0,0 km/h (0 Bft)
21.04.2024 01:18 21,5 °C 0,7 °C 52 % 93 % 1019,2 hPa 0,0 l/m² 0,0 km/h (0 Bft) W 271 ° 0 min 0 W/m² -0,3 °C 0,7 °C 0,0 km/h (0 Bft)
21.04.2024 01:20 21,4 °C 0,6 °C 52 % 93 % 1019,2 hPa 0,0 l/m² 0,0 km/h (0 Bft) W 271 ° 0 min 0 W/m² -0,4 °C 0,6 °C 0,0 km/h (0 Bft)
21.04.2024 01:22 21,4 °C 0,7 °C 52 % 94 % 1019,2 hPa 0,0 l/m² 0,2 km/h (0 Bft) W 271 ° 0 min 0 W/m² -0,2 °C 0,7 °C 1,6 km/h (1 Bft)
21.04.2024 01:23 21,5 °C 0,7 °C 52 % 94 % 1019,2 hPa 0,0 l/m² 0,0 km/h (0 Bft) W 271 ° 0 min 0 W/m² -0,2 °C 0,7 °C 0,0 km/h (0 Bft)
21.04.2024 01:24 21,5 °C 0,7 °C 52 % 94 % 1019,2 hPa 0,0 l/m² 0,0 km/h (0 Bft) W 271 ° 0 min 0 W/m² -0,2 °C 0,7 °C 0,0 km/h (0 Bft)
21.04.2024 01:26 21,4 °C 0,6 °C 52 % 94 % 1019,1 hPa 0,0 l/m² 0,0 km/h (0 Bft) W 271 ° 0 min 0 W/m² -0,3 °C 0,6 °C 0,0 km/h (0 Bft)
21.04.2024 01:28 21,5 °C 0,6 °C 52 % 94 % 1019,2 hPa 0,0 l/m² 0,0 km/h (0 Bft) W 271 ° 0 min 0 W/m² -0,3 °C 0,6 °C 0,0 km/h (0 Bft)
21.04.2024 01:30 21,4 °C 0,3 °C 52 % 93 % 1019,2 hPa 0,0 l/m² 0,0 km/h (0 Bft) W 271 ° 0 min 0 W/m² -0,7 °C 0,3 °C 0,0 km/h (0 Bft)
21.04.2024 01:32 21,5 °C 0,1 °C 52 % 93 % 1019,1 hPa 0,0 l/m² 0,0 km/h (0 Bft) W 271 ° 0 min 0 W/m² -0,9 °C 0,1 °C 0,0 km/h (0 Bft)
21.04.2024 01:33 21,4 °C -0,1 °C 52 % 93 % 1019,1 hPa 0,0 l/m² 0,0 km/h (0 Bft) W 271 ° 0 min 0 W/m² -1,1 °C -0,1 °C 0,0 km/h (0 Bft)
21.04.2024 01:34 21,5 °C -0,1 °C 52 % 93 % 1019,2 hPa 0,0 l/m² 0,0 km/h (0 Bft) W 271 ° 0 min 0 W/m² -1,1 °C -0,1 °C 0,0 km/h (0 Bft)
21.04.2024 01:36 21,4 °C -0,2 °C 52 % 93 % 1019,1 hPa 0,0 l/m² 0,0 km/h (0 Bft) W 271 ° 0 min 0 W/m² -1,2 °C -0,2 °C 0,0 km/h (0 Bft)
21.04.2024 01:38 21,4 °C -0,2 °C 52 % 93 % 1019,1 hPa 0,0 l/m² 0,0 km/h (0 Bft) W 271 ° 0 min 0 W/m² -1,2 °C -0,2 °C 0,0 km/h (0 Bft)
21.04.2024 01:40 21,4 °C -0,2 °C 52 % 93 % 1019,1 hPa 0,0 l/m² 0,0 km/h (0 Bft) W 271 ° 0 min 0 W/m² -1,2 °C -0,2 °C 0,0 km/h (0 Bft)
21.04.2024 01:42 21,4 °C -0,1 °C 52 % 94 % 1019,2 hPa 0,0 l/m² 0,8 km/h (0 Bft) W 271 ° 0 min 0 W/m² -0,9 °C -0,1 °C 1,6 km/h (1 Bft)
21.04.2024 01:43 21,4 °C -0,1 °C 52 % 94 % 1019,2 hPa 0,0 l/m² 1,8 km/h (1 Bft) W 271 ° 0 min 0 W/m² -0,9 °C -0,1 °C 3,2 km/h (1 Bft)
21.04.2024 01:44 21,4 °C -0,1 °C 52 % 94 % 1019,1 hPa 0,0 l/m² 1,6 km/h (1 Bft) W 271 ° 0 min 0 W/m² -0,9 °C -0,1 °C 1,6 km/h (1 Bft)
21.04.2024 01:46 21,4 °C -0,1 °C 52 % 94 % 1019,1 hPa 0,0 l/m² 1,2 km/h (1 Bft) W 271 ° 0 min 0 W/m² -0,9 °C -0,1 °C 3,2 km/h (1 Bft)
21.04.2024 01:48 21,4 °C 0,0 °C 52 % 94 % 1019,2 hPa 0,0 l/m² 0,9 km/h (0 Bft) W 271 ° 0 min 0 W/m² -0,8 °C 0,0 °C 1,6 km/h (1 Bft)
21.04.2024 01:50 21,4 °C 0,1 °C 52 % 94 % 1019,2 hPa 0,0 l/m² 0,0 km/h (0 Bft) W 271 ° 0 min 0 W/m² -0,7 °C 0,1 °C 0,0 km/h (0 Bft)
21.04.2024 01:52 21,4 °C 0,1 °C 52 % 94 % 1019,1 hPa 0,0 l/m² 0,0 km/h (0 Bft) W 271 ° 0 min 0 W/m² -0,7 °C 0,1 °C 0,0 km/h (0 Bft)
21.04.2024 01:53 21,4 °C 0,1 °C 52 % 94 % 1019,1 hPa 0,0 l/m² 0,0 km/h (0 Bft) W 271 ° 0 min 0 W/m² -0,7 °C 0,1 °C 0,0 km/h (0 Bft)
21.04.2024 01:54 21,4 °C 0,2 °C 52 % 94 % 1019,1 hPa 0,0 l/m² 0,0 km/h (0 Bft) W 271 ° 0 min 0 W/m² -0,6 °C 0,2 °C 0,0 km/h (0 Bft)
21.04.2024 01:56 21,4 °C 0,2 °C 52 % 94 % 1019,1 hPa 0,0 l/m² 0,0 km/h (0 Bft) W 271 ° 0 min 0 W/m² -0,6 °C 0,2 °C 0,0 km/h (0 Bft)
21.04.2024 01:58 21,4 °C 0,2 °C 52 % 94 % 1019,1 hPa 0,0 l/m² 0,0 km/h (0 Bft) W 271 ° 0 min 0 W/m² -0,6 °C 0,2 °C 0,0 km/h (0 Bft)
21.04.2024 02:00 21,4 °C 0,2 °C 52 % 94 % 1019,0 hPa 0,0 l/m² 0,0 km/h (0 Bft) W 271 ° 0 min 0 W/m² -0,6 °C 0,2 °C 0,0 km/h (0 Bft)
21.04.2024 02:02 21,4 °C 0,2 °C 52 % 94 % 1019,0 hPa 0,0 l/m² 0,0 km/h (0 Bft) W 271 ° 0 min 0 W/m² -0,6 °C 0,2 °C 0,0 km/h (0 Bft)
21.04.2024 02:03 21,4 °C 0,2 °C 52 % 94 % 1019,1 hPa 0,0 l/m² 0,0 km/h (0 Bft) W 271 ° 0 min 0 W/m² -0,6 °C 0,2 °C 0,0 km/h (0 Bft)
21.04.2024 02:04 21,4 °C 0,1 °C 52 % 94 % 1019,1 hPa 0,0 l/m² 0,0 km/h (0 Bft) W 271 ° 0 min 0 W/m² -0,7 °C 0,1 °C 0,0 km/h (0 Bft)
21.04.2024 02:06 21,4 °C 0,1 °C 52 % 94 % 1019,0 hPa 0,0 l/m² 0,0 km/h (0 Bft) W 271 ° 0 min 0 W/m² -0,7 °C 0,1 °C 0,0 km/h (0 Bft)
21.04.2024 02:08 21,4 °C 0,1 °C 52 % 94 % 1019,1 hPa 0,0 l/m² 0,0 km/h (0 Bft) W 271 ° 0 min 0 W/m² -0,7 °C 0,1 °C 0,0 km/h (0 Bft)
21.04.2024 02:10 21,4 °C 0,1 °C 52 % 94 % 1019,1 hPa 0,0 l/m² 0,0 km/h (0 Bft) W 271 ° 0 min 0 W/m² -0,7 °C 0,1 °C 0,0 km/h (0 Bft)
21.04.2024 02:12 21,4 °C 0,1 °C 52 % 94 % 1019,1 hPa 0,0 l/m² 0,0 km/h (0 Bft) W 271 ° 0 min 0 W/m² -0,7 °C 0,1 °C 0,0 km/h (0 Bft)
21.04.2024 02:13 21,4 °C 0,1 °C 52 % 94 % 1019,1 hPa 0,0 l/m² 0,0 km/h (0 Bft) W 271 ° 0 min 0 W/m² -0,7 °C 0,1 °C 0,0 km/h (0 Bft)
21.04.2024 02:15 21,4 °C 0,1 °C 52 % 94 % 1019,1 hPa 0,0 l/m² 0,0 km/h (0 Bft) W 271 ° 0 min 0 W/m² -0,7 °C 0,1 °C 0,0 km/h (0 Bft)
21.04.2024 02:17 21,4 °C 0,2 °C 52 % 94 % 1019,2 hPa 0,0 l/m² 0,0 km/h (0 Bft) W 271 ° 0 min 0 W/m² -0,6 °C 0,2 °C 0,0 km/h (0 Bft)
21.04.2024 02:19 21,4 °C 0,3 °C 52 % 94 % 1019,1 hPa 0,0 l/m² 0,0 km/h (0 Bft) W 271 ° 0 min 0 W/m² -0,5 °C 0,3 °C 0,0 km/h (0 Bft)
21.04.2024 02:21 21,4 °C 0,4 °C 52 % 94 % 1019,1 hPa 0,0 l/m² 0,0 km/h (0 Bft) W 271 ° 0 min 0 W/m² -0,5 °C 0,4 °C 0,0 km/h (0 Bft)
21.04.2024 02:22 21,4 °C 0,4 °C 52 % 94 % 1019,1 hPa 0,0 l/m² 0,0 km/h (0 Bft) W 271 ° 0 min 0 W/m² -0,5 °C 0,4 °C 0,0 km/h (0 Bft)
21.04.2024 02:23 21,4 °C 0,4 °C 52 % 94 % 1019,1 hPa 0,0 l/m² 0,0 km/h (0 Bft) W 271 ° 0 min 0 W/m² -0,5 °C 0,4 °C 0,0 km/h (0 Bft)
21.04.2024 02:25 21,4 °C 0,5 °C 52 % 94 % 1019,1 hPa 0,0 l/m² 0,0 km/h (0 Bft) W 271 ° 0 min 0 W/m² -0,4 °C 0,5 °C 0,0 km/h (0 Bft)
21.04.2024 02:27 21,4 °C 0,5 °C 52 % 94 % 1019,0 hPa 0,0 l/m² 0,0 km/h (0 Bft) W 271 ° 0 min 0 W/m² -0,4 °C 0,5 °C 0,0 km/h (0 Bft)
21.04.2024 02:29 21,4 °C 0,6 °C 52 % 94 % 1019,1 hPa 0,0 l/m² 0,0 km/h (0 Bft) W 271 ° 0 min 0 W/m² -0,3 °C 0,6 °C 0,0 km/h (0 Bft)
21.04.2024 02:31 21,4 °C 0,6 °C 52 % 94 % 1019,0 hPa 0,0 l/m² 0,0 km/h (0 Bft) W 271 ° 0 min 0 W/m² -0,3 °C 0,6 °C 0,0 km/h (0 Bft)
21.04.2024 02:32 21,4 °C 0,6 °C 52 % 94 % 1019,1 hPa 0,0 l/m² 0,0 km/h (0 Bft) W 271 ° 0 min 0 W/m² -0,3 °C 0,6 °C 0,0 km/h (0 Bft)
21.04.2024 02:33 21,4 °C 0,7 °C 52 % 94 % 1019,0 hPa 0,0 l/m² 0,0 km/h (0 Bft) W 271 ° 0 min 0 W/m² -0,2 °C 0,7 °C 0,0 km/h (0 Bft)
21.04.2024 02:35 21,4 °C 0,7 °C 52 % 94 % 1019,0 hPa 0,0 l/m² 0,0 km/h (0 Bft) W 271 ° 0 min 0 W/m² -0,2 °C 0,7 °C 0,0 km/h (0 Bft)
21.04.2024 02:37 21,4 °C 0,7 °C 52 % 94 % 1019,0 hPa 0,0 l/m² 0,0 km/h (0 Bft) W 271 ° 0 min 0 W/m² -0,2 °C 0,7 °C 0,0 km/h (0 Bft)
21.04.2024 02:39 21,4 °C 0,8 °C 52 % 94 % 1019,0 hPa 0,0 l/m² 0,0 km/h (0 Bft) W 271 ° 0 min 0 W/m² -0,1 °C 0,8 °C 0,0 km/h (0 Bft)
21.04.2024 02:41 21,4 °C 0,8 °C 52 % 94 % 1019,0 hPa 0,0 l/m² 0,0 km/h (0 Bft) W 271 ° 0 min 0 W/m² -0,1 °C 0,8 °C 0,0 km/h (0 Bft)
21.04.2024 02:42 21,4 °C 0,8 °C 52 % 94 % 1018,8 hPa 0,0 l/m² 0,0 km/h (0 Bft) W 271 ° 0 min 0 W/m² -0,1 °C 0,8 °C 0,0 km/h (0 Bft)
21.04.2024 02:43 21,3 °C 0,8 °C 52 % 94 % 1018,9 hPa 0,0 l/m² 0,0 km/h (0 Bft) W 271 ° 0 min 0 W/m² -0,1 °C 0,8 °C 0,0 km/h (0 Bft)
21.04.2024 02:45 21,3 °C 0,8 °C 52 % 94 % 1019,0 hPa 0,0 l/m² 0,0 km/h (0 Bft) W 271 ° 0 min 0 W/m² -0,1 °C 0,8 °C 0,0 km/h (0 Bft)
21.04.2024 02:47 21,4 °C 0,7 °C 52 % 94 % 1018,9 hPa 0,0 l/m² 0,0 km/h (0 Bft) W 271 ° 0 min 0 W/m² -0,2 °C 0,7 °C 0,0 km/h (0 Bft)
21.04.2024 02:49 21,4 °C 0,6 °C 52 % 94 % 1018,9 hPa 0,0 l/m² 0,0 km/h (0 Bft) W 271 ° 0 min 0 W/m² -0,3 °C 0,6 °C 0,0 km/h (0 Bft)
21.04.2024 02:51 21,4 °C 0,6 °C 52 % 94 % 1018,9 hPa 0,0 l/m² 0,0 km/h (0 Bft) W 271 ° 0 min 0 W/m² -0,3 °C 0,6 °C 0,0 km/h (0 Bft)
21.04.2024 02:52 21,4 °C 0,7 °C 52 % 94 % 1018,9 hPa 0,0 l/m² 0,0 km/h (0 Bft) W 271 ° 0 min 0 W/m² -0,2 °C 0,7 °C 0,0 km/h (0 Bft)
21.04.2024 02:53 21,3 °C 0,6 °C 52 % 94 % 1018,8 hPa 0,0 l/m² 0,0 km/h (0 Bft) W 271 ° 0 min 0 W/m² -0,3 °C 0,6 °C 0,0 km/h (0 Bft)
21.04.2024 02:55 21,3 °C 0,7 °C 52 % 94 % 1018,8 hPa 0,0 l/m² 0,0 km/h (0 Bft) W 271 ° 0 min 0 W/m² -0,2 °C 0,7 °C 0,0 km/h (0 Bft)
21.04.2024 02:57 21,3 °C 0,7 °C 52 % 94 % 1018,9 hPa 0,0 l/m² 0,0 km/h (0 Bft) W 271 ° 0 min 0 W/m² -0,2 °C 0,7 °C 0,0 km/h (0 Bft)
21.04.2024 02:59 21,3 °C 0,6 °C 52 % 94 % 1019,0 hPa 0,0 l/m² 0,7 km/h (0 Bft) W 271 ° 0 min 0 W/m² -0,3 °C 0,6 °C 3,2 km/h (1 Bft)
21.04.2024 03:00 21,3 °C 0,6 °C 52 % 94 % 1019,0 hPa 0,0 l/m² 0,0 km/h (0 Bft) W 270 ° 0 min 0 W/m² -0,3 °C 0,6 °C 1,6 km/h (1 Bft)
21.04.2024 03:01 21,3 °C 0,7 °C 52 % 94 % 1018,8 hPa 0,0 l/m² 0,0 km/h (0 Bft) N 0 ° 0 min 0 W/m² -0,2 °C 0,7 °C 0,0 km/h (0 Bft)
21.04.2024 03:06 21,3 °C 0,8 °C 52 % 94 % 1018,9 hPa 0,0 l/m² 0,1 km/h (0 Bft) W 271 ° 0 min 0 W/m² -0,1 °C 0,8 °C 1,6 km/h (1 Bft)
21.04.2024 03:08 21,3 °C 1,0 °C 52 % 95 % 1018,9 hPa 0,0 l/m² 0,0 km/h (0 Bft) W 271 ° 0 min 0 W/m² 0,3 °C 1,0 °C 0,0 km/h (0 Bft)
21.04.2024 03:10 21,3 °C 1,2 °C 52 % 94 % 1018,9 hPa 0,0 l/m² 0,0 km/h (0 Bft) W 271 ° 0 min 0 W/m² 0,3 °C 1,2 °C 1,6 km/h (1 Bft)
21.04.2024 03:11 21,3 °C 1,2 °C 52 % 95 % 1018,9 hPa 0,0 l/m² 0,0 km/h (0 Bft) W 271 ° 0 min 0 W/m² 0,5 °C 1,2 °C 0,0 km/h (0 Bft)
21.04.2024 03:12 21,3 °C 1,2 °C 52 % 95 % 1018,9 hPa 0,0 l/m² 0,0 km/h (0 Bft) W 271 ° 0 min 0 W/m² 0,5 °C 1,2 °C 0,0 km/h (0 Bft)
21.04.2024 03:13 21,3 °C 1,3 °C 52 % 95 % 1018,9 hPa 0,0 l/m² 0,0 km/h (0 Bft) W 271 ° 0 min 0 W/m² 0,6 °C 1,3 °C 0,0 km/h (0 Bft)
21.04.2024 03:15 21,3 °C 1,4 °C 52 % 95 % 1018,9 hPa 0,0 l/m² 0,0 km/h (0 Bft) W 271 ° 0 min 0 W/m² 0,7 °C 1,4 °C 0,0 km/h (0 Bft)
21.04.2024 03:17 21,3 °C 1,6 °C 52 % 95 % 1018,9 hPa 0,0 l/m² 0,0 km/h (0 Bft) W 271 ° 0 min 0 W/m² 0,9 °C 1,6 °C 0,0 km/h (0 Bft)
21.04.2024 03:19 21,3 °C 1,6 °C 52 % 95 % 1018,9 hPa 0,0 l/m² 0,0 km/h (0 Bft) W 271 ° 0 min 0 W/m² 0,9 °C 1,6 °C 0,0 km/h (0 Bft)
21.04.2024 03:20 21,3 °C 1,6 °C 52 % 95 % 1018,9 hPa 0,0 l/m² 0,0 km/h (0 Bft) W 271 ° 0 min 0 W/m² 0,9 °C 1,6 °C 0,0 km/h (0 Bft)
21.04.2024 03:22 21,3 °C 1,7 °C 52 % 95 % 1019,0 hPa 0,0 l/m² 0,0 km/h (0 Bft) W 271 ° 0 min 0 W/m² 1,0 °C 1,7 °C 0,0 km/h (0 Bft)
21.04.2024 03:23 21,3 °C 1,7 °C 52 % 95 % 1018,9 hPa 0,0 l/m² 0,0 km/h (0 Bft) W 271 ° 0 min 0 W/m² 1,0 °C 1,7 °C 0,0 km/h (0 Bft)
21.04.2024 03:25 21,3 °C 1,7 °C 52 % 95 % 1019,0 hPa 0,0 l/m² 0,0 km/h (0 Bft) W 271 ° 0 min 0 W/m² 1,0 °C 1,7 °C 0,0 km/h (0 Bft)
21.04.2024 03:27 21,3 °C 1,8 °C 52 % 95 % 1018,9 hPa 0,0 l/m² 0,0 km/h (0 Bft) W 271 ° 0 min 0 W/m² 1,1 °C 1,8 °C 0,0 km/h (0 Bft)
21.04.2024 03:29 21,3 °C 1,8 °C 52 % 94 % 1018,9 hPa 0,0 l/m² 0,0 km/h (0 Bft) W 271 ° 0 min 0 W/m² 0,9 °C 1,8 °C 0,0 km/h (0 Bft)
21.04.2024 03:31 21,3 °C 1,8 °C 52 % 94 % 1018,9 hPa 0,0 l/m² 0,0 km/h (0 Bft) W 271 ° 0 min 0 W/m² 0,9 °C 1,8 °C 0,0 km/h (0 Bft)
21.04.2024 03:32 21,3 °C 1,9 °C 52 % 94 % 1019,0 hPa 0,0 l/m² 0,0 km/h (0 Bft) W 271 ° 0 min 0 W/m² 1,0 °C 1,9 °C 0,0 km/h (0 Bft)
21.04.2024 03:33 21,3 °C 1,9 °C 52 % 94 % 1019,0 hPa 0,0 l/m² 0,0 km/h (0 Bft) W 271 ° 0 min 0 W/m² 1,0 °C 1,9 °C 0,0 km/h (0 Bft)
21.04.2024 03:34 21,3 °C 1,8 °C 52 % 94 % 1019,0 hPa 0,0 l/m² 0,0 km/h (0 Bft) W 271 ° 0 min 0 W/m² 0,9 °C 1,8 °C 0,0 km/h (0 Bft)
21.04.2024 03:36 21,3 °C 1,7 °C 52 % 94 % 1019,0 hPa 0,0 l/m² 0,0 km/h (0 Bft) W 271 ° 0 min 0 W/m² 0,8 °C 1,7 °C 0,0 km/h (0 Bft)
21.04.2024 03:38 21,3 °C 1,6 °C 52 % 94 % 1019,0 hPa 0,0 l/m² 0,0 km/h (0 Bft) W 271 ° 0 min 0 W/m² 0,7 °C 1,6 °C 0,0 km/h (0 Bft)
21.04.2024 03:40 21,3 °C 1,5 °C 52 % 94 % 1019,0 hPa 0,0 l/m² 0,0 km/h (0 Bft) W 271 ° 0 min 0 W/m² 0,6 °C 1,5 °C 0,0 km/h (0 Bft)
21.04.2024 03:41 21,3 °C 1,4 °C 52 % 94 % 1019,0 hPa 0,0 l/m² 0,0 km/h (0 Bft) W 271 ° 0 min 0 W/m² 0,5 °C 1,4 °C 0,0 km/h (0 Bft)
21.04.2024 03:42 21,3 °C 1,4 °C 52 % 94 % 1019,0 hPa 0,0 l/m² 0,0 km/h (0 Bft) W 271 ° 0 min 0 W/m² 0,5 °C 1,4 °C 0,0 km/h (0 Bft)
21.04.2024 03:44 21,3 °C 1,4 °C 52 % 94 % 1019,1 hPa 0,0 l/m² 0,0 km/h (0 Bft) W 271 ° 0 min 0 W/m² 0,5 °C 1,4 °C 0,0 km/h (0 Bft)
21.04.2024 03:47 21,3 °C 1,4 °C 52 % 94 % 1019,1 hPa 0,0 l/m² 0,0 km/h (0 Bft) W 271 ° 0 min 0 W/m² 0,5 °C 1,4 °C 0,0 km/h (0 Bft)
21.04.2024 03:49 21,3 °C 1,4 °C 52 % 94 % 1019,1 hPa 0,0 l/m² 0,0 km/h (0 Bft) W 271 ° 0 min 0 W/m² 0,5 °C 1,4 °C 0,0 km/h (0 Bft)
21.04.2024 03:51 21,3 °C 1,4 °C 52 % 94 % 1019,0 hPa 0,0 l/m² 0,0 km/h (0 Bft) W 271 ° 0 min 0 W/m² 0,5 °C 1,4 °C 0,0 km/h (0 Bft)
21.04.2024 03:52 21,3 °C 1,4 °C 52 % 94 % 1019,0 hPa 0,0 l/m² 0,0 km/h (0 Bft) W 271 ° 0 min 0 W/m² 0,5 °C 1,4 °C 0,0 km/h (0 Bft)
21.04.2024 03:53 21,3 °C 1,4 °C 52 % 94 % 1019,1 hPa 0,0 l/m² 0,0 km/h (0 Bft) W 271 ° 0 min 0 W/m² 0,5 °C 1,4 °C 0,0 km/h (0 Bft)
21.04.2024 03:54 21,3 °C 1,4 °C 52 % 94 % 1019,1 hPa 0,0 l/m² 0,0 km/h (0 Bft) W 271 ° 0 min 0 W/m² 0,5 °C 1,4 °C 0,0 km/h (0 Bft)
21.04.2024 03:56 21,3 °C 1,3 °C 52 % 94 % 1019,0 hPa 0,0 l/m² 0,0 km/h (0 Bft) W 271 ° 0 min 0 W/m² 0,4 °C 1,3 °C 0,0 km/h (0 Bft)
21.04.2024 03:58 21,4 °C 0,9 °C 52 % 94 % 1019,1 hPa 0,0 l/m² 0,0 km/h (0 Bft) W 271 ° 0 min 0 W/m² 0,0 °C 0,9 °C 0,0 km/h (0 Bft)
21.04.2024 04:00 21,3 °C 0,7 °C 52 % 94 % 1019,0 hPa 0,0 l/m² 0,0 km/h (0 Bft) W 271 ° 0 min 0 W/m² -0,2 °C 0,7 °C 0,0 km/h (0 Bft)
21.04.2024 04:01 21,3 °C 0,7 °C 52 % 94 % 1019,0 hPa 0,0 l/m² 0,0 km/h (0 Bft) W 271 ° 0 min 0 W/m² -0,2 °C 0,7 °C 0,0 km/h (0 Bft)
21.04.2024 04:03 21,4 °C 0,7 °C 52 % 94 % 1019,0 hPa 0,0 l/m² 0,0 km/h (0 Bft) W 271 ° 0 min 0 W/m² -0,2 °C 0,7 °C 0,0 km/h (0 Bft)
21.04.2024 04:04 21,3 °C 0,7 °C 52 % 94 % 1019,0 hPa 0,0 l/m² 0,0 km/h (0 Bft) W 271 ° 0 min 0 W/m² -0,2 °C 0,7 °C 0,0 km/h (0 Bft)
21.04.2024 04:06 21,4 °C 0,8 °C 52 % 94 % 1019,0 hPa 0,0 l/m² 0,0 km/h (0 Bft) W 271 ° 0 min 0 W/m² -0,1 °C 0,8 °C 0,0 km/h (0 Bft)
21.04.2024 04:08 21,3 °C 0,8 °C 52 % 94 % 1019,0 hPa 0,0 l/m² 0,0 km/h (0 Bft) W 271 ° 0 min 0 W/m² -0,1 °C 0,8 °C 0,0 km/h (0 Bft)
21.04.2024 04:10 21,3 °C 0,7 °C 52 % 94 % 1019,0 hPa 0,0 l/m² 0,0 km/h (0 Bft) W 271 ° 0 min 0 W/m² -0,2 °C 0,7 °C 0,0 km/h (0 Bft)
21.04.2024 04:11 21,4 °C 0,7 °C 52 % 94 % 1018,9 hPa 0,0 l/m² 0,0 km/h (0 Bft) W 271 ° 0 min 0 W/m² -0,2 °C 0,7 °C 0,0 km/h (0 Bft)
21.04.2024 04:13 21,4 °C 0,6 °C 52 % 94 % 1019,0 hPa 0,0 l/m² 0,0 km/h (0 Bft) W 271 ° 0 min 0 W/m² -0,3 °C 0,6 °C 0,0 km/h (0 Bft)
21.04.2024 04:15 21,4 °C 0,6 °C 52 % 94 % 1019,0 hPa 0,0 l/m² 0,0 km/h (0 Bft) W 271 ° 0 min 0 W/m² -0,3 °C 0,6 °C 0,0 km/h (0 Bft)
21.04.2024 04:17 21,4 °C 0,5 °C 52 % 94 % 1019,1 hPa 0,0 l/m² 0,0 km/h (0 Bft) W 271 ° 0 min 0 W/m² -0,4 °C 0,5 °C 0,0 km/h (0 Bft)
21.04.2024 04:18 21,4 °C 0,5 °C 52 % 94 % 1019,1 hPa 0,0 l/m² 0,0 km/h (0 Bft) W 271 ° 0 min 0 W/m² -0,4 °C 0,5 °C 0,0 km/h (0 Bft)
21.04.2024 04:20 21,4 °C 0,4 °C 52 % 94 % 1019,0 hPa 0,0 l/m² 0,0 km/h (0 Bft) W 271 ° 0 min 0 W/m² -0,5 °C 0,4 °C 0,0 km/h (0 Bft)
21.04.2024 04:21 21,4 °C 0,4 °C 52 % 94 % 1019,0 hPa 0,0 l/m² 0,0 km/h (0 Bft) W 271 ° 0 min 0 W/m² -0,5 °C 0,4 °C 0,0 km/h (0 Bft)
21.04.2024 04:23 21,4 °C 0,3 °C 52 % 94 % 1019,1 hPa 0,0 l/m² 0,0 km/h (0 Bft) W 271 ° 0 min 0 W/m² -0,5 °C 0,3 °C 0,0 km/h (0 Bft)
21.04.2024 04:25 21,4 °C 0,3 °C 52 % 94 % 1019,1 hPa 0,0 l/m² 0,0 km/h (0 Bft) W 271 ° 0 min 0 W/m² -0,5 °C 0,3 °C 0,0 km/h (0 Bft)
21.04.2024 04:27 21,4 °C 0,3 °C 52 % 94 % 1019,1 hPa 0,0 l/m² 0,0 km/h (0 Bft) W 271 ° 0 min 0 W/m² -0,5 °C 0,3 °C 0,0 km/h (0 Bft)
21.04.2024 04:28 21,4 °C 0,3 °C 52 % 94 % 1019,1 hPa 0,0 l/m² 0,0 km/h (0 Bft) W 271 ° 0 min 0 W/m² -0,5 °C 0,3 °C 0,0 km/h (0 Bft)
21.04.2024 04:30 21,4 °C 0,4 °C 52 % 94 % 1019,1 hPa 0,0 l/m² 0,0 km/h (0 Bft) W 271 ° 0 min 0 W/m² -0,5 °C 0,4 °C 0,0 km/h (0 Bft)
21.04.2024 04:32 21,4 °C 0,4 °C 52 % 94 % 1019,1 hPa 0,0 l/m² 0,0 km/h (0 Bft) W 271 ° 0 min 0 W/m² -0,5 °C 0,4 °C 0,0 km/h (0 Bft)
21.04.2024 04:34 21,4 °C 0,4 °C 52 % 94 % 1019,1 hPa 0,0 l/m² 0,0 km/h (0 Bft) W 271 ° 0 min 0 W/m² -0,5 °C 0,4 °C 0,0 km/h (0 Bft)
21.04.2024 04:36 21,4 °C 0,4 °C 52 % 94 % 1019,0 hPa 0,0 l/m² 0,0 km/h (0 Bft) W 271 ° 0 min 0 W/m² -0,5 °C 0,4 °C 0,0 km/h (0 Bft)
21.04.2024 04:38 21,4 °C 0,3 °C 52 % 94 % 1019,1 hPa 0,0 l/m² 0,0 km/h (0 Bft) W 271 ° 0 min 0 W/m² -0,5 °C 0,3 °C 0,0 km/h (0 Bft)
21.04.2024 04:40 21,4 °C 0,3 °C 52 % 94 % 1019,0 hPa 0,0 l/m² 0,0 km/h (0 Bft) W 271 ° 0 min 0 W/m² -0,5 °C 0,3 °C 0,0 km/h (0 Bft)
21.04.2024 04:42 21,4 °C 0,4 °C 51 % 94 % 1019,1 hPa 0,0 l/m² 0,0 km/h (0 Bft) W 271 ° 0 min 0 W/m² -0,5 °C 0,4 °C 0,0 km/h (0 Bft)
21.04.2024 04:43 21,4 °C 0,4 °C 52 % 94 % 1019,1 hPa 0,0 l/m² 0,0 km/h (0 Bft) W 271 ° 0 min 0 W/m² -0,5 °C 0,4 °C 0,0 km/h (0 Bft)
21.04.2024 04:45 21,4 °C 0,5 °C 52 % 94 % 1019,1 hPa 0,0 l/m² 0,0 km/h (0 Bft) W 271 ° 0 min 0 W/m² -0,4 °C 0,5 °C 0,0 km/h (0 Bft)
21.04.2024 04:47 21,4 °C 0,6 °C 52 % 94 % 1019,1 hPa 0,0 l/m² 0,0 km/h (0 Bft) W 271 ° 0 min 0 W/m² -0,3 °C 0,6 °C 0,0 km/h (0 Bft)
21.04.2024 04:49 21,3 °C 0,7 °C 51 % 95 % 1019,1 hPa 0,0 l/m² 0,0 km/h (0 Bft) W 271 ° 0 min 0 W/m² -0,0 °C 0,7 °C 0,0 km/h (0 Bft)
21.04.2024 04:50 21,4 °C 0,7 °C 51 % 95 % 1019,2 hPa 0,0 l/m² 0,0 km/h (0 Bft) W 271 ° 0 min 0 W/m² -0,0 °C 0,7 °C 0,0 km/h (0 Bft)
21.04.2024 04:52 21,4 °C 0,8 °C 52 % 95 % 1019,1 hPa 0,0 l/m² 0,0 km/h (0 Bft) W 271 ° 0 min 0 W/m² 0,1 °C 0,8 °C 0,0 km/h (0 Bft)
21.04.2024 04:54 21,4 °C 0,8 °C 51 % 95 % 1019,2 hPa 0,0 l/m² 0,0 km/h (0 Bft) W 271 ° 0 min 0 W/m² 0,1 °C 0,8 °C 0,0 km/h (0 Bft)
21.04.2024 04:55 21,4 °C 0,9 °C 51 % 95 % 1019,2 hPa 0,0 l/m² 0,0 km/h (0 Bft) W 271 ° 0 min 0 W/m² 0,2 °C 0,9 °C 0,0 km/h (0 Bft)
21.04.2024 04:57 21,4 °C 1,0 °C 51 % 95 % 1019,1 hPa 0,0 l/m² 0,0 km/h (0 Bft) W 271 ° 0 min 0 W/m² 0,3 °C 1,0 °C 0,0 km/h (0 Bft)
21.04.2024 04:59 21,4 °C 0,9 °C 51 % 95 % 1019,2 hPa 0,0 l/m² 0,0 km/h (0 Bft) W 271 ° 0 min 0 W/m² 0,2 °C 0,9 °C 0,0 km/h (0 Bft)
21.04.2024 05:00 21,4 °C 0,8 °C 51 % 95 % 1019,2 hPa 0,0 l/m² 0,0 km/h (0 Bft) W 271 ° 0 min 0 W/m² 0,1 °C 0,8 °C 0,0 km/h (0 Bft)
21.04.2024 05:02 21,4 °C 0,8 °C 51 % 94 % 1019,2 hPa 0,0 l/m² 0,0 km/h (0 Bft) W 271 ° 0 min 0 W/m² -0,1 °C 0,8 °C 0,0 km/h (0 Bft)
21.04.2024 05:03 21,4 °C 0,8 °C 51 % 94 % 1019,2 hPa 0,0 l/m² 0,0 km/h (0 Bft) W 271 ° 0 min 0 W/m² -0,1 °C 0,8 °C 0,0 km/h (0 Bft)
21.04.2024 05:05 21,4 °C 0,9 °C 51 % 95 % 1019,1 hPa 0,0 l/m² 0,0 km/h (0 Bft) W 271 ° 0 min 0 W/m² 0,2 °C 0,9 °C 0,0 km/h (0 Bft)
21.04.2024 05:07 21,4 °C 0,9 °C 51 % 95 % 1019,2 hPa 0,0 l/m² 0,0 km/h (0 Bft) W 271 ° 0 min 0 W/m² 0,2 °C 0,9 °C 0,0 km/h (0 Bft)
21.04.2024 05:09 21,3 °C 1,1 °C 51 % 95 % 1019,2 hPa 0,0 l/m² 0,0 km/h (0 Bft) W 271 ° 0 min 0 W/m² 0,4 °C 1,1 °C 0,0 km/h (0 Bft)
21.04.2024 05:11 21,4 °C 1,2 °C 51 % 95 % 1019,3 hPa 0,0 l/m² 0,0 km/h (0 Bft) W 271 ° 0 min 0 W/m² 0,5 °C 1,2 °C 0,0 km/h (0 Bft)
21.04.2024 05:13 21,3 °C 1,2 °C 51 % 95 % 1019,2 hPa 0,0 l/m² 0,0 km/h (0 Bft) W 271 ° 0 min 0 W/m² 0,5 °C 1,2 °C 0,0 km/h (0 Bft)
21.04.2024 05:15 21,4 °C 1,1 °C 51 % 95 % 1019,1 hPa 0,0 l/m² 0,0 km/h (0 Bft) W 271 ° 0 min 0 W/m² 0,4 °C 1,1 °C 0,0 km/h (0 Bft)
21.04.2024 05:17 21,3 °C 1,2 °C 51 % 95 % 1019,2 hPa 0,0 l/m² 0,0 km/h (0 Bft) W 271 ° 0 min 0 W/m² 0,5 °C 1,2 °C 0,0 km/h (0 Bft)
21.04.2024 05:18 21,4 °C 1,2 °C 51 % 95 % 1019,2 hPa 0,0 l/m² 0,0 km/h (0 Bft) W 271 ° 0 min 0 W/m² 0,5 °C 1,2 °C 0,0 km/h (0 Bft)
21.04.2024 05:20 21,3 °C 1,3 °C 51 % 95 % 1019,2 hPa 0,0 l/m² 0,0 km/h (0 Bft) W 271 ° 0 min 0 W/m² 0,6 °C 1,3 °C 0,0 km/h (0 Bft)
21.04.2024 05:22 21,3 °C 1,3 °C 51 % 95 % 1019,2 hPa 0,0 l/m² 0,0 km/h (0 Bft) W 271 ° 0 min 0 W/m² 0,6 °C 1,3 °C 0,0 km/h (0 Bft)
21.04.2024 05:24 21,3 °C 1,4 °C 51 % 95 % 1019,1 hPa 0,0 l/m² 0,0 km/h (0 Bft) W 271 ° 0 min 0 W/m² 0,7 °C 1,4 °C 0,0 km/h (0 Bft)
21.04.2024 05:25 21,4 °C 1,4 °C 51 % 95 % 1019,1 hPa 0,0 l/m² 0,0 km/h (0 Bft) W 271 ° 0 min 0 W/m² 0,7 °C 1,4 °C 0,0 km/h (0 Bft)
21.04.2024 05:27 21,3 °C 1,5 °C 51 % 95 % 1019,1 hPa 0,0 l/m² 0,0 km/h (0 Bft) W 271 ° 0 min 0 W/m² 0,8 °C 1,5 °C 0,0 km/h (0 Bft)
21.04.2024 05:29 21,3 °C 1,6 °C 51 % 95 % 1019,1 hPa 0,0 l/m² 0,0 km/h (0 Bft) W 271 ° 0 min 0 W/m² 0,9 °C 1,6 °C 0,0 km/h (0 Bft)
21.04.2024 05:30 21,3 °C 1,6 °C 51 % 95 % 1019,1 hPa 0,0 l/m² 0,0 km/h (0 Bft) W 271 ° 0 min 0 W/m² 0,9 °C 1,6 °C 0,0 km/h (0 Bft)
21.04.2024 05:32 21,4 °C 1,6 °C 51 % 95 % 1019,1 hPa 0,0 l/m² 0,0 km/h (0 Bft) W 271 ° 0 min 0 W/m² 0,9 °C 1,6 °C 0,0 km/h (0 Bft)
21.04.2024 05:34 21,3 °C 1,6 °C 51 % 95 % 1019,1 hPa 0,0 l/m² 0,0 km/h (0 Bft) W 271 ° 0 min 0 W/m² 0,9 °C 1,6 °C 0,0 km/h (0 Bft)
21.04.2024 05:35 21,3 °C 1,6 °C 51 % 95 % 1019,1 hPa 0,0 l/m² 0,0 km/h (0 Bft) W 271 ° 0 min 0 W/m² 0,9 °C 1,6 °C 0,0 km/h (0 Bft)
21.04.2024 05:37 21,3 °C 1,7 °C 51 % 95 % 1019,0 hPa 0,0 l/m² 0,0 km/h (0 Bft) W 271 ° 0 min 0 W/m² 1,0 °C 1,7 °C 0,0 km/h (0 Bft)
21.04.2024 05:39 21,3 °C 1,7 °C 51 % 95 % 1019,0 hPa 0,0 l/m² 0,0 km/h (0 Bft) W 271 ° 0 min 0 W/m² 1,0 °C 1,7 °C 0,0 km/h (0 Bft)
21.04.2024 05:40 21,3 °C 1,8 °C 51 % 95 % 1019,1 hPa 0,0 l/m² 0,0 km/h (0 Bft) W 271 ° 0 min 0 W/m² 1,1 °C 1,8 °C 0,0 km/h (0 Bft)
21.04.2024 05:42 21,3 °C 1,9 °C 51 % 95 % 1019,0 hPa 0,0 l/m² 0,6 km/h (0 Bft) W 272 ° 0 min 0 W/m² 1,2 °C 1,9 °C 3,2 km/h (1 Bft)
21.04.2024 05:44 21,3 °C 2,0 °C 51 % 95 % 1019,1 hPa 0,0 l/m² 0,7 km/h (0 Bft) W-NW 293 ° 0 min 0 W/m² 1,3 °C 2,0 °C 3,2 km/h (1 Bft)
21.04.2024 05:46 21,3 °C 2,1 °C 51 % 95 % 1019,1 hPa 0,0 l/m² 1,5 km/h (1 Bft) NW 313 ° 0 min 0 W/m² 1,4 °C 2,1 °C 4,8 km/h (1 Bft)
21.04.2024 05:48 21,3 °C 2,2 °C 51 % 95 % 1019,1 hPa 0,0 l/m² 1,4 km/h (1 Bft) NW 319 ° 0 min 0 W/m² 1,5 °C 2,2 °C 4,8 km/h (1 Bft)
21.04.2024 05:50 21,3 °C 2,2 °C 51 % 95 % 1019,1 hPa 0,0 l/m² 1,6 km/h (1 Bft) NW 325 ° 0 min 0 W/m² 1,5 °C 2,2 °C 4,8 km/h (1 Bft)
21.04.2024 05:52 21,3 °C 2,3 °C 51 % 95 % 1019,1 hPa 0,0 l/m² 1,0 km/h (0 Bft) N-NW 327 ° 0 min 0 W/m² 1,6 °C 2,3 °C 4,8 km/h (1 Bft)
21.04.2024 05:54 21,3 °C 2,3 °C 51 % 95 % 1019,1 hPa 0,0 l/m² 1,4 km/h (1 Bft) N-NW 329 ° 0 min 0 W/m² 1,6 °C 2,3 °C 4,8 km/h (1 Bft)
21.04.2024 05:55 21,3 °C 2,3 °C 51 % 95 % 1019,1 hPa 0,0 l/m² 1,3 km/h (1 Bft) N-NW 329 ° 0 min 0 W/m² 1,6 °C 2,3 °C 3,2 km/h (1 Bft)
21.04.2024 05:57 21,3 °C 2,3 °C 51 % 95 % 1019,2 hPa 0,0 l/m² 2,4 km/h (1 Bft) N-NW 338 ° 0 min 0 W/m² 1,6 °C 2,3 °C 4,8 km/h (1 Bft)
21.04.2024 05:58 21,3 °C 2,3 °C 51 % 95 % 1019,2 hPa 0,0 l/m² 3,0 km/h (1 Bft) N-NW 348 ° 0 min 0 W/m² 1,6 °C 2,3 °C 6,4 km/h (2 Bft)
21.04.2024 06:00 21,3 °C 2,3 °C 51 % 95 % 1019,1 hPa 0,0 l/m² 2,4 km/h (1 Bft) NO 39 ° 0 min 0 W/m² 1,6 °C 2,3 °C 6,4 km/h (2 Bft)
21.04.2024 06:01 21,3 °C 2,4 °C 51 % 95 % 1019,2 hPa 0,0 l/m² 1,4 km/h (1 Bft) NO 39 ° 0 min 0 W/m² 1,7 °C 2,4 °C 3,2 km/h (1 Bft)
21.04.2024 06:03 21,3 °C 2,4 °C 51 % 95 % 1019,2 hPa 0,0 l/m² 2,9 km/h (1 Bft) O 88 ° 0 min 0 W/m² 1,7 °C 2,4 °C 8,0 km/h (2 Bft)
21.04.2024 06:05 21,3 °C 2,4 °C 51 % 95 % 1019,3 hPa 0,0 l/m² 4,0 km/h (1 Bft) O-NO 57 ° 0 min 0 W/m² 1,7 °C 2,4 °C 8,0 km/h (2 Bft)
21.04.2024 06:07 21,3 °C 2,4 °C 51 % 95 % 1019,2 hPa 0,0 l/m² 5,2 km/h (1 Bft) NO 40 ° 0 min 0 W/m² 1,7 °C 2,4 °C 8,0 km/h (2 Bft)
21.04.2024 06:09 21,3 °C 2,5 °C 51 % 95 % 1019,3 hPa 0,0 l/m² 4,4 km/h (1 Bft) NO 46 ° 0 min 0 W/m² 1,8 °C 2,5 °C 9,7 km/h (2 Bft)
21.04.2024 06:10 21,3 °C 2,6 °C 51 % 95 % 1019,2 hPa 0,0 l/m² 8,0 km/h (2 Bft) NO 48 ° 0 min 0 W/m² 1,9 °C 1,1 °C 9,7 km/h (2 Bft)
21.04.2024 06:12 21,3 °C 2,6 °C 51 % 95 % 1019,3 hPa 0,0 l/m² 6,4 km/h (2 Bft) NO 50 ° 0 min 0 W/m² 1,9 °C 2,6 °C 8,0 km/h (2 Bft)
21.04.2024 06:14 21,3 °C 2,6 °C 51 % 95 % 1019,3 hPa 0,0 l/m² 3,1 km/h (1 Bft) NO 50 ° 0 min 0 W/m² 1,9 °C 2,6 °C 6,4 km/h (2 Bft)
21.04.2024 06:16 21,3 °C 2,7 °C 51 % 95 % 1019,4 hPa 0,0 l/m² 3,3 km/h (1 Bft) NO 50 ° 0 min 0 W/m² 2,0 °C 2,7 °C 8,0 km/h (2 Bft)
21.04.2024 06:18 21,3 °C 2,7 °C 51 % 95 % 1019,4 hPa 0,0 l/m² 2,4 km/h (1 Bft) NO 50 ° 0 min 0 W/m² 2,0 °C 2,7 °C 4,8 km/h (1 Bft)
21.04.2024 06:20 21,3 °C 2,7 °C 51 % 95 % 1019,4 hPa 0,0 l/m² 3,9 km/h (1 Bft) NO 54 ° 0 min 0 W/m² 2,0 °C 2,7 °C 9,7 km/h (2 Bft)
21.04.2024 06:22 21,3 °C 2,8 °C 51 % 95 % 1019,4 hPa 0,0 l/m² 2,5 km/h (1 Bft) NO 54 ° 0 min 0 W/m² 2,1 °C 2,8 °C 6,4 km/h (2 Bft)
21.04.2024 06:24 21,3 °C 2,8 °C 51 % 95 % 1019,5 hPa 0,0 l/m² 1,9 km/h (1 Bft) NO 54 ° 0 min 5 W/m² 2,1 °C 2,8 °C 4,8 km/h (1 Bft)
21.04.2024 06:26 21,3 °C 2,8 °C 51 % 95 % 1019,4 hPa 0,0 l/m² 3,8 km/h (1 Bft) NO 53 ° 0 min 7 W/m² 2,1 °C 2,8 °C 8,0 km/h (2 Bft)
21.04.2024 06:28 21,3 °C 2,8 °C 51 % 95 % 1019,5 hPa 0,0 l/m² 2,4 km/h (1 Bft) NO 53 ° 0 min 7 W/m² 2,1 °C 2,8 °C 4,8 km/h (1 Bft)
21.04.2024 06:30 21,3 °C 2,9 °C 51 % 95 % 1019,5 hPa 0,0 l/m² 3,4 km/h (1 Bft) NO 55 ° 0 min 7 W/m² 2,2 °C 2,9 °C 8,0 km/h (2 Bft)
21.04.2024 06:32 21,3 °C 2,9 °C 51 % 95 % 1019,5 hPa 0,0 l/m² 5,7 km/h (2 Bft) N-NO 33 ° 0 min 7 W/m² 2,2 °C 2,9 °C 12,9 km/h (3 Bft)
21.04.2024 06:34 21,3 °C 2,9 °C 51 % 95 % 1019,5 hPa 0,0 l/m² 5,5 km/h (2 Bft) NO 43 ° 0 min 9 W/m² 2,2 °C 2,9 °C 12,9 km/h (3 Bft)
21.04.2024 06:35 21,3 °C 2,9 °C 51 % 95 % 1019,5 hPa 0,0 l/m² 5,0 km/h (1 Bft) NO 37 ° 0 min 9 W/m² 2,2 °C 2,9 °C 6,4 km/h (2 Bft)
21.04.2024 06:37 21,3 °C 2,9 °C 51 % 95 % 1019,5 hPa 0,0 l/m² 6,2 km/h (2 Bft) NO 49 ° 0 min 12 W/m² 2,2 °C 2,9 °C 14,5 km/h (3 Bft)
21.04.2024 06:39 21,3 °C 2,9 °C 51 % 95 % 1019,5 hPa 0,0 l/m² 6,6 km/h (2 Bft) NO 43 ° 0 min 19 W/m² 2,2 °C 2,7 °C 11,3 km/h (2 Bft)
21.04.2024 06:41 21,3 °C 2,9 °C 51 % 95 % 1019,4 hPa 0,0 l/m² 6,3 km/h (2 Bft) NO 44 ° 0 min 32 W/m² 2,2 °C 2,9 °C 12,9 km/h (3 Bft)
21.04.2024 06:43 21,3 °C 3,0 °C 51 % 95 % 1019,5 hPa 0,0 l/m² 3,9 km/h (1 Bft) NO 42 ° 0 min 37 W/m² 2,3 °C 3,0 °C 8,0 km/h (2 Bft)
21.04.2024 06:45 21,3 °C 3,0 °C 51 % 95 % 1019,5 hPa 0,0 l/m² 7,4 km/h (2 Bft) NO 39 ° 0 min 32 W/m² 2,3 °C 2,1 °C 12,9 km/h (3 Bft)
21.04.2024 06:48 21,3 °C 2,9 °C 51 % 95 % 1019,5 hPa 0,0 l/m² 4,7 km/h (1 Bft) NO 38 ° 0 min 30 W/m² 2,2 °C 2,9 °C 9,7 km/h (2 Bft)
21.04.2024 06:50 21,3 °C 2,9 °C 51 % 95 % 1019,6 hPa 0,0 l/m² 3,2 km/h (1 Bft) NO 38 ° 0 min 26 W/m² 2,2 °C 2,9 °C 6,4 km/h (2 Bft)
21.04.2024 06:52 21,3 °C 2,8 °C 51 % 95 % 1019,6 hPa 0,0 l/m² 1,9 km/h (1 Bft) NO 38 ° 0 min 32 W/m² 2,1 °C 2,8 °C 6,4 km/h (2 Bft)
21.04.2024 06:53 21,3 °C 2,8 °C 51 % 95 % 1019,6 hPa 0,0 l/m² 7,3 km/h (2 Bft) NO 44 ° 0 min 35 W/m² 2,1 °C 1,9 °C 14,5 km/h (3 Bft)
21.04.2024 06:55 21,3 °C 2,8 °C 51 % 95 % 1019,7 hPa 0,0 l/m² 4,0 km/h (1 Bft) NO 44 ° 2 min 54 W/m² 2,1 °C 2,8 °C 8,0 km/h (2 Bft)
21.04.2024 06:57 21,2 °C 2,9 °C 51 % 95 % 1019,6 hPa 0,0 l/m² 3,6 km/h (1 Bft) NO 44 ° 0 min 42 W/m² 2,2 °C 2,9 °C 6,4 km/h (2 Bft)
21.04.2024 06:59 21,3 °C 2,9 °C 51 % 95 % 1019,6 hPa 0,0 l/m² 3,7 km/h (1 Bft) NO 44 ° 0 min 44 W/m² 2,2 °C 2,9 °C 8,0 km/h (2 Bft)
21.04.2024 07:00 21,3 °C 2,9 °C 51 % 95 % 1019,6 hPa 0,0 l/m² 3,9 km/h (1 Bft) NO 43 ° 0 min 51 W/m² 2,2 °C 2,9 °C 8,0 km/h (2 Bft)
21.04.2024 07:02 21,2 °C 2,9 °C 51 % 95 % 1019,7 hPa 0,0 l/m² 5,5 km/h (2 Bft) O-NO 57 ° 2 min 86 W/m² 2,2 °C 2,9 °C 11,3 km/h (2 Bft)
21.04.2024 07:04 21,2 °C 3,1 °C 51 % 95 % 1019,7 hPa 0,0 l/m² 5,3 km/h (1 Bft) NO 55 ° 2 min 100 W/m² 2,4 °C 3,1 °C 11,3 km/h (2 Bft)
21.04.2024 07:05 21,3 °C 3,1 °C 51 % 95 % 1019,6 hPa 0,0 l/m² 4,2 km/h (1 Bft) NO 55 ° 1 min 86 W/m² 2,4 °C 3,1 °C 6,4 km/h (2 Bft)
21.04.2024 07:07 21,2 °C 3,2 °C 51 % 95 % 1019,7 hPa 0,0 l/m² 4,2 km/h (1 Bft) NO 54 ° 2 min 83 W/m² 2,5 °C 3,2 °C 8,0 km/h (2 Bft)
21.04.2024 07:09 21,3 °C 3,2 °C 51 % 95 % 1019,7 hPa 0,0 l/m² 4,2 km/h (1 Bft) NO 54 ° 0 min 46 W/m² 2,5 °C 3,2 °C 8,0 km/h (2 Bft)
21.04.2024 07:10 21,3 °C 3,2 °C 51 % 95 % 1019,8 hPa 0,0 l/m² 6,5 km/h (2 Bft) NO 51 ° 0 min 42 W/m² 2,5 °C 3,1 °C 9,7 km/h (2 Bft)
21.04.2024 07:12 21,3 °C 3,2 °C 51 % 95 % 1019,7 hPa 0,0 l/m² 7,3 km/h (2 Bft) O-NO 64 ° 0 min 44 W/m² 2,5 °C 2,4 °C 16,1 km/h (3 Bft)
21.04.2024 07:14 21,2 °C 3,1 °C 51 % 94 % 1019,8 hPa 0,0 l/m² 10,8 km/h (2 Bft) NO 46 ° 0 min 42 W/m² 2,2 °C -0,6 °C 19,3 km/h (3 Bft)
21.04.2024 07:16 21,2 °C 3,1 °C 51 % 94 % 1019,8 hPa 0,0 l/m² 9,2 km/h (2 Bft) O-NO 57 ° 2 min 60 W/m² 2,2 °C 0,6 °C 17,7 km/h (3 Bft)
21.04.2024 07:18 21,3 °C 3,0 °C 51 % 94 % 1019,9 hPa 0,0 l/m² 7,6 km/h (2 Bft) O-NO 73 ° 2 min 84 W/m² 2,1 °C 1,9 °C 16,1 km/h (3 Bft)
21.04.2024 07:20 21,3 °C 3,1 °C 51 % 94 % 1019,9 hPa 0,0 l/m² 8,9 km/h (2 Bft) NO 53 ° 2 min 79 W/m² 2,2 °C 0,8 °C 14,5 km/h (3 Bft)
21.04.2024 07:22 21,2 °C 3,1 °C 51 % 94 % 1019,8 hPa 0,0 l/m² 5,7 km/h (2 Bft) NO 34 ° 2 min 79 W/m² 2,2 °C 3,1 °C 9,7 km/h (2 Bft)
21.04.2024 07:24 21,2 °C 3,1 °C 51 % 94 % 1019,9 hPa 0,0 l/m² 5,9 km/h (2 Bft) NO 40 ° 2 min 95 W/m² 2,2 °C 3,1 °C 14,5 km/h (3 Bft)
21.04.2024 07:26 21,2 °C 3,1 °C 51 % 94 % 1019,9 hPa 0,0 l/m² 8,2 km/h (2 Bft) N-NO 22 ° 2 min 83 W/m² 2,2 °C 1,4 °C 17,7 km/h (3 Bft)
21.04.2024 07:28 21,2 °C 3,2 °C 51 % 94 % 1019,9 hPa 0,0 l/m² 9,0 km/h (2 Bft) NO 49 ° 2 min 72 W/m² 2,3 °C 0,9 °C 17,7 km/h (3 Bft)
21.04.2024 07:30 21,2 °C 3,2 °C 51 % 94 % 1020,0 hPa 0,0 l/m² 9,4 km/h (2 Bft) N-NO 33 ° 2 min 91 W/m² 2,3 °C 0,5 °C 17,7 km/h (3 Bft)
21.04.2024 07:32 21,3 °C 3,2 °C 51 % 94 % 1020,0 hPa 0,0 l/m² 8,7 km/h (2 Bft) O 94 ° 2 min 97 W/m² 2,3 °C 1,1 °C 14,5 km/h (3 Bft)
21.04.2024 07:34 21,2 °C 3,3 °C 51 % 94 % 1020,0 hPa 0,0 l/m² 4,5 km/h (1 Bft) O-NO 61 ° 2 min 86 W/m² 2,4 °C 3,3 °C 8,0 km/h (2 Bft)
21.04.2024 07:36 21,2 °C 3,3 °C 51 % 94 % 1020,1 hPa 0,0 l/m² 7,7 km/h (2 Bft) NO 45 ° 2 min 65 W/m² 2,4 °C 2,1 °C 14,5 km/h (3 Bft)
21.04.2024 07:38 21,2 °C 3,3 °C 51 % 94 % 1020,1 hPa 0,0 l/m² 8,2 km/h (2 Bft) N 360 ° 2 min 62 W/m² 2,4 °C 1,6 °C 16,1 km/h (3 Bft)
21.04.2024 07:40 21,3 °C 3,3 °C 51 % 94 % 1020,1 hPa 0,0 l/m² 6,7 km/h (2 Bft) O-NO 58 ° 2 min 60 W/m² 2,4 °C 3,0 °C 17,7 km/h (3 Bft)
21.04.2024 07:42 21,2 °C 3,3 °C 51 % 93 % 1020,1 hPa 0,0 l/m² 4,2 km/h (1 Bft) O-NO 67 ° 0 min 40 W/m² 2,3 °C 3,3 °C 8,0 km/h (2 Bft)
21.04.2024 07:44 21,3 °C 3,4 °C 51 % 93 % 1020,2 hPa 0,0 l/m² 6,7 km/h (2 Bft) N 5 ° 2 min 63 W/m² 2,4 °C 3,1 °C 16,1 km/h (3 Bft)
21.04.2024 07:46 21,3 °C 3,3 °C 51 % 93 % 1020,1 hPa 0,0 l/m² 7,7 km/h (2 Bft) NO 38 ° 2 min 97 W/m² 2,3 °C 2,1 °C 16,1 km/h (3 Bft)
21.04.2024 07:48 21,3 °C 3,4 °C 51 % 93 % 1020,2 hPa 0,0 l/m² 5,6 km/h (2 Bft) NO 44 ° 2 min 70 W/m² 2,4 °C 3,4 °C 11,3 km/h (2 Bft)
21.04.2024 07:50 21,3 °C 3,4 °C 51 % 93 % 1020,3 hPa 0,0 l/m² 6,8 km/h (2 Bft) NO 49 ° 2 min 65 W/m² 2,4 °C 3,0 °C 14,5 km/h (3 Bft)
21.04.2024 07:52 21,3 °C 3,4 °C 51 % 93 % 1020,3 hPa 0,0 l/m² 6,1 km/h (2 Bft) O-NO 57 ° 2 min 79 W/m² 2,4 °C 3,4 °C 12,9 km/h (3 Bft)
21.04.2024 07:54 21,3 °C 3,5 °C 51 % 93 % 1020,3 hPa 0,0 l/m² 6,8 km/h (2 Bft) O-NO 64 ° 2 min 65 W/m² 2,5 °C 3,1 °C 14,5 km/h (3 Bft)
21.04.2024 07:56 21,3 °C 3,5 °C 51 % 93 % 1020,3 hPa 0,0 l/m² 7,7 km/h (2 Bft) O-NO 69 ° 2 min 62 W/m² 2,5 °C 2,3 °C 14,5 km/h (3 Bft)
21.04.2024 07:58 21,3 °C 3,5 °C 51 % 93 % 1020,2 hPa 0,0 l/m² 8,0 km/h (2 Bft) O-NO 63 ° 2 min 62 W/m² 2,5 °C 2,0 °C 16,1 km/h (3 Bft)
21.04.2024 08:00 21,2 °C 3,5 °C 51 % 93 % 1020,3 hPa 0,0 l/m² 7,9 km/h (2 Bft) O-NO 77 ° 0 min 51 W/m² 2,5 °C 2,1 °C 16,1 km/h (3 Bft)
21.04.2024 08:02 21,3 °C 3,5 °C 51 % 93 % 1020,4 hPa 0,0 l/m² 9,0 km/h (2 Bft) NO 54 ° 0 min 49 W/m² 2,5 °C 1,2 °C 17,7 km/h (3 Bft)
21.04.2024 08:04 21,3 °C 3,5 °C 51 % 92 % 1020,3 hPa 0,0 l/m² 8,3 km/h (2 Bft) O-NO 57 ° 0 min 49 W/m² 2,3 °C 1,8 °C 19,3 km/h (3 Bft)
21.04.2024 08:06 21,3 °C 3,5 °C 51 % 92 % 1020,4 hPa 0,0 l/m² 15,0 km/h (3 Bft) NO 36 ° 2 min 63 W/m² 2,3 °C -2,7 °C 20,9 km/h (4 Bft)
21.04.2024 08:08 21,3 °C 3,4 °C 51 % 92 % 1020,4 hPa 0,0 l/m² 9,5 km/h (2 Bft) NO 50 ° 2 min 88 W/m² 2,2 °C 0,7 °C 19,3 km/h (3 Bft)
21.04.2024 08:10 21,3 °C 3,4 °C 51 % 92 % 1020,4 hPa 0,0 l/m² 8,5 km/h (2 Bft) NO 49 ° 2 min 79 W/m² 2,2 °C 1,5 °C 17,7 km/h (3 Bft)
21.04.2024 08:12 21,3 °C 3,5 °C 51 % 92 % 1020,4 hPa 0,0 l/m² 10,4 km/h (2 Bft) O-NO 59 ° 2 min 76 W/m² 2,3 °C 0,1 °C 25,7 km/h (4 Bft)
21.04.2024 08:14 21,3 °C 3,4 °C 51 % 92 % 1020,4 hPa 0,0 l/m² 8,6 km/h (2 Bft) O-NO 72 ° 2 min 158 W/m² 2,2 °C 1,4 °C 14,5 km/h (3 Bft)
21.04.2024 08:16 21,3 °C 3,4 °C 51 % 91 % 1020,5 hPa 0,0 l/m² 12,3 km/h (2 Bft) O-NO 63 ° 2 min 95 W/m² 2,1 °C -1,3 °C 20,9 km/h (4 Bft)
21.04.2024 08:18 21,3 °C 3,5 °C 51 % 91 % 1020,5 hPa 0,0 l/m² 6,9 km/h (2 Bft) O-NO 74 ° 2 min 93 W/m² 2,2 °C 3,0 °C 16,1 km/h (3 Bft)
21.04.2024 08:20 21,3 °C 3,4 °C 51 % 91 % 1020,6 hPa 0,0 l/m² 7,6 km/h (2 Bft) NO 43 ° 2 min 125 W/m² 2,1 °C 2,3 °C 17,7 km/h (3 Bft)
21.04.2024 08:22 21,3 °C 3,5 °C 51 % 91 % 1020,6 hPa 0,0 l/m² 4,9 km/h (1 Bft) O-NO 57 ° 2 min 97 W/m² 2,2 °C 3,5 °C 16,1 km/h (3 Bft)
21.04.2024 08:24 21,3 °C 3,4 °C 51 % 91 % 1020,7 hPa 0,0 l/m² 7,7 km/h (2 Bft) O 100 ° 2 min 76 W/m² 2,1 °C 2,2 °C 14,5 km/h (3 Bft)
21.04.2024 08:26 21,3 °C 3,5 °C 51 % 91 % 1020,6 hPa 0,0 l/m² 8,8 km/h (2 Bft) NO 36 ° 2 min 69 W/m² 2,2 °C 1,4 °C 17,7 km/h (3 Bft)
21.04.2024 08:28 21,3 °C 3,4 °C 51 % 91 % 1020,7 hPa 0,0 l/m² 8,8 km/h (2 Bft) NO 40 ° 2 min 70 W/m² 2,1 °C 1,2 °C 17,7 km/h (3 Bft)
21.04.2024 08:30 21,3 °C 3,5 °C 51 % 91 % 1020,7 hPa 0,0 l/m² 3,3 km/h (1 Bft) O-NO 78 ° 2 min 79 W/m² 2,2 °C 3,5 °C 8,0 km/h (2 Bft)
21.04.2024 08:32 21,3 °C 3,5 °C 51 % 91 % 1020,7 hPa 0,0 l/m² 4,2 km/h (1 Bft) O-NO 63 ° 2 min 86 W/m² 2,2 °C 3,5 °C 12,9 km/h (3 Bft)
21.04.2024 08:34 21,3 °C 3,6 °C 51 % 90 % 1020,8 hPa 0,0 l/m² 6,9 km/h (2 Bft) NO 49 ° 2 min 102 W/m² 2,1 °C 3,1 °C 14,5 km/h (3 Bft)
21.04.2024 08:36 21,3 °C 3,6 °C 51 % 90 % 1020,8 hPa 0,0 l/m² 4,7 km/h (1 Bft) O 95 ° 2 min 149 W/m² 2,1 °C 3,6 °C 16,1 km/h (3 Bft)
21.04.2024 08:38 21,3 °C 3,7 °C 51 % 90 % 1020,8 hPa 0,0 l/m² 6,8 km/h (2 Bft) NO 36 ° 2 min 227 W/m² 2,2 °C 3,3 °C 16,1 km/h (3 Bft)
21.04.2024 08:40 21,3 °C 3,9 °C 51 % 90 % 1020,8 hPa 0,0 l/m² 6,5 km/h (2 Bft) O-NO 66 ° 2 min 251 W/m² 2,4 °C 3,8 °C 16,1 km/h (3 Bft)
21.04.2024 08:42 21,3 °C 4,0 °C 51 % 89 % 1020,8 hPa 0,0 l/m² 9,6 km/h (2 Bft) NO 37 ° 2 min 272 W/m² 2,4 °C 1,3 °C 22,5 km/h (4 Bft)
21.04.2024 08:44 21,3 °C 4,1 °C 51 % 89 % 1020,7 hPa 0,0 l/m² 8,8 km/h (2 Bft) O-NO 63 ° 2 min 204 W/m² 2,5 °C 2,0 °C 17,7 km/h (3 Bft)
21.04.2024 08:46 21,3 °C 4,2 °C 51 % 89 % 1020,8 hPa 0,0 l/m² 10,0 km/h (2 Bft) N-NO 28 ° 2 min 181 W/m² 2,6 °C 1,2 °C 17,7 km/h (3 Bft)
21.04.2024 08:48 21,3 °C 4,2 °C 51 % 89 % 1020,9 hPa 0,0 l/m² 8,0 km/h (2 Bft) NO 40 ° 2 min 181 W/m² 2,6 °C 2,8 °C 20,9 km/h (4 Bft)
21.04.2024 08:50 21,3 °C 4,3 °C 51 % 89 % 1020,9 hPa 0,0 l/m² 10,8 km/h (2 Bft) NO 44 ° 2 min 167 W/m² 2,7 °C 0,7 °C 20,9 km/h (4 Bft)
21.04.2024 08:52 21,3 °C 4,3 °C 51 % 88 % 1021,0 hPa 0,0 l/m² 13,6 km/h (3 Bft) O-NO 57 ° 2 min 181 W/m² 2,5 °C -1,0 °C 19,3 km/h (3 Bft)
21.04.2024 08:54 21,3 °C 4,3 °C 51 % 88 % 1021,0 hPa 0,0 l/m² 12,0 km/h (2 Bft) O 88 ° 2 min 195 W/m² 2,5 °C -0,0 °C 20,9 km/h (4 Bft)
21.04.2024 08:56 21,3 °C 4,3 °C 51 % 88 % 1021,0 hPa 0,0 l/m² 13,4 km/h (3 Bft) NO 51 ° 2 min 176 W/m² 2,5 °C -0,9 °C 19,3 km/h (3 Bft)
21.04.2024 08:58 21,3 °C 4,3 °C 51 % 87 % 1021,0 hPa 0,0 l/m² 11,3 km/h (2 Bft) NO 41 ° 2 min 207 W/m² 2,3 °C 0,4 °C 17,7 km/h (3 Bft)
21.04.2024 09:00 21,3 °C 4,3 °C 51 % 88 % 1021,0 hPa 0,0 l/m² 14,5 km/h (3 Bft) O-NO 65 ° 2 min 202 W/m² 2,5 °C -1,5 °C 24,1 km/h (4 Bft)
21.04.2024 09:02 21,3 °C 4,4 °C 51 % 87 % 1021,1 hPa 0,0 l/m² 7,2 km/h (2 Bft) O 79 ° 2 min 213 W/m² 2,4 °C 3,7 °C 16,1 km/h (3 Bft)
21.04.2024 09:04 21,3 °C 4,4 °C 51 % 87 % 1021,0 hPa 0,0 l/m² 11,7 km/h (2 Bft) O-NO 78 ° 2 min 192 W/m² 2,4 °C 0,3 °C 25,7 km/h (4 Bft)
21.04.2024 09:06 21,3 °C 4,4 °C 51 % 87 % 1021,0 hPa 0,0 l/m² 13,8 km/h (3 Bft) NO 46 ° 2 min 209 W/m² 2,4 °C -1,0 °C 22,5 km/h (4 Bft)
21.04.2024 09:08 21,3 °C 4,4 °C 51 % 86 % 1021,1 hPa 0,0 l/m² 9,1 km/h (2 Bft) O-NO 69 ° 2 min 246 W/m² 2,3 °C 2,1 °C 17,7 km/h (3 Bft)
21.04.2024 09:10 21,3 °C 4,6 °C 51 % 86 % 1021,0 hPa 0,0 l/m² 10,3 km/h (2 Bft) NO 51 ° 2 min 246 W/m² 2,5 °C 1,4 °C 17,7 km/h (3 Bft)
21.04.2024 09:12 21,3 °C 4,7 °C 51 % 86 % 1021,1 hPa 0,0 l/m² 9,7 km/h (2 Bft) NO 55 ° 2 min 241 W/m² 2,6 °C 2,0 °C 17,7 km/h (3 Bft)
21.04.2024 09:14 21,3 °C 4,8 °C 51 % 85 % 1021,1 hPa 0,0 l/m² 8,8 km/h (2 Bft) NO 53 ° 2 min 311 W/m² 2,5 °C 2,7 °C 19,3 km/h (3 Bft)
21.04.2024 09:16 21,3 °C 4,8 °C 51 % 85 % 1021,1 hPa 0,0 l/m² 14,6 km/h (3 Bft) NO 51 ° 2 min 195 W/m² 2,5 °C -1,0 °C 22,5 km/h (4 Bft)
21.04.2024 09:18 21,3 °C 4,8 °C 51 % 84 % 1021,2 hPa 0,0 l/m² 9,1 km/h (2 Bft) O-NO 78 ° 2 min 220 W/m² 2,3 °C 2,5 °C 17,7 km/h (3 Bft)
21.04.2024 09:20 21,3 °C 4,7 °C 51 % 84 % 1021,2 hPa 0,0 l/m² 14,0 km/h (3 Bft) O 85 ° 2 min 206 W/m² 2,2 °C -0,8 °C 22,5 km/h (4 Bft)
21.04.2024 09:22 21,3 °C 4,7 °C 51 % 85 % 1021,1 hPa 0,0 l/m² 14,2 km/h (3 Bft) O-NO 71 ° 2 min 172 W/m² 2,4 °C -0,9 °C 22,5 km/h (4 Bft)
21.04.2024 09:24 21,3 °C 4,7 °C 51 % 85 % 1021,3 hPa 0,0 l/m² 4,8 km/h (1 Bft) O-NO 69 ° 2 min 202 W/m² 2,4 °C 4,7 °C 8,0 km/h (2 Bft)
21.04.2024 09:26 21,3 °C 4,8 °C 51 % 85 % 1021,3 hPa 0,0 l/m² 7,8 km/h (2 Bft) O-NO 68 ° 2 min 178 W/m² 2,5 °C 3,6 °C 16,1 km/h (3 Bft)
21.04.2024 09:28 21,3 °C 4,9 °C 51 % 85 % 1021,2 hPa 0,0 l/m² 7,8 km/h (2 Bft) NO 53 ° 2 min 248 W/m² 2,6 °C 3,7 °C 14,5 km/h (3 Bft)
21.04.2024 09:30 21,3 °C 4,9 °C 51 % 84 % 1021,2 hPa 0,0 l/m² 10,0 km/h (2 Bft) NO 53 ° 2 min 220 W/m² 2,4 °C 2,0 °C 20,9 km/h (4 Bft)
21.04.2024 09:32 21,3 °C 4,8 °C 51 % 84 % 1021,3 hPa 0,0 l/m² 13,3 km/h (3 Bft) N-NO 29 ° 2 min 179 W/m² 2,3 °C -0,2 °C 19,3 km/h (3 Bft)
21.04.2024 09:34 21,2 °C 4,8 °C 51 % 83 % 1021,3 hPa 0,0 l/m² 9,2 km/h (2 Bft) NO 35 ° 2 min 179 W/m² 2,2 °C 2,4 °C 17,7 km/h (3 Bft)
21.04.2024 09:36 21,3 °C 4,7 °C 51 % 83 % 1021,3 hPa 0,0 l/m² 11,9 km/h (2 Bft) N 360 ° 2 min 204 W/m² 2,1 °C 0,5 °C 22,5 km/h (4 Bft)
21.04.2024 09:38 21,3 °C 4,7 °C 51 % 83 % 1021,3 hPa 0,0 l/m² 10,3 km/h (2 Bft) N-NO 33 ° 2 min 185 W/m² 2,1 °C 1,5 °C 19,3 km/h (3 Bft)
21.04.2024 09:40 21,3 °C 4,7 °C 51 % 83 % 1021,3 hPa 0,0 l/m² 10,1 km/h (2 Bft) NO 44 ° 2 min 264 W/m² 2,1 °C 1,7 °C 24,1 km/h (4 Bft)
21.04.2024 09:42 21,3 °C 4,8 °C 51 % 83 % 1021,3 hPa 0,0 l/m² 7,8 km/h (2 Bft) N 5 ° 2 min 172 W/m² 2,2 °C 3,6 °C 17,7 km/h (3 Bft)
21.04.2024 09:44 21,3 °C 5,0 °C 51 % 83 % 1021,3 hPa 0,0 l/m² 9,0 km/h (2 Bft) O-NO 63 ° 2 min 494 W/m² 2,4 °C 2,8 °C 24,1 km/h (4 Bft)
21.04.2024 09:46 21,3 °C 5,1 °C 51 % 81 % 1021,3 hPa 0,0 l/m² 10,7 km/h (2 Bft) N-NO 25 ° 2 min 200 W/m² 2,1 °C 1,7 °C 19,3 km/h (3 Bft)
21.04.2024 09:47 21,3 °C 5,0 °C 51 % 81 % 1021,3 hPa 0,0 l/m² 6,8 km/h (2 Bft) NO 51 ° 1 min 229 W/m² 2,0 °C 4,7 °C 17,7 km/h (3 Bft)
21.04.2024 09:49 21,3 °C 5,2 °C 51 % 82 % 1021,4 hPa 0,0 l/m² 12,9 km/h (3 Bft) O-NO 63 ° 2 min 229 W/m² 2,4 °C 0,5 °C 22,5 km/h (4 Bft)
21.04.2024 09:51 21,3 °C 5,4 °C 51 % 81 % 1021,3 hPa 0,0 l/m² 9,0 km/h (2 Bft) NO 43 ° 2 min 229 W/m² 2,4 °C 3,2 °C 16,1 km/h (3 Bft)
21.04.2024 09:53 21,2 °C 5,6 °C 51 % 81 % 1021,4 hPa 0,0 l/m² 10,9 km/h (2 Bft) NO 36 ° 2 min 218 W/m² 2,6 °C 2,1 °C 19,3 km/h (3 Bft)
21.04.2024 09:55 21,3 °C 5,5 °C 51 % 80 % 1021,3 hPa 0,0 l/m² 10,8 km/h (2 Bft) NO 34 ° 2 min 223 W/m² 2,3 °C 2,1 °C 17,7 km/h (3 Bft)
21.04.2024 09:57 21,3 °C 5,5 °C 51 % 79 % 1021,3 hPa 0,0 l/m² 7,7 km/h (2 Bft) O-NO 57 ° 2 min 255 W/m² 2,2 °C 4,4 °C 12,9 km/h (3 Bft)
21.04.2024 09:59 21,3 °C 5,6 °C 51 % 80 % 1021,4 hPa 0,0 l/m² 8,9 km/h (2 Bft) NO 53 ° 2 min 315 W/m² 2,4 °C 3,5 °C 24,1 km/h (4 Bft)
21.04.2024 10:01 21,2 °C 5,7 °C 51 % 78 % 1021,3 hPa 0,0 l/m² 12,0 km/h (2 Bft) N-NO 31 ° 2 min 510 W/m² 2,2 °C 1,6 °C 20,9 km/h (4 Bft)
21.04.2024 10:03 21,3 °C 5,9 °C 51 % 77 % 1021,3 hPa 0,0 l/m² 15,1 km/h (3 Bft) NO 42 ° 2 min 510 W/m² 2,2 °C 0,1 °C 22,5 km/h (4 Bft)
21.04.2024 10:05 21,3 °C 6,4 °C 51 % 78 % 1021,4 hPa 0,0 l/m² 14,2 km/h (3 Bft) O-NO 60 ° 2 min 650 W/m² 2,8 °C 1,2 °C 22,5 km/h (4 Bft)
21.04.2024 10:07 21,2 °C 6,8 °C 51 % 75 % 1021,3 hPa 0,0 l/m² 11,3 km/h (2 Bft) NO 34 ° 2 min 640 W/m² 2,7 °C 3,2 °C 17,7 km/h (3 Bft)
21.04.2024 10:09 21,2 °C 6,9 °C 51 % 73 % 1021,3 hPa 0,0 l/m² 13,4 km/h (3 Bft) NO 40 ° 2 min 596 W/m² 2,4 °C 2,2 °C 20,9 km/h (4 Bft)
21.04.2024 10:11 21,2 °C 7,1 °C 51 % 73 % 1021,4 hPa 0,0 l/m² 11,6 km/h (2 Bft) NO 48 ° 2 min 600 W/m² 2,6 °C 3,4 °C 20,9 km/h (4 Bft)
21.04.2024 10:13 21,3 °C 7,3 °C 51 % 73 % 1021,3 hPa 0,0 l/m² 12,2 km/h (2 Bft) N-NO 19 ° 2 min 604 W/m² 2,8 °C 3,3 °C 20,9 km/h (4 Bft)
21.04.2024 10:15 21,2 °C 7,2 °C 51 % 72 % 1021,5 hPa 0,0 l/m² 12,2 km/h (2 Bft) O-NO 68 ° 2 min 408 W/m² 2,5 °C 3,2 °C 22,5 km/h (4 Bft)
21.04.2024 10:17 21,2 °C 7,2 °C 51 % 73 % 1021,4 hPa 0,0 l/m² 14,6 km/h (3 Bft) NO 46 ° 2 min 408 W/m² 2,7 °C 1,9 °C 25,7 km/h (4 Bft)
21.04.2024 10:19 21,2 °C 7,4 °C 51 % 74 % 1021,4 hPa 0,0 l/m² 7,9 km/h (2 Bft) O-NO 69 ° 2 min 615 W/m² 3,1 °C 6,2 °C 19,3 km/h (3 Bft)
21.04.2024 10:21 21,3 °C 8,0 °C 51 % 75 % 1021,4 hPa 0,0 l/m² 15,8 km/h (3 Bft) O-NO 70 ° 2 min 835 W/m² 3,8 °C 2,4 °C 29,0 km/h (5 Bft)
21.04.2024 10:23 21,2 °C 7,7 °C 51 % 70 % 1021,4 hPa 0,0 l/m² 14,1 km/h (3 Bft) NO 54 ° 2 min 230 W/m² 2,6 °C 2,8 °C 22,5 km/h (4 Bft)
21.04.2024 10:25 21,2 °C 7,2 °C 51 % 69 % 1021,5 hPa 0,0 l/m² 12,6 km/h (3 Bft) NO 46 ° 2 min 220 W/m² 1,9 °C 3,0 °C 22,5 km/h (4 Bft)
21.04.2024 10:27 21,2 °C 6,7 °C 51 % 71 % 1021,4 hPa 0,0 l/m² 10,4 km/h (2 Bft) NO 50 ° 2 min 251 W/m² 1,8 °C 3,7 °C 17,7 km/h (3 Bft)
21.04.2024 10:29 21,2 °C 6,6 °C 51 % 72 % 1021,4 hPa 0,0 l/m² 7,8 km/h (2 Bft) NO 53 ° 2 min 737 W/m² 1,9 °C 5,4 °C 16,1 km/h (3 Bft)
21.04.2024 10:31 21,2 °C 6,7 °C 51 % 74 % 1021,5 hPa 0,0 l/m² 8,1 km/h (2 Bft) N-NO 33 ° 2 min 306 W/m² 2,4 °C 5,3 °C 19,3 km/h (3 Bft)
21.04.2024 10:33 21,2 °C 6,6 °C 51 % 70 % 1021,5 hPa 0,0 l/m² 11,2 km/h (2 Bft) N 5 ° 2 min 288 W/m² 1,5 °C 3,1 °C 25,7 km/h (4 Bft)
21.04.2024 10:35 21,2 °C 6,6 °C 51 % 70 % 1021,5 hPa 0,0 l/m² 8,7 km/h (2 Bft) NO 54 ° 2 min 246 W/m² 1,5 °C 4,8 °C 14,5 km/h (3 Bft)
21.04.2024 10:37 21,2 °C 6,4 °C 51 % 69 % 1021,6 hPa 0,0 l/m² 15,1 km/h (3 Bft) O-NO 74 ° 2 min 237 W/m² 1,1 °C 0,7 °C 25,7 km/h (4 Bft)
21.04.2024 10:39 21,2 °C 6,3 °C 51 % 69 % 1021,5 hPa 0,0 l/m² 13,2 km/h (3 Bft) NO 47 ° 2 min 251 W/m² 1,0 °C 1,6 °C 22,5 km/h (4 Bft)
21.04.2024 10:41 21,2 °C 6,2 °C 51 % 69 % 1021,6 hPa 0,0 l/m² 13,8 km/h (3 Bft) N-NO 29 ° 2 min 264 W/m² 0,9 °C 1,1 °C 22,5 km/h (4 Bft)
21.04.2024 10:43 21,2 °C 6,2 °C 51 % 70 % 1021,5 hPa 0,0 l/m² 11,7 km/h (2 Bft) O-NO 74 ° 2 min 320 W/m² 1,1 °C 2,3 °C 22,5 km/h (4 Bft)
21.04.2024 10:45 21,2 °C 6,3 °C 51 % 70 % 1021,6 hPa 0,0 l/m² 14,5 km/h (3 Bft) O-NO 69 ° 2 min 250 W/m² 1,2 °C 0,9 °C 25,7 km/h (4 Bft)
21.04.2024 10:47 21,2 °C 6,3 °C 51 % 71 % 1021,6 hPa 0,0 l/m² 14,3 km/h (3 Bft) NO 44 ° 2 min 230 W/m² 1,4 °C 1,0 °C 20,9 km/h (4 Bft)
21.04.2024 10:49 21,2 °C 6,3 °C 51 % 71 % 1021,6 hPa 0,0 l/m² 12,3 km/h (2 Bft) N-NO 33 ° 2 min 220 W/m² 1,4 °C 2,1 °C 19,3 km/h (3 Bft)
21.04.2024 10:51 21,2 °C 6,3 °C 51 % 72 % 1021,5 hPa 0,0 l/m² 6,4 km/h (2 Bft) NO 49 ° 2 min 246 W/m² 1,6 °C 6,3 °C 14,5 km/h (3 Bft)
21.04.2024 10:53 21,2 °C 6,3 °C 51 % 70 % 1021,7 hPa 0,0 l/m² 10,2 km/h (2 Bft) N-NO 22 ° 2 min 258 W/m² 1,2 °C 3,4 °C 17,7 km/h (3 Bft)
21.04.2024 10:55 21,2 °C 6,3 °C 51 % 69 % 1021,7 hPa 0,0 l/m² 13,0 km/h (3 Bft) N 9 ° 2 min 262 W/m² 1,0 °C 1,7 °C 22,5 km/h (4 Bft)
21.04.2024 10:57 21,2 °C 6,2 °C 51 % 68 % 1021,7 hPa 0,0 l/m² 15,2 km/h (3 Bft) N 5 ° 2 min 308 W/m² 0,7 °C 0,4 °C 25,7 km/h (4 Bft)
21.04.2024 10:59 21,2 °C 6,3 °C 51 % 69 % 1021,7 hPa 0,0 l/m² 13,0 km/h (3 Bft) NO 51 ° 2 min 401 W/m² 1,0 °C 1,7 °C 22,5 km/h (4 Bft)
21.04.2024 11:01 21,2 °C 6,5 °C 51 % 69 % 1021,7 hPa 0,0 l/m² 13,1 km/h (3 Bft) NO 42 ° 2 min 410 W/m² 1,2 °C 1,9 °C 22,5 km/h (4 Bft)
21.04.2024 11:03 21,2 °C 6,7 °C 51 % 68 % 1021,7 hPa 0,0 l/m² 9,9 km/h (2 Bft) NO 36 ° 2 min 380 W/m² 1,2 °C 4,0 °C 17,7 km/h (3 Bft)
21.04.2024 11:05 21,2 °C 6,8 °C 51 % 68 % 1021,7 hPa 0,0 l/m² 9,3 km/h (2 Bft) NW 323 ° 2 min 422 W/m² 1,3 °C 4,5 °C 25,7 km/h (4 Bft)
21.04.2024 11:07 21,2 °C 6,8 °C 51 % 65 % 1021,7 hPa 0,0 l/m² 14,7 km/h (3 Bft) N-NO 29 ° 2 min 443 W/m² 0,7 °C 1,4 °C 22,5 km/h (4 Bft)
21.04.2024 11:09 21,2 °C 6,9 °C 51 % 67 % 1021,6 hPa 0,0 l/m² 8,8 km/h (2 Bft) NO 44 ° 2 min 490 W/m² 1,2 °C 5,0 °C 16,1 km/h (3 Bft)
21.04.2024 11:11 21,2 °C 7,1 °C 51 % 68 % 1021,8 hPa 0,0 l/m² 11,1 km/h (2 Bft) O-NO 65 ° 2 min 483 W/m² 1,6 °C 3,7 °C 20,9 km/h (4 Bft)
21.04.2024 11:13 21,2 °C 7,3 °C 51 % 65 % 1021,8 hPa 0,0 l/m² 15,3 km/h (3 Bft) NO 37 ° 2 min 339 W/m² 1,2 °C 1,7 °C 27,4 km/h (5 Bft)
21.04.2024 11:15 21,2 °C 7,1 °C 51 % 65 % 1021,8 hPa 0,0 l/m² 17,0 km/h (3 Bft) N-NO 28 ° 2 min 299 W/m² 1,0 °C 0,7 °C 27,4 km/h (5 Bft)
21.04.2024 11:17 21,2 °C 6,8 °C 51 % 64 % 1021,8 hPa 0,0 l/m² 14,8 km/h (3 Bft) NO 45 ° 2 min 279 W/m² 0,5 °C 1,4 °C 24,1 km/h (4 Bft)
21.04.2024 11:19 21,2 °C 6,7 °C 51 % 64 % 1021,9 hPa 0,0 l/m² 13,4 km/h (3 Bft) NO 34 ° 2 min 267 W/m² 0,4 °C 1,9 °C 24,1 km/h (4 Bft)
21.04.2024 11:21 21,2 °C 6,6 °C 51 % 65 % 1021,9 hPa 0,0 l/m² 12,4 km/h (2 Bft) O-NO 61 ° 2 min 276 W/m² 0,5 °C 2,4 °C 22,5 km/h (4 Bft)
21.04.2024 11:23 21,2 °C 6,6 °C 51 % 67 % 1021,9 hPa 0,0 l/m² 12,3 km/h (2 Bft) NO 43 ° 2 min 274 W/m² 0,9 °C 2,4 °C 20,9 km/h (4 Bft)
21.04.2024 11:25 21,2 °C 6,4 °C 50 % 64 % 1021,8 hPa 0,0 l/m² 14,7 km/h (3 Bft) N 5 ° 2 min 279 W/m² 0,1 °C 0,9 °C 24,1 km/h (4 Bft)
21.04.2024 11:27 21,2 °C 6,5 °C 50 % 66 % 1021,9 hPa 0,0 l/m² 8,6 km/h (2 Bft) N-NW 343 ° 2 min 309 W/m² 0,6 °C 4,7 °C 16,1 km/h (3 Bft)
21.04.2024 11:29 21,2 °C 6,6 °C 50 % 66 % 1021,9 hPa 0,0 l/m² 7,9 km/h (2 Bft) N 5 ° 2 min 309 W/m² 0,7 °C 5,4 °C 17,7 km/h (3 Bft)
21.04.2024 11:31 21,2 °C 6,6 °C 50 % 66 % 1021,9 hPa 0,0 l/m² 13,3 km/h (3 Bft) N-NW 331 ° 2 min 315 W/m² 0,7 °C 1,9 °C 22,5 km/h (4 Bft)
21.04.2024 11:33 21,2 °C 6,6 °C 50 % 65 % 1021,9 hPa 0,0 l/m² 10,3 km/h (2 Bft) NO 36 ° 2 min 320 W/m² 0,5 °C 3,6 °C 24,1 km/h (4 Bft)
21.04.2024 11:35 21,2 °C 6,6 °C 50 % 64 % 1021,9 hPa 0,0 l/m² 9,9 km/h (2 Bft) N-NO 18 ° 2 min 323 W/m² 0,3 °C 3,9 °C 19,3 km/h (3 Bft)
21.04.2024 11:37 21,2 °C 6,8 °C 50 % 66 % 1021,9 hPa 0,0 l/m² 7,3 km/h (2 Bft) N 350 ° 2 min 323 W/m² 0,9 °C 6,1 °C 17,7 km/h (3 Bft)
21.04.2024 11:39 21,3 °C 6,8 °C 50 % 65 % 1022,0 hPa 0,0 l/m² 12,1 km/h (2 Bft) O-NO 65 ° 2 min 332 W/m² 0,7 °C 2,8 °C 20,9 km/h (4 Bft)
21.04.2024 11:41 21,3 °C 6,8 °C 50 % 64 % 1022,0 hPa 0,0 l/m² 10,0 km/h (2 Bft) O-NO 68 ° 2 min 373 W/m² 0,5 °C 4,1 °C 19,3 km/h (3 Bft)
21.04.2024 11:43 21,3 °C 6,8 °C 50 % 63 % 1021,9 hPa 0,0 l/m² 14,8 km/h (3 Bft) O-NO 61 ° 2 min 374 W/m² 0,3 °C 1,4 °C 24,1 km/h (4 Bft)
21.04.2024 11:45 21,3 °C 6,8 °C 50 % 63 % 1021,9 hPa 0,0 l/m² 14,7 km/h (3 Bft) O-NO 61 ° 2 min 434 W/m² 0,3 °C 1,4 °C 22,5 km/h (4 Bft)
21.04.2024 11:47 21,3 °C 6,8 °C 50 % 64 % 1022,0 hPa 0,0 l/m² 12,5 km/h (2 Bft) NO 55 ° 2 min 466 W/m² 0,5 °C 2,5 °C 25,7 km/h (4 Bft)
21.04.2024 11:49 21,3 °C 6,9 °C 50 % 63 % 1021,9 hPa 0,0 l/m² 13,1 km/h (3 Bft) NO 51 ° 2 min 438 W/m² 0,4 °C 2,3 °C 22,5 km/h (4 Bft)
21.04.2024 11:51 21,3 °C 6,9 °C 50 % 63 % 1021,9 hPa 0,0 l/m² 16,1 km/h (3 Bft) NO 50 ° 2 min 359 W/m² 0,4 °C 0,9 °C 25,7 km/h (4 Bft)
21.04.2024 11:53 21,3 °C 6,9 °C 50 % 63 % 1021,9 hPa 0,0 l/m² 10,3 km/h (2 Bft) NO 50 ° 2 min 343 W/m² 0,4 °C 4,0 °C 17,7 km/h (3 Bft)
21.04.2024 11:55 21,3 °C 6,9 °C 50 % 64 % 1021,9 hPa 0,0 l/m² 10,8 km/h (2 Bft) NO 38 ° 2 min 348 W/m² 0,6 °C 3,7 °C 22,5 km/h (4 Bft)
21.04.2024 11:57 21,3 °C 7,1 °C 50 % 63 % 1022,0 hPa 0,0 l/m² 12,3 km/h (2 Bft) NO 54 ° 2 min 323 W/m² 0,5 °C 3,0 °C 25,7 km/h (4 Bft)
21.04.2024 11:59 21,3 °C 6,9 °C 50 % 63 % 1021,9 hPa 0,0 l/m² 16,2 km/h (3 Bft) NO 46 ° 2 min 301 W/m² 0,4 °C 0,8 °C 24,1 km/h (4 Bft)
21.04.2024 12:01 21,3 °C 6,9 °C 50 % 63 % 1021,9 hPa 0,0 l/m² 15,3 km/h (3 Bft) NO 48 ° 2 min 308 W/m² 0,4 °C 1,2 °C 27,4 km/h (5 Bft)
21.04.2024 12:03 21,3 °C 6,8 °C 50 % 61 % 1021,9 hPa 0,0 l/m² 13,9 km/h (3 Bft) NO 41 ° 2 min 366 W/m² -0,2 °C 1,8 °C 20,9 km/h (4 Bft)
21.04.2024 12:05 21,3 °C 6,8 °C 50 % 64 % 1022,0 hPa 0,0 l/m² 12,0 km/h (2 Bft) NO 42 ° 2 min 404 W/m² 0,5 °C 2,8 °C 19,3 km/h (3 Bft)
21.04.2024 12:07 21,3 °C 6,9 °C 50 % 63 % 1022,0 hPa 0,0 l/m² 12,0 km/h (2 Bft) NO 46 ° 2 min 399 W/m² 0,4 °C 2,9 °C 19,3 km/h (3 Bft)
21.04.2024 12:09 21,3 °C 7,2 °C 50 % 63 % 1022,0 hPa 0,0 l/m² 7,7 km/h (2 Bft) N-NO 31 ° 2 min 410 W/m² 0,6 °C 6,1 °C 14,5 km/h (3 Bft)
21.04.2024 12:11 21,3 °C 7,2 °C 50 % 62 % 1022,0 hPa 0,0 l/m² 9,4 km/h (2 Bft) NO 36 ° 2 min 441 W/m² 0,4 °C 4,9 °C 19,3 km/h (3 Bft)
21.04.2024 12:13 21,4 °C 7,3 °C 50 % 61 % 1022,0 hPa 0,0 l/m² 11,6 km/h (2 Bft) N-NO 23 ° 2 min 457 W/m² 0,3 °C 3,6 °C 20,9 km/h (4 Bft)
21.04.2024 12:14 21,3 °C 7,3 °C 50 % 61 % 1022,0 hPa 0,0 l/m² 12,4 km/h (2 Bft) N-NO 33 ° 1 min 464 W/m² 0,3 °C 3,2 °C 19,3 km/h (3 Bft)
21.04.2024 12:15 21,3 °C 7,3 °C 50 % 61 % 1022,0 hPa 0,0 l/m² 9,1 km/h (2 Bft) N-NW 345 ° 1 min 434 W/m² 0,3 °C 5,2 °C 14,5 km/h (3 Bft)
21.04.2024 12:17 21,4 °C 7,4 °C 50 % 61 % 1022,1 hPa 0,0 l/m² 12,8 km/h (3 Bft) N-NO 31 ° 2 min 397 W/m² 0,4 °C 3,1 °C 24,1 km/h (4 Bft)
21.04.2024 12:19 21,4 °C 7,3 °C 50 % 59 % 1022,0 hPa 0,0 l/m² 11,5 km/h (2 Bft) NO 44 ° 2 min 373 W/m² -0,2 °C 3,7 °C 17,7 km/h (3 Bft)
21.04.2024 12:21 21,4 °C 7,3 °C 50 % 62 % 1022,1 hPa 0,0 l/m² 13,5 km/h (3 Bft) N-NO 31 ° 2 min 369 W/m² 0,5 °C 2,6 °C 22,5 km/h (4 Bft)
21.04.2024 12:23 21,4 °C 7,2 °C 50 % 59 % 1022,1 hPa 0,0 l/m² 12,3 km/h (2 Bft) O-NO 65 ° 2 min 374 W/m² -0,3 °C 3,1 °C 19,3 km/h (3 Bft)
21.04.2024 12:25 21,4 °C 7,1 °C 50 % 61 % 1022,1 hPa 0,0 l/m² 12,6 km/h (3 Bft) O 80 ° 2 min 371 W/m² 0,1 °C 2,8 °C 24,1 km/h (4 Bft)
21.04.2024 12:27 21,4 °C 7,2 °C 50 % 62 % 1022,1 hPa 0,0 l/m² 12,9 km/h (3 Bft) NO 38 ° 2 min 360 W/m² 0,4 °C 2,8 °C 22,5 km/h (4 Bft)
21.04.2024 12:29 21,4 °C 7,1 °C 50 % 61 % 1022,1 hPa 0,0 l/m² 13,3 km/h (3 Bft) N-NO 33 ° 2 min 362 W/m² 0,1 °C 2,5 °C 22,5 km/h (4 Bft)
21.04.2024 12:31 21,4 °C 7,2 °C 50 % 62 % 1022,1 hPa 0,0 l/m² 11,9 km/h (2 Bft) NO 47 ° 2 min 397 W/m² 0,4 °C 3,3 °C 20,9 km/h (4 Bft)
21.04.2024 12:33 21,4 °C 7,2 °C 50 % 61 % 1022,1 hPa 0,0 l/m² 11,5 km/h (2 Bft) N-NO 30 ° 2 min 415 W/m² 0,2 °C 3,6 °C 19,3 km/h (3 Bft)
21.04.2024 12:35 21,4 °C 7,3 °C 50 % 61 % 1022,2 hPa 0,0 l/m² 9,3 km/h (2 Bft) NO 51 ° 2 min 364 W/m² 0,3 °C 5,1 °C 16,1 km/h (3 Bft)
21.04.2024 12:37 21,4 °C 7,3 °C 50 % 62 % 1022,1 hPa 0,0 l/m² 11,8 km/h (2 Bft) O-NO 63 ° 2 min 369 W/m² 0,5 °C 3,5 °C 20,9 km/h (4 Bft)
21.04.2024 12:39 21,4 °C 7,3 °C 50 % 60 % 1022,1 hPa 0,0 l/m² 14,4 km/h (3 Bft) NO 45 ° 2 min 369 W/m² 0,1 °C 2,1 °C 24,1 km/h (4 Bft)
21.04.2024 12:41 21,4 °C 7,3 °C 51 % 61 % 1022,2 hPa 0,0 l/m² 10,7 km/h (2 Bft) N-NW 341 ° 2 min 366 W/m² 0,3 °C 4,2 °C 17,7 km/h (3 Bft)
21.04.2024 12:43 21,4 °C 7,5 °C 51 % 61 % 1022,1 hPa 0,0 l/m² 12,5 km/h (2 Bft) NO 55 ° 2 min 1004 W/m² 0,5 °C 3,4 °C 20,9 km/h (4 Bft)
21.04.2024 12:45 21,5 °C 7,9 °C 51 % 59 % 1022,1 hPa 0,0 l/m² 7,7 km/h (2 Bft) N 9 ° 2 min 1027 W/m² 0,4 °C 6,9 °C 14,5 km/h (3 Bft)
21.04.2024 12:48 21,6 °C 8,3 °C 51 % 59 % 1022,1 hPa 0,0 l/m² 10,9 km/h (2 Bft) N-NO 13 ° 3 min 1027 W/m² 0,8 °C 5,2 °C 19,3 km/h (3 Bft)
21.04.2024 12:50 21,6 °C 8,3 °C 51 % 59 % 1022,1 hPa 0,0 l/m² 5,9 km/h (2 Bft) N-NO 14 ° 2 min 287 W/m² 0,8 °C 8,3 °C 14,5 km/h (3 Bft)
21.04.2024 12:52 21,6 °C 8,1 °C 51 % 57 % 1022,2 hPa 0,0 l/m² 7,8 km/h (2 Bft) NO 51 ° 2 min 272 W/m² 0,1 °C 7,0 °C 17,7 km/h (3 Bft)
21.04.2024 12:54 21,6 °C 7,8 °C 51 % 59 % 1022,1 hPa 0,0 l/m² 12,8 km/h (3 Bft) NO 36 ° 2 min 267 W/m² 0,3 °C 3,6 °C 24,1 km/h (4 Bft)
21.04.2024 12:56 21,6 °C 7,6 °C 51 % 58 % 1022,2 hPa 0,0 l/m² 8,6 km/h (2 Bft) N-NO 24 ° 2 min 267 W/m² -0,1 °C 5,9 °C 17,7 km/h (3 Bft)
21.04.2024 12:58 21,6 °C 7,6 °C 51 % 59 % 1022,2 hPa 0,0 l/m² 6,0 km/h (2 Bft) N-NO 23 ° 2 min 267 W/m² 0,1 °C 7,6 °C 12,9 km/h (3 Bft)
21.04.2024 13:00 21,6 °C 7,4 °C 51 % 58 % 1022,2 hPa 0,0 l/m² 14,7 km/h (3 Bft) N-NO 17 ° 2 min 323 W/m² -0,3 °C 2,1 °C 25,7 km/h (4 Bft)
21.04.2024 13:02 21,6 °C 7,4 °C 51 % 58 % 1022,2 hPa 0,0 l/m² 11,9 km/h (2 Bft) NO 46 ° 2 min 339 W/m² -0,3 °C 3,6 °C 24,1 km/h (4 Bft)
21.04.2024 13:04 21,6 °C 7,6 °C 51 % 62 % 1022,2 hPa 0,0 l/m² 11,7 km/h (2 Bft) NO 35 ° 2 min 427 W/m² 0,8 °C 3,9 °C 17,7 km/h (3 Bft)
21.04.2024 13:06 21,6 °C 7,6 °C 51 % 57 % 1022,2 hPa 0,0 l/m² 13,0 km/h (3 Bft) N-NO 27 ° 2 min 374 W/m² -0,4 °C 3,2 °C 24,1 km/h (4 Bft)
21.04.2024 13:08 21,6 °C 7,6 °C 51 % 58 % 1022,2 hPa 0,0 l/m² 12,8 km/h (3 Bft) O-NO 59 ° 2 min 339 W/m² -0,1 °C 3,3 °C 19,3 km/h (3 Bft)
21.04.2024 13:10 21,6 °C 7,9 °C 51 % 59 % 1022,2 hPa 0,0 l/m² 13,2 km/h (3 Bft) NO 40 ° 2 min 780 W/m² 0,4 °C 3,5 °C 20,9 km/h (4 Bft)
21.04.2024 13:12 21,6 °C 8,6 °C 51 % 60 % 1022,1 hPa 0,0 l/m² 10,1 km/h (2 Bft) N-NW 347 ° 2 min 780 W/m² 1,3 °C 6,0 °C 20,9 km/h (4 Bft)
21.04.2024 13:14 21,6 °C 8,7 °C 51 % 57 % 1022,1 hPa 0,0 l/m² 12,3 km/h (2 Bft) O-NO 61 ° 2 min 780 W/m² 0,7 °C 4,9 °C 24,1 km/h (4 Bft)
21.04.2024 13:16 21,6 °C 8,5 °C 51 % 56 % 1022,2 hPa 0,0 l/m² 12,3 km/h (2 Bft) N-NW 346 ° 2 min 260 W/m² 0,2 °C 4,6 °C 19,3 km/h (3 Bft)
21.04.2024 13:18 21,6 °C 8,1 °C 51 % 56 % 1022,1 hPa 0,0 l/m² 13,2 km/h (3 Bft) O-NO 62 ° 2 min 281 W/m² -0,1 °C 3,7 °C 24,1 km/h (4 Bft)
21.04.2024 13:20 21,6 °C 7,8 °C 51 % 57 % 1022,3 hPa 0,0 l/m² 13,9 km/h (3 Bft) NO 36 ° 2 min 318 W/m² -0,2 °C 3,0 °C 24,1 km/h (4 Bft)
21.04.2024 13:22 21,6 °C 7,8 °C 51 % 60 % 1022,2 hPa 0,0 l/m² 7,9 km/h (2 Bft) NO 48 ° 2 min 353 W/m² 0,5 °C 6,6 °C 16,1 km/h (3 Bft)
21.04.2024 13:24 21,6 °C 8,7 °C 51 % 62 % 1022,2 hPa 0,0 l/m² 7,0 km/h (2 Bft) NO 56 ° 2 min 779 W/m² 1,8 °C 8,2 °C 16,1 km/h (3 Bft)
21.04.2024 13:26 21,6 °C 9,3 °C 51 % 57 % 1022,2 hPa 0,0 l/m² 10,1 km/h (2 Bft) N-NO 24 ° 2 min 779 W/m² 1,2 °C 6,8 °C 19,3 km/h (3 Bft)
21.04.2024 13:28 21,6 °C 9,8 °C 51 % 59 % 1022,2 hPa 0,0 l/m² 7,6 km/h (2 Bft) NO 56 ° 2 min 779 W/m² 2,2 °C 8,9 °C 14,5 km/h (3 Bft)
21.04.2024 13:30 21,7 °C 9,8 °C 51 % 55 % 1022,2 hPa 0,0 l/m² 11,3 km/h (2 Bft) O-NO 69 ° 2 min 341 W/m² 1,2 °C 6,6 °C 20,9 km/h (4 Bft)
21.04.2024 13:32 21,6 °C 9,2 °C 51 % 52 % 1022,2 hPa 0,0 l/m² 11,1 km/h (2 Bft) N-NO 32 ° 2 min 334 W/m² -0,1 °C 6,1 °C 17,7 km/h (3 Bft)
21.04.2024 13:34 21,6 °C 9,2 °C 51 % 55 % 1022,1 hPa 0,0 l/m² 7,8 km/h (2 Bft) O-NO 61 ° 2 min 777 W/m² 0,6 °C 8,2 °C 14,5 km/h (3 Bft)
21.04.2024 13:36 21,7 °C 9,2 °C 51 % 55 % 1022,2 hPa 0,0 l/m² 18,3 km/h (3 Bft) O-NO 76 ° 2 min 316 W/m² 0,6 °C 2,8 °C 24,1 km/h (4 Bft)
21.04.2024 13:38 21,6 °C 8,8 °C 51 % 55 % 1022,2 hPa 0,0 l/m² 10,6 km/h (2 Bft) N-NO 26 ° 2 min 290 W/m² 0,3 °C 5,9 °C 20,9 km/h (4 Bft)
21.04.2024 13:40 21,7 °C 8,5 °C 51 % 55 % 1022,2 hPa 0,0 l/m² 12,2 km/h (2 Bft) N-NO 16 ° 2 min 276 W/m² -0,0 °C 4,7 °C 24,1 km/h (4 Bft)
21.04.2024 13:42 21,6 °C 8,2 °C 51 % 54 % 1022,2 hPa 0,0 l/m² 12,6 km/h (3 Bft) O-NO 75 ° 2 min 295 W/m² -0,5 °C 4,1 °C 24,1 km/h (4 Bft)
21.04.2024 13:44 21,6 °C 8,1 °C 51 % 56 % 1022,3 hPa 0,0 l/m² 8,4 km/h (2 Bft) O-NO 67 ° 2 min 311 W/m² -0,1 °C 6,6 °C 20,9 km/h (4 Bft)
21.04.2024 13:46 21,6 °C 8,2 °C 51 % 58 % 1022,2 hPa 0,0 l/m² 11,4 km/h (2 Bft) O-NO 74 ° 2 min 352 W/m² 0,4 °C 4,8 °C 19,3 km/h (3 Bft)
21.04.2024 13:48 21,6 °C 8,3 °C 51 % 56 % 1022,2 hPa 0,0 l/m² 13,1 km/h (3 Bft) NO 35 ° 2 min 258 W/m² 0,0 °C 4,0 °C 22,5 km/h (4 Bft)
21.04.2024 13:50 21,6 °C 8,1 °C 51 % 54 % 1022,3 hPa 0,0 l/m² 12,9 km/h (3 Bft) NO 34 ° 2 min 250 W/m² -0,6 °C 3,8 °C 20,9 km/h (4 Bft)
21.04.2024 13:52 21,6 °C 7,9 °C 51 % 57 % 1022,3 hPa 0,0 l/m² 7,5 km/h (2 Bft) O-NO 68 ° 2 min 330 W/m² -0,1 °C 7,0 °C 14,5 km/h (3 Bft)
21.04.2024 13:53 21,6 °C 8,0 °C 51 % 58 % 1022,2 hPa 0,0 l/m² 8,1 km/h (2 Bft) NO 36 ° 1 min 320 W/m² 0,3 °C 6,7 °C 16,1 km/h (3 Bft)
21.04.2024 13:54 21,6 °C 8,1 °C 51 % 58 % 1022,2 hPa 0,0 l/m² 8,9 km/h (2 Bft) O 84 ° 1 min 316 W/m² 0,3 °C 6,2 °C 16,1 km/h (3 Bft)
21.04.2024 13:56 21,6 °C 7,9 °C 51 % 57 % 1022,2 hPa 0,0 l/m² 12,2 km/h (2 Bft) O-NO 67 ° 2 min 339 W/m² -0,1 °C 4,0 °C 20,9 km/h (4 Bft)
21.04.2024 13:58 21,6 °C 7,8 °C 51 % 58 % 1022,3 hPa 0,0 l/m² 14,9 km/h (3 Bft) NO 55 ° 2 min 322 W/m² 0,1 °C 2,5 °C 20,9 km/h (4 Bft)
21.04.2024 14:00 21,6 °C 7,8 °C 51 % 56 % 1022,3 hPa 0,0 l/m² 16,5 km/h (3 Bft) NO 51 ° 2 min 285 W/m² -0,4 °C 1,8 °C 24,1 km/h (4 Bft)
21.04.2024 14:02 21,6 °C 7,8 °C 51 % 57 % 1022,2 hPa 0,0 l/m² 11,2 km/h (2 Bft) NO 41 ° 2 min 295 W/m² -0,2 °C 4,4 °C 17,7 km/h (3 Bft)
21.04.2024 14:04 21,6 °C 8,2 °C 51 % 57 % 1022,3 hPa 0,0 l/m² 10,0 km/h (2 Bft) N-NO 17 ° 2 min 949 W/m² 0,2 °C 5,6 °C 16,1 km/h (3 Bft)
21.04.2024 14:06 21,6 °C 9,2 °C 51 % 61 % 1022,2 hPa 0,0 l/m² 7,9 km/h (2 Bft) O-NO 76 ° 2 min 763 W/m² 2,1 °C 8,1 °C 19,3 km/h (3 Bft)
21.04.2024 14:08 21,6 °C 9,2 °C 51 % 55 % 1022,3 hPa 0,0 l/m² 17,1 km/h (3 Bft) O-NO 70 ° 2 min 322 W/m² 0,6 °C 3,3 °C 24,1 km/h (4 Bft)
21.04.2024 14:10 21,6 °C 8,6 °C 51 % 55 % 1022,4 hPa 0,0 l/m² 17,8 km/h (3 Bft) O-NO 75 ° 2 min 323 W/m² 0,1 °C 2,3 °C 24,1 km/h (4 Bft)
21.04.2024 14:12 21,6 °C 8,2 °C 51 % 54 % 1022,4 hPa 0,0 l/m² 17,1 km/h (3 Bft) NO 55 ° 2 min 309 W/m² -0,5 °C 2,1 °C 22,5 km/h (4 Bft)
21.04.2024 14:14 21,6 °C 8,1 °C 51 % 59 % 1022,4 hPa 0,0 l/m² 9,1 km/h (2 Bft) O 84 ° 2 min 309 W/m² 0,6 °C 6,1 °C 16,1 km/h (3 Bft)
21.04.2024 14:16 21,6 °C 8,9 °C 51 % 57 % 1022,2 hPa 0,0 l/m² 9,2 km/h (2 Bft) NO 38 ° 2 min 756 W/m² 0,9 °C 6,9 °C 17,7 km/h (3 Bft)
21.04.2024 14:18 21,6 °C 9,7 °C 51 % 56 % 1022,2 hPa 0,0 l/m² 8,0 km/h (2 Bft) O-NO 70 ° 2 min 754 W/m² 1,4 °C 8,5 °C 14,5 km/h (3 Bft)
21.04.2024 14:20 21,6 °C 9,7 °C 51 % 54 % 1022,2 hPa 0,0 l/m² 10,7 km/h (2 Bft) O 86 ° 2 min 392 W/m² 0,9 °C 6,9 °C 16,1 km/h (3 Bft)
21.04.2024 14:22 21,6 °C 9,6 °C 51 % 53 % 1022,3 hPa 0,0 l/m² 10,7 km/h (2 Bft) NO 42 ° 2 min 295 W/m² 0,5 °C 6,8 °C 19,3 km/h (3 Bft)
21.04.2024 14:24 21,6 °C 9,2 °C 50 % 53 % 1022,4 hPa 0,0 l/m² 12,0 km/h (2 Bft) NO 50 ° 2 min 269 W/m² 0,1 °C 5,6 °C 17,7 km/h (3 Bft)
21.04.2024 14:26 21,6 °C 8,9 °C 50 % 53 % 1022,3 hPa 0,0 l/m² 10,4 km/h (2 Bft) N-NO 17 ° 2 min 364 W/m² -0,1 °C 6,1 °C 19,3 km/h (3 Bft)
21.04.2024 14:28 21,6 °C 9,5 °C 50 % 57 % 1022,3 hPa 0,0 l/m² 6,4 km/h (2 Bft) N-NO 31 ° 2 min 1032 W/m² 1,4 °C 9,5 °C 11,3 km/h (2 Bft)
21.04.2024 14:30 21,6 °C 9,9 °C 50 % 51 % 1022,2 hPa 0,0 l/m² 7,0 km/h (2 Bft) O-NO 69 ° 2 min 1032 W/m² 0,2 °C 9,5 °C 14,5 km/h (3 Bft)
21.04.2024 14:32 21,6 °C 9,9 °C 50 % 52 % 1022,2 hPa 0,0 l/m² 11,9 km/h (2 Bft) O 81 ° 2 min 742 W/m² 0,5 °C 6,4 °C 20,9 km/h (4 Bft)
21.04.2024 14:34 21,6 °C 10,2 °C 50 % 55 % 1022,2 hPa 0,0 l/m² 8,9 km/h (2 Bft) O-NO 64 ° 2 min 741 W/m² 1,6 °C 8,5 °C 16,1 km/h (3 Bft)
21.04.2024 14:36 21,6 °C 10,6 °C 50 % 52 % 1022,3 hPa 0,0 l/m² 8,6 km/h (2 Bft) N-NO 27 ° 2 min 739 W/m² 1,2 °C 9,1 °C 16,1 km/h (3 Bft)
21.04.2024 14:38 21,6 °C 10,7 °C 49 % 52 % 1022,3 hPa 0,0 l/m² 10,6 km/h (2 Bft) O 94 ° 2 min 737 W/m² 1,3 °C 8,0 °C 16,1 km/h (3 Bft)
21.04.2024 14:40 21,7 °C 10,6 °C 49 % 52 % 1022,3 hPa 0,0 l/m² 12,8 km/h (3 Bft) O-NO 65 ° 2 min 309 W/m² 1,2 °C 6,8 °C 19,3 km/h (3 Bft)
21.04.2024 14:42 21,6 °C 9,9 °C 49 % 51 % 1022,1 hPa 0,0 l/m² 10,2 km/h (2 Bft) O 79 ° 2 min 308 W/m² 0,2 °C 7,4 °C 20,9 km/h (4 Bft)
21.04.2024 14:44 21,6 °C 9,4 °C 49 % 53 % 1022,2 hPa 0,0 l/m² 14,0 km/h (3 Bft) O-NO 72 ° 2 min 352 W/m² 0,3 °C 4,9 °C 24,1 km/h (4 Bft)
21.04.2024 14:46 21,6 °C 9,1 °C 48 % 54 % 1022,3 hPa 0,0 l/m² 17,3 km/h (3 Bft) N-NO 28 ° 2 min 297 W/m² 0,3 °C 3,1 °C 30,6 km/h (5 Bft)
21.04.2024 14:48 21,6 °C 8,8 °C 48 % 52 % 1022,3 hPa 0,0 l/m² 13,2 km/h (3 Bft) NO 46 ° 2 min 345 W/m² -0,5 °C 4,5 °C 22,5 km/h (4 Bft)
21.04.2024 14:50 21,6 °C 8,9 °C 48 % 52 % 1022,2 hPa 0,0 l/m² 13,6 km/h (3 Bft) O-NO 74 ° 2 min 345 W/m² -0,4 °C 4,4 °C 20,9 km/h (4 Bft)
21.04.2024 14:52 21,6 °C 9,3 °C 48 % 53 % 1022,2 hPa 0,0 l/m² 14,6 km/h (3 Bft) O-NO 59 ° 2 min 392 W/m² 0,2 °C 4,5 °C 20,9 km/h (4 Bft)
21.04.2024 14:54 21,6 °C 9,6 °C 48 % 53 % 1022,1 hPa 0,0 l/m² 12,7 km/h (3 Bft) O-NO 68 ° 2 min 984 W/m² 0,5 °C 5,7 °C 20,9 km/h (4 Bft)
21.04.2024 14:56 21,6 °C 9,4 °C 48 % 53 % 1022,1 hPa 0,0 l/m² 17,5 km/h (3 Bft) NO 54 ° 2 min 357 W/m² 0,3 °C 3,4 °C 25,7 km/h (4 Bft)
21.04.2024 14:58 21,6 °C 9,4 °C 48 % 51 % 1022,2 hPa 0,0 l/m² 13,2 km/h (3 Bft) NO 48 ° 2 min 879 W/m² -0,2 °C 5,2 °C 20,9 km/h (4 Bft)
21.04.2024 15:00 21,6 °C 9,8 °C 48 % 55 % 1022,2 hPa 0,0 l/m² 12,4 km/h (2 Bft) O-NO 57 ° 2 min 858 W/m² 1,2 °C 6,1 °C 20,9 km/h (4 Bft)
21.04.2024 15:02 21,6 °C 10,1 °C 48 % 51 % 1022,2 hPa 0,0 l/m² 12,1 km/h (2 Bft) N 11 ° 2 min 856 W/m² 0,4 °C 6,6 °C 19,3 km/h (3 Bft)
21.04.2024 15:04 21,6 °C 10,0 °C 48 % 52 % 1022,2 hPa 0,0 l/m² 11,9 km/h (2 Bft) NO 42 ° 2 min 858 W/m² 0,6 °C 6,6 °C 22,5 km/h (4 Bft)
21.04.2024 15:06 21,6 °C 10,1 °C 48 % 52 % 1022,2 hPa 0,0 l/m² 10,4 km/h (2 Bft) N 5 ° 2 min 858 W/m² 0,7 °C 7,5 °C 19,3 km/h (3 Bft)
21.04.2024 15:08 21,6 °C 9,9 °C 48 % 52 % 1022,3 hPa 0,0 l/m² 14,2 km/h (3 Bft) N-NO 29 ° 2 min 824 W/m² 0,5 °C 5,4 °C 22,5 km/h (4 Bft)
21.04.2024 15:10 21,6 °C 10,1 °C 48 % 50 % 1022,2 hPa 0,0 l/m² 11,1 km/h (2 Bft) N 355 ° 2 min 816 W/m² 0,2 °C 7,1 °C 19,3 km/h (3 Bft)
21.04.2024 15:12 21,6 °C 10,2 °C 48 % 51 % 1022,2 hPa 0,0 l/m² 15,1 km/h (3 Bft) N-NO 13 ° 2 min 823 W/m² 0,5 °C 5,3 °C 22,5 km/h (4 Bft)
21.04.2024 15:13 21,6 °C 10,3 °C 48 % 53 % 1022,1 hPa 0,0 l/m² 7,6 km/h (2 Bft) O-NO 64 ° 1 min 826 W/m² 1,1 °C 9,4 °C 14,5 km/h (3 Bft)
21.04.2024 15:14 21,6 °C 10,6 °C 48 % 52 % 1022,1 hPa 0,0 l/m² 3,0 km/h (1 Bft) N 5 ° 1 min 835 W/m² 1,2 °C 10,6 °C 6,4 km/h (2 Bft)
21.04.2024 15:16 21,6 °C 10,9 °C 48 % 52 % 1022,1 hPa 0,0 l/m² 6,8 km/h (2 Bft) NO 44 ° 2 min 905 W/m² 1,4 °C 10,6 °C 16,1 km/h (3 Bft)
21.04.2024 15:18 21,6 °C 10,7 °C 48 % 51 % 1022,2 hPa 0,0 l/m² 15,6 km/h (3 Bft) O-NO 69 ° 2 min 689 W/m² 1,0 °C 5,7 °C 22,5 km/h (4 Bft)
21.04.2024 15:20 21,6 °C 10,8 °C 48 % 52 % 1022,1 hPa 0,0 l/m² 14,8 km/h (3 Bft) NO 47 ° 2 min 686 W/m² 1,3 °C 6,2 °C 25,7 km/h (4 Bft)
21.04.2024 15:22 21,7 °C 10,4 °C 48 % 48 % 1022,2 hPa 0,0 l/m² 13,0 km/h (3 Bft) O-NO 73 ° 2 min 683 W/m² -0,1 °C 6,5 °C 22,5 km/h (4 Bft)
21.04.2024 15:24 21,6 °C 10,4 °C 48 % 54 % 1022,1 hPa 0,0 l/m² 9,9 km/h (2 Bft) NO 53 ° 2 min 264 W/m² 1,5 °C 8,1 °C 17,7 km/h (3 Bft)
21.04.2024 15:26 21,7 °C 9,9 °C 49 % 48 % 1022,2 hPa 0,0 l/m² 17,0 km/h (3 Bft) O-NO 61 ° 2 min 295 W/m² -0,6 °C 4,2 °C 27,4 km/h (5 Bft)
21.04.2024 15:28 21,7 °C 9,7 °C 49 % 52 % 1022,2 hPa 0,0 l/m² 10,0 km/h (2 Bft) O-NO 58 ° 2 min 213 W/m² 0,3 °C 7,3 °C 20,9 km/h (4 Bft)
21.04.2024 15:30 21,7 °C 9,5 °C 49 % 49 % 1022,2 hPa 0,0 l/m² 11,0 km/h (2 Bft) N-NO 30 ° 2 min 244 W/m² -0,7 °C 6,5 °C 20,9 km/h (4 Bft)
21.04.2024 15:32 21,7 °C 9,2 °C 49 % 48 % 1022,2 hPa 0,0 l/m² 11,7 km/h (2 Bft) N-NO 33 ° 2 min 171 W/m² -1,2 °C 5,8 °C 20,9 km/h (4 Bft)
21.04.2024 15:34 21,7 °C 9,1 °C 49 % 52 % 1022,2 hPa 0,0 l/m² 6,6 km/h (2 Bft) O-NO 57 ° 2 min 777 W/m² -0,2 °C 9,0 °C 11,3 km/h (2 Bft)
21.04.2024 15:36 21,7 °C 9,6 °C 49 % 50 % 1022,1 hPa 0,0 l/m² 12,8 km/h (3 Bft) O-NO 61 ° 2 min 768 W/m² -0,3 °C 5,7 °C 20,9 km/h (4 Bft)
21.04.2024 15:38 21,7 °C 9,8 °C 49 % 50 % 1022,1 hPa 0,0 l/m² 10,7 km/h (2 Bft) NO 50 ° 2 min 744 W/m² -0,1 °C 7,0 °C 17,7 km/h (3 Bft)
21.04.2024 15:40 21,7 °C 10,2 °C 49 % 51 % 1022,1 hPa 0,0 l/m² 10,4 km/h (2 Bft) N-NW 346 ° 2 min 784 W/m² 0,5 °C 7,6 °C 17,7 km/h (3 Bft)
21.04.2024 15:42 21,7 °C 10,2 °C 49 % 50 % 1022,1 hPa 0,0 l/m² 9,0 km/h (2 Bft) NO 44 ° 2 min 805 W/m² 0,3 °C 8,4 °C 16,1 km/h (3 Bft)
21.04.2024 15:44 21,8 °C 10,4 °C 50 % 53 % 1022,2 hPa 0,0 l/m² 8,4 km/h (2 Bft) NO 55 ° 2 min 858 W/m² 1,2 °C 9,0 °C 14,5 km/h (3 Bft)
21.04.2024 15:46 21,7 °C 11,1 °C 50 % 56 % 1022,1 hPa 0,0 l/m² 6,1 km/h (2 Bft) O-NO 69 ° 2 min 867 W/m² 2,7 °C 11,1 °C 12,9 km/h (3 Bft)
21.04.2024 15:47 21,7 °C 11,2 °C 50 % 51 % 1022,1 hPa 0,0 l/m² 10,5 km/h (2 Bft) O-NO 71 ° 1 min 854 W/m² 1,4 °C 8,7 °C 17,7 km/h (3 Bft)
21.04.2024 15:49 21,8 °C 11,3 °C 50 % 49 % 1022,2 hPa 0,0 l/m² 13,1 km/h (3 Bft) N-NO 29 ° 2 min 826 W/m² 1,0 °C 7,5 °C 25,7 km/h (4 Bft)
21.04.2024 15:51 21,8 °C 11,1 °C 50 % 47 % 1022,1 hPa 0,0 l/m² 13,6 km/h (3 Bft) NO 34 ° 2 min 148 W/m² 0,2 °C 7,1 °C 24,1 km/h (4 Bft)
21.04.2024 15:53 21,8 °C 10,6 °C 50 % 48 % 1022,2 hPa 0,0 l/m² 10,2 km/h (2 Bft) O-NO 77 ° 2 min 141 W/m² 0,1 °C 8,1 °C 20,9 km/h (4 Bft)
21.04.2024 15:55 21,8 °C 10,1 °C 50 % 51 % 1022,2 hPa 0,0 l/m² 6,4 km/h (2 Bft) NO 38 ° 2 min 148 W/m² 0,4 °C 10,1 °C 20,9 km/h (4 Bft)
21.04.2024 15:57 21,8 °C 9,7 °C 50 % 50 % 1022,2 hPa 0,0 l/m² 8,7 km/h (2 Bft) NO 38 ° 2 min 754 W/m² -0,2 °C 8,1 °C 17,7 km/h (3 Bft)
21.04.2024 15:59 21,8 °C 9,9 °C 50 % 51 % 1022,3 hPa 0,0 l/m² 9,4 km/h (2 Bft) N 360 ° 2 min 735 W/m² 0,2 °C 7,8 °C 19,3 km/h (3 Bft)
21.04.2024 16:01 21,8 °C 10,0 °C 50 % 49 % 1022,2 hPa 0,0 l/m² 14,1 km/h (3 Bft) N-NO 15 ° 2 min 752 W/m² -0,2 °C 5,5 °C 24,1 km/h (4 Bft)
21.04.2024 16:03 21,8 °C 10,4 °C 50 % 49 % 1022,2 hPa 0,0 l/m² 8,6 km/h (2 Bft) O-NO 74 ° 2 min 724 W/m² 0,2 °C 8,9 °C 14,5 km/h (3 Bft)
21.04.2024 16:05 21,8 °C 10,7 °C 49 % 47 % 1022,1 hPa 0,0 l/m² 9,4 km/h (2 Bft) O-NO 72 ° 2 min 724 W/m² -0,1 °C 8,7 °C 16,1 km/h (3 Bft)
21.04.2024 16:07 21,8 °C 10,9 °C 49 % 48 % 1022,1 hPa 0,0 l/m² 10,5 km/h (2 Bft) N-NO 27 ° 2 min 691 W/m² 0,3 °C 8,3 °C 17,7 km/h (3 Bft)
21.04.2024 16:09 21,8 °C 11,0 °C 49 % 48 % 1022,1 hPa 0,0 l/m² 6,5 km/h (2 Bft) NO 56 ° 2 min 589 W/m² 0,4 °C 11,0 °C 16,1 km/h (3 Bft)
21.04.2024 16:11 21,8 °C 10,9 °C 49 % 48 % 1022,2 hPa 0,0 l/m² 10,5 km/h (2 Bft) O 90 ° 2 min 742 W/m² 0,3 °C 8,3 °C 22,5 km/h (4 Bft)
21.04.2024 16:13 21,8 °C 10,6 °C 49 % 50 % 1022,1 hPa 0,0 l/m² 19,8 km/h (3 Bft) O-NO 78 ° 2 min 722 W/m² 0,6 °C 4,1 °C 25,7 km/h (4 Bft)
21.04.2024 16:15 21,8 °C 10,4 °C 49 % 51 % 1022,1 hPa 0,0 l/m² 14,3 km/h (3 Bft) O 83 ° 2 min 176 W/m² 0,7 °C 5,9 °C 24,1 km/h (4 Bft)
21.04.2024 16:17 21,8 °C 9,9 °C 50 % 50 % 1022,1 hPa 0,0 l/m² 17,3 km/h (3 Bft) O 88 ° 2 min 162 W/m² -0,0 °C 4,1 °C 20,9 km/h (4 Bft)
21.04.2024 16:19 21,8 °C 9,4 °C 50 % 51 % 1022,0 hPa 0,0 l/m² 15,8 km/h (3 Bft) O-NO 76 ° 2 min 146 W/m² -0,2 °C 4,1 °C 20,9 km/h (4 Bft)
21.04.2024 16:21 21,8 °C 9,3 °C 50 % 50 % 1022,1 hPa 0,0 l/m² 5,3 km/h (1 Bft) N 5 ° 2 min 144 W/m² -0,6 °C 9,3 °C 8,0 km/h (2 Bft)
21.04.2024 16:22 21,8 °C 9,3 °C 50 % 50 % 1022,1 hPa 0,0 l/m² 10,3 km/h (2 Bft) N 360 ° 1 min 148 W/m² -0,6 °C 6,6 °C 16,1 km/h (3 Bft)
21.04.2024 16:23 21,8 °C 9,3 °C 50 % 49 % 1022,2 hPa 0,0 l/m² 10,1 km/h (2 Bft) N-NO 20 ° 1 min 155 W/m² -0,9 °C 6,8 °C 16,1 km/h (3 Bft)
21.04.2024 16:24 21,8 °C 9,3 °C 50 % 50 % 1022,2 hPa 0,0 l/m² 10,3 km/h (2 Bft) NO 36 ° 1 min 163 W/m² -0,6 °C 6,6 °C 24,1 km/h (4 Bft)
21.04.2024 16:26 21,8 °C 9,2 °C 50 % 50 % 1022,2 hPa 0,0 l/m² 13,4 km/h (3 Bft) NO 38 ° 2 min 179 W/m² -0,7 °C 4,9 °C 19,3 km/h (3 Bft)
21.04.2024 16:28 21,8 °C 9,1 °C 50 % 49 % 1022,1 hPa 0,0 l/m² 11,3 km/h (2 Bft) NO 43 ° 2 min 186 W/m² -1,0 °C 5,9 °C 20,9 km/h (4 Bft)
21.04.2024 16:30 21,8 °C 9,1 °C 50 % 48 % 1022,2 hPa 0,0 l/m² 7,2 km/h (2 Bft) NO 44 ° 2 min 206 W/m² -1,3 °C 8,5 °C 16,1 km/h (3 Bft)
21.04.2024 16:32 21,8 °C 9,2 °C 51 % 52 % 1022,2 hPa 0,0 l/m² 3,6 km/h (1 Bft) N-NW 348 ° 2 min 229 W/m² -0,1 °C 9,2 °C 8,0 km/h (2 Bft)
21.04.2024 16:34 21,8 °C 9,3 °C 51 % 51 % 1022,2 hPa 0,0 l/m² 10,8 km/h (2 Bft) N 5 ° 2 min 316 W/m² -0,3 °C 6,4 °C 20,9 km/h (4 Bft)
21.04.2024 16:36 21,8 °C 9,2 °C 51 % 50 % 1022,3 hPa 0,0 l/m² 10,8 km/h (2 Bft) N-NO 26 ° 2 min 199 W/m² -0,7 °C 6,2 °C 24,1 km/h (4 Bft)
21.04.2024 16:38 21,8 °C 9,2 °C 51 % 50 % 1022,2 hPa 0,0 l/m² 14,3 km/h (3 Bft) N 360 ° 2 min 211 W/m² -0,7 °C 4,5 °C 29,0 km/h (5 Bft)
21.04.2024 16:40 21,8 °C 9,1 °C 51 % 50 % 1022,3 hPa 0,0 l/m² 10,2 km/h (2 Bft) N 360 ° 2 min 239 W/m² -0,8 °C 6,5 °C 19,3 km/h (3 Bft)
21.04.2024 16:42 21,8 °C 9,1 °C 51 % 50 % 1022,4 hPa 0,0 l/m² 11,5 km/h (2 Bft) N 5 ° 2 min 274 W/m² -0,8 °C 5,7 °C 22,5 km/h (4 Bft)
21.04.2024 16:44 21,8 °C 9,1 °C 51 % 51 % 1022,3 hPa 0,0 l/m² 11,3 km/h (2 Bft) NO 52 ° 2 min 311 W/m² -0,5 °C 5,9 °C 19,3 km/h (3 Bft)
21.04.2024 16:46 21,8 °C 9,2 °C 51 % 51 % 1022,3 hPa 0,0 l/m² 10,5 km/h (2 Bft) N-NW 348 ° 2 min 345 W/m² -0,4 °C 6,4 °C 24,1 km/h (4 Bft)
21.04.2024 16:48 21,8 °C 9,6 °C 51 % 51 % 1022,2 hPa 0,0 l/m² 8,9 km/h (2 Bft) N-NO 22 ° 2 min 693 W/m² -0,0 °C 7,8 °C 17,7 km/h (3 Bft)
21.04.2024 16:50 21,8 °C 9,9 °C 52 % 49 % 1022,3 hPa 0,0 l/m² 11,8 km/h (2 Bft) NO 46 ° 2 min 517 W/m² -0,3 °C 6,5 °C 22,5 km/h (4 Bft)
21.04.2024 16:52 21,8 °C 9,9 °C 51 % 48 % 1022,3 hPa 0,0 l/m² 11,3 km/h (2 Bft) NO 49 ° 2 min 376 W/m² -0,6 °C 6,8 °C 20,9 km/h (4 Bft)
21.04.2024 16:54 21,8 °C 9,8 °C 52 % 47 % 1022,3 hPa 0,0 l/m² 12,8 km/h (3 Bft) N-NO 22 ° 2 min 244 W/m² -1,0 °C 5,9 °C 22,5 km/h (4 Bft)
21.04.2024 16:56 21,8 °C 9,6 °C 52 % 47 % 1022,3 hPa 0,0 l/m² 7,9 km/h (2 Bft) O 90 ° 2 min 202 W/m² -1,1 °C 8,5 °C 17,7 km/h (3 Bft)
21.04.2024 16:58 21,8 °C 9,4 °C 52 % 49 % 1022,4 hPa 0,0 l/m² 7,7 km/h (2 Bft) N-NO 32 ° 2 min 199 W/m² -0,8 °C 8,4 °C 16,1 km/h (3 Bft)
21.04.2024 17:00 21,8 °C 9,2 °C 52 % 50 % 1022,3 hPa 0,0 l/m² 9,8 km/h (2 Bft) NO 34 ° 2 min 195 W/m² -0,7 °C 6,8 °C 17,7 km/h (3 Bft)
21.04.2024 17:02 21,8 °C 9,2 °C 51 % 50 % 1022,3 hPa 0,0 l/m² 9,8 km/h (2 Bft) N-NO 28 ° 2 min 237 W/m² -0,7 °C 6,8 °C 17,7 km/h (3 Bft)
21.04.2024 17:04 21,8 °C 9,1 °C 51 % 51 % 1022,3 hPa 0,0 l/m² 9,0 km/h (2 Bft) N-NO 22 ° 2 min 295 W/m² -0,5 °C 7,2 °C 17,7 km/h (3 Bft)
21.04.2024 17:06 21,8 °C 9,4 °C 51 % 49 % 1022,3 hPa 0,0 l/m² 10,6 km/h (2 Bft) N-NO 26 ° 2 min 295 W/m² -0,8 °C 6,6 °C 22,5 km/h (4 Bft)
21.04.2024 17:08 21,8 °C 9,5 °C 51 % 49 % 1022,2 hPa 0,0 l/m² 7,0 km/h (2 Bft) O-NO 61 ° 2 min 206 W/m² -0,7 °C 9,1 °C 14,5 km/h (3 Bft)
21.04.2024 17:10 21,7 °C 9,4 °C 51 % 50 % 1022,3 hPa 0,0 l/m² 12,6 km/h (3 Bft) NO 43 ° 2 min 171 W/m² -0,5 °C 5,5 °C 22,5 km/h (4 Bft)
21.04.2024 17:12 21,7 °C 9,3 °C 51 % 49 % 1022,4 hPa 0,0 l/m² 13,2 km/h (3 Bft) N-NO 25 ° 2 min 158 W/m² -0,9 °C 5,1 °C 24,1 km/h (4 Bft)
21.04.2024 17:14 21,7 °C 9,2 °C 50 % 50 % 1022,4 hPa 0,0 l/m² 8,3 km/h (2 Bft) N-NO 22 ° 2 min 162 W/m² -0,7 °C 7,8 °C 20,9 km/h (4 Bft)
21.04.2024 17:16 21,7 °C 9,1 °C 50 % 49 % 1022,3 hPa 0,0 l/m² 11,3 km/h (2 Bft) N-NO 32 ° 2 min 171 W/m² -1,0 °C 5,9 °C 22,5 km/h (4 Bft)
21.04.2024 17:18 21,7 °C 9,0 °C 51 % 51 % 1022,4 hPa 0,0 l/m² 10,8 km/h (2 Bft) NO 44 ° 2 min 178 W/m² -0,6 °C 6,0 °C 17,7 km/h (3 Bft)
21.04.2024 17:20 21,7 °C 8,9 °C 51 % 53 % 1022,4 hPa 0,0 l/m² 9,3 km/h (2 Bft) NO 42 ° 2 min 192 W/m² -0,1 °C 6,8 °C 17,7 km/h (3 Bft)
21.04.2024 17:22 21,7 °C 9,0 °C 51 % 51 % 1022,4 hPa 0,0 l/m² 8,9 km/h (2 Bft) N-NO 14 ° 2 min 202 W/m² -0,6 °C 7,2 °C 19,3 km/h (3 Bft)
21.04.2024 17:24 21,7 °C 8,9 °C 51 % 50 % 1022,4 hPa 0,0 l/m² 11,0 km/h (2 Bft) O 82 ° 2 min 209 W/m² -0,9 °C 5,8 °C 20,9 km/h (4 Bft)
21.04.2024 17:26 21,7 °C 8,9 °C 51 % 50 % 1022,3 hPa 0,0 l/m² 10,2 km/h (2 Bft) N-NO 18 ° 2 min 221 W/m² -0,9 °C 6,3 °C 17,7 km/h (3 Bft)
21.04.2024 17:28 21,7 °C 8,9 °C 51 % 51 % 1022,4 hPa 0,0 l/m² 8,2 km/h (2 Bft) N-NO 32 ° 2 min 227 W/m² -0,7 °C 7,6 °C 16,1 km/h (3 Bft)
21.04.2024 17:30 21,7 °C 8,9 °C 51 % 50 % 1022,4 hPa 0,0 l/m² 10,2 km/h (2 Bft) NO 34 ° 2 min 251 W/m² -0,9 °C 6,3 °C 16,1 km/h (3 Bft)
21.04.2024 17:32 21,7 °C 9,1 °C 51 % 51 % 1022,4 hPa 0,0 l/m² 13,6 km/h (3 Bft) O-SO 108 ° 2 min 251 W/m² -0,5 °C 4,7 °C 19,3 km/h (3 Bft)
21.04.2024 17:34 21,7 °C 9,2 °C 51 % 50 % 1022,3 hPa 0,0 l/m² 13,4 km/h (3 Bft) O 82 ° 2 min 339 W/m² -0,7 °C 4,9 °C 19,3 km/h (3 Bft)
21.04.2024 17:36 21,7 °C 9,4 °C 50 % 51 % 1022,3 hPa 0,0 l/m² 11,8 km/h (2 Bft) NO 49 ° 2 min 555 W/m² -0,2 °C 5,9 °C 24,1 km/h (4 Bft)
21.04.2024 17:38 21,7 °C 9,7 °C 50 % 49 % 1022,4 hPa 0,0 l/m² 5,5 km/h (2 Bft) O-NO 60 ° 2 min 387 W/m² -0,5 °C 9,7 °C 12,9 km/h (3 Bft)
21.04.2024 17:40 21,7 °C 9,7 °C 49 % 45 % 1022,4 hPa 0,0 l/m² 9,3 km/h (2 Bft) N-NO 19 ° 2 min 306 W/m² -1,6 °C 7,7 °C 14,5 km/h (3 Bft)
21.04.2024 17:42 21,7 °C 9,7 °C 50 % 47 % 1022,3 hPa 0,0 l/m² 11,2 km/h (2 Bft) NO 37 ° 2 min 520 W/m² -1,1 °C 6,6 °C 17,7 km/h (3 Bft)
21.04.2024 17:44 21,6 °C 9,8 °C 49 % 48 % 1022,4 hPa 0,0 l/m² 6,4 km/h (2 Bft) O-NO 71 ° 2 min 385 W/m² -0,7 °C 9,8 °C 14,5 km/h (3 Bft)
21.04.2024 17:46 21,6 °C 9,7 °C 49 % 47 % 1022,3 hPa 0,0 l/m² 8,6 km/h (2 Bft) O-NO 59 ° 2 min 185 W/m² -1,1 °C 8,1 °C 16,1 km/h (3 Bft)
21.04.2024 17:48 21,7 °C 9,7 °C 50 % 49 % 1022,3 hPa 0,0 l/m² 11,3 km/h (2 Bft) NO 42 ° 2 min 153 W/m² -0,5 °C 6,5 °C 22,5 km/h (4 Bft)
21.04.2024 17:50 21,6 °C 9,4 °C 50 % 48 % 1022,4 hPa 0,0 l/m² 8,4 km/h (2 Bft) N-NO 17 ° 2 min 137 W/m² -1,0 °C 7,9 °C 17,7 km/h (3 Bft)
21.04.2024 17:52 21,7 °C 9,2 °C 50 % 49 % 1022,3 hPa 0,0 l/m² 13,6 km/h (3 Bft) N-NO 30 ° 2 min 123 W/m² -0,9 °C 4,8 °C 24,1 km/h (4 Bft)
21.04.2024 17:54 21,6 °C 9,0 °C 50 % 49 % 1022,4 hPa 0,0 l/m² 11,4 km/h (2 Bft) N-NO 17 ° 2 min 114 W/m² -1,1 °C 5,7 °C 17,7 km/h (3 Bft)
21.04.2024 17:56 21,6 °C 8,8 °C 50 % 49 % 1022,4 hPa 0,0 l/m² 8,6 km/h (2 Bft) N-NO 17 ° 2 min 120 W/m² -1,3 °C 7,2 °C 20,9 km/h (4 Bft)
21.04.2024 17:58 21,6 °C 8,7 °C 50 % 48 % 1022,5 hPa 0,0 l/m² 11,2 km/h (2 Bft) NO 46 ° 2 min 132 W/m² -1,7 °C 5,5 °C 20,9 km/h (4 Bft)
21.04.2024 18:00 21,6 °C 8,7 °C 50 % 49 % 1022,4 hPa 0,0 l/m² 9,9 km/h (2 Bft) N-NO 25 ° 2 min 158 W/m² -1,4 °C 6,2 °C 22,5 km/h (4 Bft)
21.04.2024 18:02 21,6 °C 8,7 °C 50 % 49 % 1022,4 hPa 0,0 l/m² 9,0 km/h (2 Bft) N 350 ° 2 min 185 W/m² -1,4 °C 6,8 °C 19,3 km/h (3 Bft)
21.04.2024 18:04 21,6 °C 8,8 °C 50 % 50 % 1022,4 hPa 0,0 l/m² 9,6 km/h (2 Bft) NO 42 ° 2 min 155 W/m² -1,0 °C 6,5 °C 14,5 km/h (3 Bft)
21.04.2024 18:06 21,6 °C 8,7 °C 51 % 50 % 1022,4 hPa 0,0 l/m² 9,3 km/h (2 Bft) N-NO 26 ° 2 min 139 W/m² -1,1 °C 6,6 °C 16,1 km/h (3 Bft)
21.04.2024 18:08 21,6 °C 8,8 °C 51 % 51 % 1022,4 hPa 0,0 l/m² 5,9 km/h (2 Bft) N-NO 29 ° 2 min 128 W/m² -0,8 °C 8,8 °C 12,9 km/h (3 Bft)
21.04.2024 18:10 21,6 °C 8,8 °C 51 % 51 % 1022,5 hPa 0,0 l/m² 8,8 km/h (2 Bft) N-NO 19 ° 2 min 121 W/m² -0,8 °C 7,0 °C 17,7 km/h (3 Bft)
21.04.2024 18:12 21,6 °C 8,7 °C 51 % 50 % 1022,5 hPa 0,0 l/m² 13,9 km/h (3 Bft) NO 36 ° 2 min 118 W/m² -1,1 °C 4,1 °C 19,3 km/h (3 Bft)
21.04.2024 18:14 21,6 °C 8,6 °C 51 % 50 % 1022,5 hPa 0,0 l/m² 11,1 km/h (2 Bft) N-NO 33 ° 2 min 116 W/m² -1,2 °C 5,4 °C 17,7 km/h (3 Bft)
21.04.2024 18:16 21,6 °C 8,6 °C 51 % 51 % 1022,5 hPa 0,0 l/m² 12,2 km/h (2 Bft) O-NO 67 ° 2 min 113 W/m² -1,0 °C 4,8 °C 19,3 km/h (3 Bft)
21.04.2024 18:18 21,6 °C 8,6 °C 52 % 53 % 1022,6 hPa 0,0 l/m² 7,5 km/h (2 Bft) N-NO 33 ° 2 min 113 W/m² -0,4 °C 7,8 °C 16,1 km/h (3 Bft)
21.04.2024 18:20 21,6 °C 8,5 °C 52 % 52 % 1022,4 hPa 0,0 l/m² 9,1 km/h (2 Bft) NO 35 ° 2 min 114 W/m² -0,8 °C 6,5 °C 17,7 km/h (3 Bft)
21.04.2024 18:22 21,6 °C 8,4 °C 52 % 51 % 1022,5 hPa 0,0 l/m² 9,7 km/h (2 Bft) NO 44 ° 2 min 113 W/m² -1,1 °C 6,0 °C 16,1 km/h (3 Bft)
21.04.2024 18:24 21,6 °C 8,4 °C 52 % 51 % 1022,6 hPa 0,0 l/m² 8,9 km/h (2 Bft) N-NO 23 ° 2 min 105 W/m² -1,1 °C 6,5 °C 16,1 km/h (3 Bft)
21.04.2024 18:26 21,6 °C 8,4 °C 52 % 52 % 1022,6 hPa 0,0 l/m² 8,7 km/h (2 Bft) NO 54 ° 2 min 100 W/m² -0,9 °C 6,7 °C 20,9 km/h (4 Bft)
21.04.2024 18:28 21,6 °C 8,3 °C 52 % 51 % 1022,5 hPa 0,0 l/m² 7,1 km/h (2 Bft) NO 44 ° 2 min 100 W/m² -1,2 °C 7,8 °C 16,1 km/h (3 Bft)
21.04.2024 18:30 21,6 °C 8,3 °C 52 % 52 % 1022,6 hPa 0,0 l/m² 4,3 km/h (1 Bft) O 84 ° 2 min 109 W/m² -1,0 °C 8,3 °C 8,0 km/h (2 Bft)
21.04.2024 18:32 21,6 °C 8,2 °C 52 % 52 % 1022,6 hPa 0,0 l/m² 7,4 km/h (2 Bft) N 11 ° 2 min 120 W/m² -1,1 °C 7,4 °C 12,9 km/h (3 Bft)
21.04.2024 18:34 21,6 °C 8,3 °C 52 % 53 % 1022,6 hPa 0,0 l/m² 4,0 km/h (1 Bft) N-NO 19 ° 2 min 146 W/m² -0,7 °C 8,3 °C 6,4 km/h (2 Bft)
21.04.2024 18:36 21,6 °C 8,3 °C 52 % 52 % 1022,6 hPa 0,0 l/m² 5,9 km/h (2 Bft) N-NO 15 ° 2 min 186 W/m² -1,0 °C 8,3 °C 9,7 km/h (2 Bft)
21.04.2024 18:38 21,6 °C 8,4 °C 52 % 52 % 1022,7 hPa 0,0 l/m² 5,6 km/h (2 Bft) N-NO 28 ° 2 min 125 W/m² -0,9 °C 8,4 °C 16,1 km/h (3 Bft)
21.04.2024 18:40 21,6 °C 8,4 °C 52 % 50 % 1022,6 hPa 0,0 l/m² 5,4 km/h (2 Bft) N 5 ° 2 min 105 W/m² -1,4 °C 8,4 °C 16,1 km/h (3 Bft)
21.04.2024 18:42 21,6 °C 8,4 °C 52 % 51 % 1022,6 hPa 0,0 l/m² 7,3 km/h (2 Bft) N-NO 15 ° 2 min 93 W/m² -1,1 °C 7,7 °C 16,1 km/h (3 Bft)
21.04.2024 18:44 21,6 °C 8,3 °C 52 % 50 % 1022,7 hPa 0,0 l/m² 6,0 km/h (2 Bft) NO 43 ° 2 min 83 W/m² -1,5 °C 8,3 °C 12,9 km/h (3 Bft)
21.04.2024 18:46 21,6 °C 8,3 °C 52 % 50 % 1022,6 hPa 0,0 l/m² 7,2 km/h (2 Bft) N-NO 18 ° 2 min 72 W/m² -1,5 °C 7,7 °C 16,1 km/h (3 Bft)
21.04.2024 18:47 21,6 °C 8,2 °C 52 % 51 % 1022,6 hPa 0,0 l/m² 7,8 km/h (2 Bft) N-NW 346 ° 1 min 102 W/m² -1,3 °C 7,1 °C 12,9 km/h (3 Bft)
21.04.2024 18:49 21,6 °C 8,1 °C 52 % 51 % 1022,7 hPa 0,0 l/m² 7,2 km/h (2 Bft) N-NW 338 ° 2 min 179 W/m² -1,4 °C 7,5 °C 14,5 km/h (3 Bft)
21.04.2024 18:51 21,6 °C 8,2 °C 52 % 53 % 1022,7 hPa 0,0 l/m² 5,5 km/h (2 Bft) N-NO 23 ° 2 min 176 W/m² -0,8 °C 8,2 °C 8,0 km/h (2 Bft)
21.04.2024 18:53 21,6 °C 8,3 °C 52 % 54 % 1022,7 hPa 0,0 l/m² 5,6 km/h (2 Bft) N-NO 31 ° 2 min 120 W/m² -0,5 °C 8,3 °C 9,7 km/h (2 Bft)
21.04.2024 18:55 21,6 °C 8,3 °C 52 % 52 % 1022,7 hPa 0,0 l/m² 9,0 km/h (2 Bft) N-NO 26 ° 2 min 137 W/m² -1,0 °C 6,4 °C 17,7 km/h (3 Bft)
21.04.2024 18:57 21,6 °C 8,3 °C 52 % 53 % 1022,7 hPa 0,0 l/m² 7,1 km/h (2 Bft) N-NW 342 ° 2 min 190 W/m² -0,7 °C 7,8 °C 11,3 km/h (2 Bft)
21.04.2024 18:59 21,6 °C 8,4 °C 52 % 51 % 1022,7 hPa 0,0 l/m² 8,0 km/h (2 Bft) N 355 ° 2 min 148 W/m² -1,1 °C 7,2 °C 16,1 km/h (3 Bft)
21.04.2024 19:01 21,6 °C 8,4 °C 52 % 52 % 1022,7 hPa 0,0 l/m² 7,2 km/h (2 Bft) N-NO 15 ° 2 min 132 W/m² -0,9 °C 7,8 °C 12,9 km/h (3 Bft)
21.04.2024 19:03 21,6 °C 8,4 °C 52 % 52 % 1022,8 hPa 0,0 l/m² 5,3 km/h (1 Bft) N 5 ° 2 min 113 W/m² -0,9 °C 8,4 °C 12,9 km/h (3 Bft)
21.04.2024 19:05 21,6 °C 8,4 °C 52 % 53 % 1022,8 hPa 0,0 l/m² 5,2 km/h (1 Bft) N 360 ° 2 min 100 W/m² -0,6 °C 8,4 °C 14,5 km/h (3 Bft)
21.04.2024 19:07 21,6 °C 8,4 °C 52 % 54 % 1022,8 hPa 0,0 l/m² 7,3 km/h (2 Bft) N 355 ° 2 min 93 W/m² -0,4 °C 7,7 °C 16,1 km/h (3 Bft)
21.04.2024 19:09 21,6 °C 8,3 °C 53 % 54 % 1022,7 hPa 0,0 l/m² 7,6 km/h (2 Bft) N 5 ° 2 min 86 W/m² -0,5 °C 7,4 °C 12,9 km/h (3 Bft)
21.04.2024 19:11 21,6 °C 8,3 °C 53 % 54 % 1022,8 hPa 0,0 l/m² 6,8 km/h (2 Bft) N 5 ° 2 min 127 W/m² -0,5 °C 8,0 °C 12,9 km/h (3 Bft)
21.04.2024 19:13 21,6 °C 8,3 °C 53 % 53 % 1022,8 hPa 0,0 l/m² 6,3 km/h (2 Bft) NW 311 ° 2 min 98 W/m² -0,7 °C 8,3 °C 14,5 km/h (3 Bft)
21.04.2024 19:15 21,7 °C 8,3 °C 53 % 53 % 1022,8 hPa 0,0 l/m² 10,4 km/h (2 Bft) N 355 ° 2 min 77 W/m² -0,7 °C 5,5 °C 17,7 km/h (3 Bft)
21.04.2024 19:17 21,7 °C 8,2 °C 53 % 53 % 1022,8 hPa 0,0 l/m² 7,5 km/h (2 Bft) N 355 ° 2 min 70 W/m² -0,8 °C 7,3 °C 14,5 km/h (3 Bft)
21.04.2024 19:19 21,7 °C 8,2 °C 53 % 53 % 1022,9 hPa 0,0 l/m² 6,7 km/h (2 Bft) N-NO 15 ° 2 min 65 W/m² -0,8 °C 8,0 °C 12,9 km/h (3 Bft)
21.04.2024 19:21 21,7 °C 8,1 °C 53 % 52 % 1022,9 hPa 0,0 l/m² 7,1 km/h (2 Bft) N 360 ° 2 min 63 W/m² -1,2 °C 7,6 °C 12,9 km/h (3 Bft)
21.04.2024 19:23 21,7 °C 8,0 °C 53 % 52 % 1022,9 hPa 0,0 l/m² 4,4 km/h (1 Bft) N 10 ° 2 min 67 W/m² -1,2 °C 8,0 °C 9,7 km/h (2 Bft)
21.04.2024 19:25 21,7 °C 8,0 °C 53 % 52 % 1022,9 hPa 0,0 l/m² 5,0 km/h (1 Bft) N 355 ° 2 min 69 W/m² -1,2 °C 8,0 °C 8,0 km/h (2 Bft)
21.04.2024 19:27 21,7 °C 7,9 °C 53 % 53 % 1022,9 hPa 0,0 l/m² 7,2 km/h (2 Bft) N 11 ° 2 min 90 W/m² -1,1 °C 7,3 °C 12,9 km/h (3 Bft)
21.04.2024 19:29 21,7 °C 8,0 °C 53 % 53 % 1022,9 hPa 0,0 l/m² 4,6 km/h (1 Bft) N 355 ° 2 min 84 W/m² -1,0 °C 8,0 °C 8,0 km/h (2 Bft)
21.04.2024 19:31 21,7 °C 8,1 °C 53 % 56 % 1023,0 hPa 0,0 l/m² 3,3 km/h (1 Bft) N-NW 346 ° 2 min 70 W/m² -0,1 °C 8,1 °C 4,8 km/h (1 Bft)
21.04.2024 19:33 21,7 °C 8,1 °C 53 % 56 % 1023,0 hPa 0,0 l/m² 3,6 km/h (1 Bft) N-NW 330 ° 2 min 63 W/m² -0,1 °C 8,1 °C 4,8 km/h (1 Bft)
21.04.2024 19:35 21,7 °C 8,0 °C 53 % 57 % 1022,9 hPa 0,0 l/m² 3,9 km/h (1 Bft) N-NO 12 ° 2 min 67 W/m² 0,0 °C 8,0 °C 6,4 km/h (2 Bft)
21.04.2024 19:37 21,7 °C 8,0 °C 53 % 56 % 1022,9 hPa 0,0 l/m² 4,8 km/h (1 Bft) N-NW 339 ° 2 min 69 W/m² -0,2 °C 8,0 °C 6,4 km/h (2 Bft)
21.04.2024 19:39 21,7 °C 8,0 °C 53 % 56 % 1023,0 hPa 0,0 l/m² 3,7 km/h (1 Bft) N-NW 346 ° 2 min 56 W/m² -0,2 °C 8,0 °C 6,4 km/h (2 Bft)
21.04.2024 19:41 21,7 °C 8,0 °C 53 % 56 % 1022,9 hPa 0,0 l/m² 3,9 km/h (1 Bft) N 355 ° 2 min 53 W/m² -0,2 °C 8,0 °C 6,4 km/h (2 Bft)
21.04.2024 19:43 21,7 °C 7,9 °C 53 % 56 % 1022,9 hPa 0,0 l/m² 4,3 km/h (1 Bft) N-NO 20 ° 0 min 49 W/m² -0,3 °C 7,9 °C 8,0 km/h (2 Bft)
21.04.2024 19:45 21,7 °C 7,9 °C 53 % 57 % 1023,0 hPa 0,0 l/m² 5,6 km/h (2 Bft) N-NO 15 ° 0 min 44 W/m² -0,1 °C 7,9 °C 11,3 km/h (2 Bft)
21.04.2024 19:47 21,7 °C 7,8 °C 53 % 57 % 1023,1 hPa 0,0 l/m² 6,1 km/h (2 Bft) N 355 ° 0 min 39 W/m² -0,2 °C 7,8 °C 11,3 km/h (2 Bft)
21.04.2024 19:49 21,7 °C 7,8 °C 53 % 58 % 1023,0 hPa 0,0 l/m² 4,1 km/h (1 Bft) N-NW 344 ° 0 min 35 W/m² 0,1 °C 7,8 °C 6,4 km/h (2 Bft)
21.04.2024 19:51 21,7 °C 7,7 °C 53 % 58 % 1023,1 hPa 0,0 l/m² 4,9 km/h (1 Bft) N 355 ° 0 min 32 W/m² -0,0 °C 7,7 °C 6,4 km/h (2 Bft)
21.04.2024 19:53 21,6 °C 7,6 °C 53 % 59 % 1023,1 hPa 0,0 l/m² 5,0 km/h (1 Bft) N 355 ° 0 min 30 W/m² 0,1 °C 7,6 °C 6,4 km/h (2 Bft)
21.04.2024 19:55 21,7 °C 7,5 °C 53 % 60 % 1023,1 hPa 0,0 l/m² 7,0 km/h (2 Bft) N 355 ° 0 min 26 W/m² 0,2 °C 7,0 °C 14,5 km/h (3 Bft)
21.04.2024 19:57 21,6 °C 7,4 °C 53 % 60 % 1023,0 hPa 0,0 l/m² 5,7 km/h (2 Bft) N 349 ° 0 min 21 W/m² 0,2 °C 7,4 °C 9,7 km/h (2 Bft)
21.04.2024 19:59 21,7 °C 7,3 °C 53 % 60 % 1023,1 hPa 0,0 l/m² 4,5 km/h (1 Bft) N-NW 342 ° 0 min 18 W/m² 0,1 °C 7,3 °C 6,4 km/h (2 Bft)
21.04.2024 20:01 21,6 °C 7,2 °C 53 % 60 % 1023,1 hPa 0,0 l/m² 6,0 km/h (2 Bft) N-NW 341 ° 0 min 16 W/m² -0,0 °C 7,2 °C 8,0 km/h (2 Bft)
21.04.2024 20:03 21,6 °C 7,1 °C 53 % 61 % 1023,2 hPa 0,0 l/m² 5,4 km/h (2 Bft) N-NW 338 ° 0 min 14 W/m² 0,1 °C 7,1 °C 6,4 km/h (2 Bft)
21.04.2024 20:05 21,6 °C 7,0 °C 53 % 61 % 1023,1 hPa 0,0 l/m² 5,3 km/h (1 Bft) N-NW 338 ° 0 min 12 W/m² 0,0 °C 7,0 °C 8,0 km/h (2 Bft)
21.04.2024 20:07 21,6 °C 6,8 °C 53 % 63 % 1023,1 hPa 0,0 l/m² 3,3 km/h (1 Bft) N-NW 329 ° 0 min 12 W/m² 0,3 °C 6,8 °C 6,4 km/h (2 Bft)
21.04.2024 20:09 21,7 °C 6,7 °C 53 % 64 % 1023,1 hPa 0,0 l/m² 3,1 km/h (1 Bft) N-NW 332 ° 0 min 11 W/m² 0,4 °C 6,7 °C 6,4 km/h (2 Bft)
21.04.2024 20:11 21,7 °C 6,6 °C 53 % 63 % 1023,0 hPa 0,0 l/m² 3,5 km/h (1 Bft) N-NW 338 ° 0 min 11 W/m² 0,1 °C 6,6 °C 6,4 km/h (2 Bft)
21.04.2024 20:13 21,7 °C 6,6 °C 53 % 64 % 1023,2 hPa 0,0 l/m² 3,4 km/h (1 Bft) N 349 ° 0 min 9 W/m² 0,3 °C 6,6 °C 4,8 km/h (1 Bft)
21.04.2024 20:15 21,7 °C 6,5 °C 53 % 64 % 1023,1 hPa 0,0 l/m² 4,6 km/h (1 Bft) N-NW 339 ° 0 min 7 W/m² 0,2 °C 6,5 °C 6,4 km/h (2 Bft)
21.04.2024 20:17 21,7 °C 6,5 °C 53 % 64 % 1023,2 hPa 0,0 l/m² 6,7 km/h (2 Bft) N-NW 348 ° 0 min 5 W/m² 0,2 °C 6,3 °C 12,9 km/h (3 Bft)
21.04.2024 20:19 21,7 °C 6,5 °C 53 % 62 % 1023,2 hPa 0,0 l/m² 6,5 km/h (2 Bft) N-NO 18 ° 0 min 0 W/m² -0,2 °C 6,4 °C 12,9 km/h (3 Bft)
21.04.2024 20:21 21,7 °C 6,7 °C 54 % 59 % 1023,3 hPa 0,0 l/m² 6,7 km/h (2 Bft) N-NO 16 ° 0 min 0 W/m² -0,7 °C 6,5 °C 12,9 km/h (3 Bft)
21.04.2024 20:23 21,7 °C 6,9 °C 54 % 59 % 1023,3 hPa 0,0 l/m² 8,9 km/h (2 Bft) NO 35 ° 0 min 0 W/m² -0,5 °C 4,9 °C 17,7 km/h (3 Bft)
21.04.2024 20:25 21,7 °C 6,9 °C 54 % 60 % 1023,4 hPa 0,0 l/m² 9,6 km/h (2 Bft) N-NO 23 ° 0 min 0 W/m² -0,3 °C 4,4 °C 19,3 km/h (3 Bft)
21.04.2024 20:27 21,7 °C 7,0 °C 54 % 58 % 1023,3 hPa 0,0 l/m² 12,2 km/h (2 Bft) N-NO 28 ° 0 min 0 W/m² -0,7 °C 2,9 °C 24,1 km/h (4 Bft)
21.04.2024 20:29 21,7 °C 7,1 °C 54 % 59 % 1023,4 hPa 0,0 l/m² 11,2 km/h (2 Bft) NO 55 ° 0 min 0 W/m² -0,4 °C 3,6 °C 22,5 km/h (4 Bft)
21.04.2024 20:31 21,7 °C 7,1 °C 54 % 58 % 1023,4 hPa 0,0 l/m² 7,9 km/h (2 Bft) N-NO 20 ° 0 min 0 W/m² -0,6 °C 5,9 °C 14,5 km/h (3 Bft)
21.04.2024 20:33 21,7 °C 7,1 °C 54 % 58 % 1023,5 hPa 0,0 l/m² 6,8 km/h (2 Bft) NO 42 ° 0 min 0 W/m² -0,6 °C 6,8 °C 22,5 km/h (4 Bft)
21.04.2024 20:35 21,7 °C 7,1 °C 54 % 59 % 1023,5 hPa 0,0 l/m² 14,3 km/h (3 Bft) O-NO 68 ° 0 min 0 W/m² -0,4 °C 2,0 °C 24,1 km/h (4 Bft)
21.04.2024 20:37 21,7 °C 7,1 °C 54 % 59 % 1023,5 hPa 0,0 l/m² 9,0 km/h (2 Bft) O-NO 59 ° 0 min 0 W/m² -0,4 °C 5,1 °C 17,7 km/h (3 Bft)
21.04.2024 20:39 21,7 °C 6,9 °C 54 % 60 % 1023,4 hPa 0,0 l/m² 4,6 km/h (1 Bft) N-NO 30 ° 0 min 0 W/m² -0,3 °C 6,9 °C 8,0 km/h (2 Bft)
21.04.2024 20:41 21,7 °C 6,9 °C 54 % 60 % 1023,4 hPa 0,0 l/m² 4,6 km/h (1 Bft) O-NO 59 ° 0 min 0 W/m² -0,3 °C 6,9 °C 8,0 km/h (2 Bft)
21.04.2024 20:43 21,7 °C 6,9 °C 54 % 61 % 1023,5 hPa 0,0 l/m² 5,2 km/h (1 Bft) O-NO 62 ° 0 min 0 W/m² -0,1 °C 6,9 °C 6,4 km/h (2 Bft)
21.04.2024 20:45 21,7 °C 6,7 °C 54 % 63 % 1023,4 hPa 0,0 l/m² 5,1 km/h (1 Bft) NO 38 ° 0 min 0 W/m² 0,2 °C 6,7 °C 6,4 km/h (2 Bft)
21.04.2024 20:47 21,7 °C 6,6 °C 54 % 64 % 1023,4 hPa 0,0 l/m² 1,3 km/h (1 Bft) O-NO 70 ° 0 min 0 W/m² 0,3 °C 6,6 °C 4,8 km/h (1 Bft)
21.04.2024 20:49 21,7 °C 6,4 °C 54 % 65 % 1023,5 hPa 0,0 l/m² 3,4 km/h (1 Bft) NO 54 ° 0 min 0 W/m² 0,3 °C 6,4 °C 6,4 km/h (2 Bft)
21.04.2024 20:51 21,7 °C 6,3 °C 54 % 65 % 1023,5 hPa 0,0 l/m² 1,4 km/h (1 Bft) NO 54 ° 0 min 0 W/m² 0,2 °C 6,3 °C 4,8 km/h (1 Bft)
21.04.2024 20:53 21,7 °C 6,3 °C 54 % 65 % 1023,5 hPa 0,0 l/m² 2,5 km/h (1 Bft) NO 51 ° 0 min 0 W/m² 0,2 °C 6,3 °C 4,8 km/h (1 Bft)
21.04.2024 20:55 21,7 °C 6,4 °C 54 % 65 % 1023,5 hPa 0,0 l/m² 2,0 km/h (1 Bft) NO 49 ° 0 min 0 W/m² 0,3 °C 6,4 °C 4,8 km/h (1 Bft)
21.04.2024 20:57 21,7 °C 6,4 °C 54 % 65 % 1023,6 hPa 0,0 l/m² 0,7 km/h (0 Bft) NO 49 ° 0 min 0 W/m² 0,3 °C 6,4 °C 3,2 km/h (1 Bft)
21.04.2024 20:59 21,8 °C 6,4 °C 54 % 64 % 1023,6 hPa 0,0 l/m² 1,8 km/h (1 Bft) NO 49 ° 0 min 0 W/m² 0,1 °C 6,4 °C 4,8 km/h (1 Bft)
21.04.2024 21:01 21,7 °C 6,4 °C 54 % 65 % 1023,6 hPa 0,0 l/m² 0,3 km/h (0 Bft) NO 49 ° 0 min 0 W/m² 0,3 °C 6,4 °C 1,6 km/h (1 Bft)
21.04.2024 21:03 21,8 °C 6,4 °C 54 % 65 % 1023,6 hPa 0,0 l/m² 0,3 km/h (0 Bft) NO 49 ° 0 min 0 W/m² 0,3 °C 6,4 °C 3,2 km/h (1 Bft)
21.04.2024 21:05 21,8 °C 6,3 °C 54 % 66 % 1023,6 hPa 0,0 l/m² 0,0 km/h (0 Bft) NO 49 ° 0 min 0 W/m² 0,4 °C 6,3 °C 0,0 km/h (0 Bft)
21.04.2024 21:07 21,8 °C 6,3 °C 54 % 67 % 1023,6 hPa 0,0 l/m² 0,6 km/h (0 Bft) NO 49 ° 0 min 0 W/m² 0,6 °C 6,3 °C 3,2 km/h (1 Bft)
21.04.2024 21:09 21,8 °C 6,3 °C 54 % 67 % 1023,6 hPa 0,0 l/m² 0,9 km/h (0 Bft) NO 49 ° 0 min 0 W/m² 0,6 °C 6,3 °C 3,2 km/h (1 Bft)
21.04.2024 21:11 21,8 °C 6,3 °C 54 % 66 % 1023,7 hPa 0,0 l/m² 2,9 km/h (1 Bft) NO 49 ° 0 min 0 W/m² 0,4 °C 6,3 °C 4,8 km/h (1 Bft)
21.04.2024 21:13 21,8 °C 6,2 °C 54 % 67 % 1023,7 hPa 0,0 l/m² 2,1 km/h (1 Bft) NO 45 ° 0 min 0 W/m² 0,5 °C 6,2 °C 4,8 km/h (1 Bft)
21.04.2024 21:15 21,7 °C 6,2 °C 54 % 67 % 1023,6 hPa 0,0 l/m² 3,8 km/h (1 Bft) N-NO 13 ° 0 min 0 W/m² 0,5 °C 6,2 °C 8,0 km/h (2 Bft)
21.04.2024 21:17 21,8 °C 6,2 °C 54 % 67 % 1023,7 hPa 0,0 l/m² 3,9 km/h (1 Bft) N-NO 15 ° 0 min 0 W/m² 0,5 °C 6,2 °C 4,8 km/h (1 Bft)
21.04.2024 21:19 21,8 °C 6,2 °C 54 % 66 % 1023,7 hPa 0,0 l/m² 5,1 km/h (1 Bft) N-NO 32 ° 0 min 0 W/m² 0,3 °C 6,2 °C 9,7 km/h (2 Bft)
21.04.2024 21:21 21,8 °C 6,2 °C 54 % 66 % 1023,7 hPa 0,0 l/m² 5,7 km/h (2 Bft) N 5 ° 0 min 0 W/m² 0,3 °C 6,2 °C 12,9 km/h (3 Bft)
21.04.2024 21:23 21,8 °C 6,2 °C 54 % 65 % 1023,8 hPa 0,0 l/m² 7,6 km/h (2 Bft) N 5 ° 0 min 0 W/m² 0,1 °C 5,2 °C 11,3 km/h (2 Bft)
21.04.2024 21:25 21,8 °C 6,2 °C 54 % 66 % 1023,8 hPa 0,0 l/m² 7,4 km/h (2 Bft) N-NO 29 ° 0 min 0 W/m² 0,3 °C 5,4 °C 14,5 km/h (3 Bft)
21.04.2024 21:27 21,8 °C 6,2 °C 54 % 66 % 1023,9 hPa 0,0 l/m² 11,2 km/h (2 Bft) N 5 ° 0 min 0 W/m² 0,3 °C 2,6 °C 20,9 km/h (4 Bft)
21.04.2024 21:29 21,8 °C 6,2 °C 54 % 67 % 1023,9 hPa 0,0 l/m² 15,1 km/h (3 Bft) N-NO 32 ° 0 min 0 W/m² 0,5 °C 0,5 °C 22,5 km/h (4 Bft)
21.04.2024 21:31 21,8 °C 6,1 °C 54 % 68 % 1023,9 hPa 0,0 l/m² 11,7 km/h (2 Bft) W-NW 296 ° 0 min 0 W/m² 0,6 °C 2,2 °C 16,1 km/h (3 Bft)
21.04.2024 21:33 21,8 °C 6,1 °C 54 % 69 % 1023,9 hPa 0,0 l/m² 12,2 km/h (2 Bft) N 360 ° 0 min 0 W/m² 0,8 °C 1,9 °C 19,3 km/h (3 Bft)
21.04.2024 21:35 21,8 °C 5,9 °C 54 % 70 % 1023,9 hPa 0,0 l/m² 12,9 km/h (3 Bft) N-NW 340 ° 0 min 0 W/m² 0,9 °C 1,3 °C 22,5 km/h (4 Bft)
21.04.2024 21:37 21,8 °C 5,8 °C 54 % 70 % 1023,9 hPa 0,0 l/m² 20,0 km/h (4 Bft) N-NW 328 ° 0 min 0 W/m² 0,8 °C -2,1 °C 27,4 km/h (5 Bft)
21.04.2024 21:39 21,8 °C 5,8 °C 54 % 71 % 1023,9 hPa 0,0 l/m² 16,5 km/h (3 Bft) N 360 ° 0 min 0 W/m² 1,0 °C -0,7 °C 27,4 km/h (5 Bft)
21.04.2024 21:41 21,8 °C 5,7 °C 54 % 71 % 1023,9 hPa 0,0 l/m² 14,6 km/h (3 Bft) N-NW 348 ° 0 min 0 W/m² 0,9 °C 0,1 °C 20,9 km/h (4 Bft)
21.04.2024 21:43 21,8 °C 5,6 °C 54 % 71 % 1024,0 hPa 0,0 l/m² 14,0 km/h (3 Bft) N 360 ° 0 min 0 W/m² 0,8 °C 0,3 °C 22,5 km/h (4 Bft)
21.04.2024 21:45 21,8 °C 5,6 °C 54 % 72 % 1024,0 hPa 0,0 l/m² 12,2 km/h (2 Bft) N-NW 343 ° 0 min 0 W/m² 1,0 °C 1,3 °C 19,3 km/h (3 Bft)
21.04.2024 21:46 21,8 °C 5,5 °C 54 % 72 % 1024,0 hPa 0,0 l/m² 10,3 km/h (2 Bft) N 355 ° 0 min 0 W/m² 0,9 °C 2,4 °C 14,5 km/h (3 Bft)
21.04.2024 21:48 21,8 °C 5,4 °C 54 % 73 % 1023,9 hPa 0,0 l/m² 11,8 km/h (2 Bft) N 5 ° 0 min 0 W/m² 1,0 °C 1,3 °C 17,7 km/h (3 Bft)
21.04.2024 21:50 21,8 °C 5,4 °C 54 % 73 % 1024,0 hPa 0,0 l/m² 8,9 km/h (2 Bft) N-NO 14 ° 0 min 0 W/m² 1,0 °C 3,3 °C 17,7 km/h (3 Bft)
21.04.2024 21:52 21,8 °C 5,3 °C 54 % 73 % 1024,0 hPa 0,0 l/m² 6,0 km/h (2 Bft) N 355 ° 0 min 0 W/m² 0,9 °C 5,3 °C 9,7 km/h (2 Bft)
21.04.2024 21:54 21,8 °C 5,3 °C 54 % 74 % 1024,0 hPa 0,0 l/m² 8,2 km/h (2 Bft) N 5 ° 0 min 0 W/m² 1,0 °C 3,8 °C 14,5 km/h (3 Bft)
21.04.2024 21:56 21,8 °C 5,2 °C 54 % 74 % 1024,0 hPa 0,0 l/m² 7,8 km/h (2 Bft) N 355 ° 0 min 0 W/m² 1,0 °C 4,0 °C 14,5 km/h (3 Bft)
21.04.2024 21:58 21,8 °C 5,2 °C 54 % 75 % 1023,9 hPa 0,0 l/m² 5,5 km/h (2 Bft) N 355 ° 0 min 0 W/m² 1,1 °C 5,2 °C 9,7 km/h (2 Bft)
21.04.2024 22:00 21,8 °C 5,2 °C 54 % 75 % 1024,0 hPa 0,0 l/m² 4,9 km/h (1 Bft) N-NW 339 ° 0 min 0 W/m² 1,1 °C 5,2 °C 8,0 km/h (2 Bft)
21.04.2024 22:02 21,8 °C 5,1 °C 54 % 75 % 1024,0 hPa 0,0 l/m² 5,9 km/h (2 Bft) N-NW 346 ° 0 min 0 W/m² 1,0 °C 5,1 °C 8,0 km/h (2 Bft)
21.04.2024 22:04 21,8 °C 5,1 °C 53 % 76 % 1024,0 hPa 0,0 l/m² 6,2 km/h (2 Bft) N 355 ° 0 min 0 W/m² 1,2 °C 5,1 °C 9,7 km/h (2 Bft)
21.04.2024 22:06 21,7 °C 5,0 °C 53 % 76 % 1024,0 hPa 0,0 l/m² 5,8 km/h (2 Bft) N-NW 348 ° 0 min 0 W/m² 1,1 °C 5,0 °C 9,7 km/h (2 Bft)
21.04.2024 22:07 21,8 °C 5,0 °C 53 % 76 % 1024,0 hPa 0,0 l/m² 4,7 km/h (1 Bft) N 351 ° 0 min 0 W/m² 1,1 °C 5,0 °C 6,4 km/h (2 Bft)
21.04.2024 22:08 21,8 °C 5,0 °C 53 % 76 % 1024,0 hPa 0,0 l/m² 3,8 km/h (1 Bft) N 360 ° 0 min 0 W/m² 1,1 °C 5,0 °C 6,4 km/h (2 Bft)
21.04.2024 22:10 21,7 °C 4,9 °C 53 % 77 % 1024,1 hPa 0,0 l/m² 3,3 km/h (1 Bft) N 355 ° 0 min 0 W/m² 1,2 °C 4,9 °C 4,8 km/h (1 Bft)
21.04.2024 22:12 21,7 °C 4,9 °C 53 % 77 % 1024,0 hPa 0,0 l/m² 4,1 km/h (1 Bft) N 360 ° 0 min 0 W/m² 1,2 °C 4,9 °C 6,4 km/h (2 Bft)
21.04.2024 22:14 21,7 °C 4,9 °C 53 % 77 % 1024,1 hPa 0,0 l/m² 5,4 km/h (2 Bft) N 355 ° 0 min 0 W/m² 1,2 °C 4,9 °C 8,0 km/h (2 Bft)
21.04.2024 22:16 21,7 °C 4,9 °C 53 % 77 % 1024,1 hPa 0,0 l/m² 4,5 km/h (1 Bft) N-NO 21 ° 0 min 0 W/m² 1,2 °C 4,9 °C 9,7 km/h (2 Bft)
21.04.2024 22:18 21,7 °C 4,9 °C 53 % 77 % 1024,1 hPa 0,0 l/m² 4,5 km/h (1 Bft) N 360 ° 0 min 0 W/m² 1,2 °C 4,9 °C 8,0 km/h (2 Bft)
21.04.2024 22:20 21,7 °C 4,9 °C 53 % 76 % 1024,1 hPa 0,0 l/m² 5,1 km/h (1 Bft) N-NO 25 ° 0 min 0 W/m² 1,0 °C 4,9 °C 11,3 km/h (2 Bft)
21.04.2024 22:22 21,7 °C 5,0 °C 53 % 76 % 1024,1 hPa 0,0 l/m² 3,0 km/h (1 Bft) N-NO 30 ° 0 min 0 W/m² 1,1 °C 5,0 °C 6,4 km/h (2 Bft)
21.04.2024 22:23 21,7 °C 5,0 °C 53 % 76 % 1024,0 hPa 0,0 l/m² 4,0 km/h (1 Bft) N-NW 343 ° 0 min 0 W/m² 1,1 °C 5,0 °C 9,7 km/h (2 Bft)
21.04.2024 22:24 21,7 °C 5,0 °C 53 % 76 % 1024,0 hPa 0,0 l/m² 5,1 km/h (1 Bft) N-NO 22 ° 0 min 0 W/m² 1,1 °C 5,0 °C 12,9 km/h (3 Bft)
21.04.2024 22:26 21,7 °C 5,1 °C 53 % 75 % 1024,1 hPa 0,0 l/m² 5,0 km/h (1 Bft) N-NO 31 ° 0 min 0 W/m² 1,0 °C 5,1 °C 11,3 km/h (2 Bft)
21.04.2024 22:28 21,7 °C 5,2 °C 53 % 74 % 1024,1 hPa 0,0 l/m² 9,5 km/h (2 Bft) N-NO 32 ° 0 min 0 W/m² 1,0 °C 2,7 °C 14,5 km/h (3 Bft)
21.04.2024 22:30 21,7 °C 5,3 °C 53 % 73 % 1024,1 hPa 0,0 l/m² 7,2 km/h (2 Bft) N-NO 12 ° 0 min 0 W/m² 0,9 °C 4,6 °C 16,1 km/h (3 Bft)
21.04.2024 22:32 21,7 °C 5,5 °C 53 % 74 % 1024,2 hPa 0,0 l/m² 6,7 km/h (2 Bft) N-NW 344 ° 0 min 0 W/m² 1,2 °C 5,3 °C 12,9 km/h (3 Bft)
21.04.2024 22:34 21,6 °C 5,5 °C 53 % 74 % 1024,2 hPa 0,0 l/m² 8,0 km/h (2 Bft) N-NW 336 ° 0 min 0 W/m² 1,2 °C 4,1 °C 14,5 km/h (3 Bft)
21.04.2024 22:36 21,6 °C 5,4 °C 53 % 75 % 1024,3 hPa 0,0 l/m² 6,4 km/h (2 Bft) N-NW 340 ° 0 min 0 W/m² 1,3 °C 5,4 °C 9,7 km/h (2 Bft)
21.04.2024 22:37 21,6 °C 5,3 °C 53 % 75 % 1024,2 hPa 0,0 l/m² 4,6 km/h (1 Bft) N-NW 332 ° 0 min 0 W/m² 1,2 °C 5,3 °C 6,4 km/h (2 Bft)
21.04.2024 22:38 21,6 °C 5,2 °C 53 % 76 % 1024,2 hPa 0,0 l/m² 6,9 km/h (2 Bft) N-NW 335 ° 0 min 0 W/m² 1,3 °C 4,8 °C 9,7 km/h (2 Bft)
21.04.2024 22:39 21,6 °C 5,2 °C 53 % 76 % 1024,2 hPa 0,0 l/m² 6,1 km/h (2 Bft) N-NW 342 ° 0 min 0 W/m² 1,3 °C 5,2 °C 8,0 km/h (2 Bft)
21.04.2024 22:41 21,6 °C 5,1 °C 53 % 76 % 1024,1 hPa 0,0 l/m² 5,4 km/h (2 Bft) N 351 ° 0 min 0 W/m² 1,2 °C 5,1 °C 8,0 km/h (2 Bft)
21.04.2024 22:43 21,6 °C 5,1 °C 53 % 77 % 1024,1 hPa 0,0 l/m² 6,4 km/h (2 Bft) N-NO 17 ° 0 min 0 W/m² 1,4 °C 5,1 °C 12,9 km/h (3 Bft)
21.04.2024 22:45 21,6 °C 5,0 °C 53 % 77 % 1024,2 hPa 0,0 l/m² 7,7 km/h (2 Bft) N 355 ° 0 min 0 W/m² 1,3 °C 3,9 °C 12,9 km/h (3 Bft)
21.04.2024 22:47 21,6 °C 5,0 °C 53 % 78 % 1024,2 hPa 0,0 l/m² 6,6 km/h (2 Bft) N 360 ° 0 min 0 W/m² 1,5 °C 4,8 °C 9,7 km/h (2 Bft)
21.04.2024 22:49 21,6 °C 5,0 °C 53 % 78 % 1024,1 hPa 0,0 l/m² 6,7 km/h (2 Bft) N 355 ° 0 min 0 W/m² 1,5 °C 4,8 °C 9,7 km/h (2 Bft)
21.04.2024 22:51 21,6 °C 4,9 °C 53 % 78 % 1024,2 hPa 0,0 l/m² 5,5 km/h (2 Bft) N 9 ° 0 min 0 W/m² 1,4 °C 4,9 °C 9,7 km/h (2 Bft)
21.04.2024 22:53 21,6 °C 4,9 °C 53 % 78 % 1024,2 hPa 0,0 l/m² 6,4 km/h (2 Bft) N-NW 346 ° 0 min 0 W/m² 1,4 °C 4,9 °C 12,9 km/h (3 Bft)
21.04.2024 22:55 21,6 °C 4,9 °C 53 % 78 % 1024,2 hPa 0,0 l/m² 7,9 km/h (2 Bft) N-NW 343 ° 0 min 0 W/m² 1,4 °C 3,6 °C 12,9 km/h (3 Bft)
21.04.2024 22:57 21,6 °C 4,8 °C 53 % 79 % 1024,2 hPa 0,0 l/m² 6,4 km/h (2 Bft) N-NW 342 ° 0 min 0 W/m² 1,5 °C 4,8 °C 9,7 km/h (2 Bft)
21.04.2024 22:59 21,6 °C 4,8 °C 53 % 79 % 1024,2 hPa 0,0 l/m² 8,7 km/h (2 Bft) N-NO 12 ° 0 min 0 W/m² 1,5 °C 2,8 °C 12,9 km/h (3 Bft)
21.04.2024 23:01 21,6 °C 4,8 °C 53 % 79 % 1024,2 hPa 0,0 l/m² 6,3 km/h (2 Bft) N 5 ° 0 min 0 W/m² 1,5 °C 4,8 °C 11,3 km/h (2 Bft)
21.04.2024 23:03 21,6 °C 4,7 °C 53 % 80 % 1024,2 hPa 0,0 l/m² 7,8 km/h (2 Bft) N 350 ° 0 min 0 W/m² 1,6 °C 3,5 °C 11,3 km/h (2 Bft)
21.04.2024 23:05 21,6 °C 4,7 °C 53 % 80 % 1024,2 hPa 0,0 l/m² 9,8 km/h (2 Bft) N-NW 342 ° 0 min 0 W/m² 1,6 °C 1,9 °C 16,1 km/h (3 Bft)
21.04.2024 23:07 21,6 °C 4,7 °C 53 % 80 % 1024,2 hPa 0,0 l/m² 6,4 km/h (2 Bft) N 355 ° 0 min 0 W/m² 1,6 °C 4,7 °C 12,9 km/h (3 Bft)
21.04.2024 23:09 21,6 °C 4,7 °C 53 % 80 % 1024,2 hPa 0,0 l/m² 8,2 km/h (2 Bft) N 360 ° 0 min 0 W/m² 1,6 °C 3,1 °C 14,5 km/h (3 Bft)
21.04.2024 23:11 21,6 °C 4,7 °C 53 % 80 % 1024,3 hPa 0,0 l/m² 8,5 km/h (2 Bft) N-NW 340 ° 0 min 0 W/m² 1,6 °C 2,9 °C 16,1 km/h (3 Bft)
21.04.2024 23:13 21,6 °C 4,7 °C 53 % 81 % 1024,2 hPa 0,0 l/m² 8,0 km/h (2 Bft) N 355 ° 0 min 0 W/m² 1,7 °C 3,3 °C 12,9 km/h (3 Bft)
21.04.2024 23:15 21,6 °C 4,8 °C 53 % 81 % 1024,2 hPa 0,0 l/m² 7,2 km/h (2 Bft) N-NW 346 ° 0 min 0 W/m² 1,8 °C 4,1 °C 12,9 km/h (3 Bft)
21.04.2024 23:16 21,6 °C 4,7 °C 53 % 81 % 1024,3 hPa 0,0 l/m² 8,0 km/h (2 Bft) N-NW 337 ° 0 min 0 W/m² 1,7 °C 3,3 °C 11,3 km/h (2 Bft)
21.04.2024 23:17 21,6 °C 4,7 °C 53 % 81 % 1024,2 hPa 0,0 l/m² 4,8 km/h (1 Bft) N 360 ° 0 min 0 W/m² 1,7 °C 4,7 °C 8,0 km/h (2 Bft)
21.04.2024 23:22 21,6 °C 4,7 °C 53 % 81 % 1024,2 hPa 0,0 l/m² 2,5 km/h (1 Bft) N 360 ° 0 min 0 W/m² 1,7 °C 4,7 °C 3,2 km/h (1 Bft)
21.04.2024 23:24 21,6 °C 4,7 °C 53 % 81 % 1024,2 hPa 0,0 l/m² 1,9 km/h (1 Bft) N 350 ° 0 min 0 W/m² 1,7 °C 4,7 °C 4,8 km/h (1 Bft)
21.04.2024 23:25 21,6 °C 4,7 °C 53 % 81 % 1024,2 hPa 0,0 l/m² 2,9 km/h (1 Bft) N 360 ° 0 min 0 W/m² 1,7 °C 4,7 °C 4,8 km/h (1 Bft)
21.04.2024 23:27 21,6 °C 4,6 °C 53 % 81 % 1024,2 hPa 0,0 l/m² 2,6 km/h (1 Bft) N-NO 24 ° 0 min 0 W/m² 1,6 °C 4,6 °C 4,8 km/h (1 Bft)
21.04.2024 23:29 21,6 °C 4,6 °C 53 % 81 % 1024,2 hPa 0,0 l/m² 1,8 km/h (1 Bft) N-NO 22 ° 0 min 0 W/m² 1,6 °C 4,6 °C 4,8 km/h (1 Bft)
21.04.2024 23:30 21,6 °C 4,6 °C 53 % 81 % 1024,2 hPa 0,0 l/m² 0,4 km/h (0 Bft) N-NO 22 ° 0 min 0 W/m² 1,6 °C 4,6 °C 1,6 km/h (1 Bft)
21.04.2024 23:32 21,6 °C 4,4 °C 53 % 81 % 1024,2 hPa 0,0 l/m² 0,2 km/h (0 Bft) N-NO 22 ° 0 min 0 W/m² 1,4 °C 4,4 °C 1,6 km/h (1 Bft)
21.04.2024 23:33 21,6 °C 4,4 °C 53 % 81 % 1024,2 hPa 0,0 l/m² 2,6 km/h (1 Bft) NO 45 ° 0 min 0 W/m² 1,4 °C 4,4 °C 6,4 km/h (2 Bft)
21.04.2024 23:35 21,6 °C 4,3 °C 53 % 82 % 1024,3 hPa 0,0 l/m² 0,6 km/h (0 Bft) NO 44 ° 0 min 0 W/m² 1,5 °C 4,3 °C 3,2 km/h (1 Bft)
21.04.2024 23:37 21,6 °C 4,2 °C 53 % 82 % 1024,2 hPa 0,0 l/m² 0,4 km/h (0 Bft) NO 44 ° 0 min 0 W/m² 1,4 °C 4,2 °C 3,2 km/h (1 Bft)
21.04.2024 23:39 21,6 °C 4,2 °C 53 % 82 % 1024,3 hPa 0,0 l/m² 1,9 km/h (1 Bft) NO 44 ° 0 min 0 W/m² 1,4 °C 4,2 °C 4,8 km/h (1 Bft)
21.04.2024 23:40 21,6 °C 4,2 °C 53 % 82 % 1024,2 hPa 0,0 l/m² 1,3 km/h (1 Bft) NO 44 ° 0 min 0 W/m² 1,4 °C 4,2 °C 3,2 km/h (1 Bft)
21.04.2024 23:42 21,6 °C 4,2 °C 53 % 82 % 1024,2 hPa 0,0 l/m² 3,5 km/h (1 Bft) N-NO 32 ° 0 min 0 W/m² 1,4 °C 4,2 °C 6,4 km/h (2 Bft)
21.04.2024 23:43 21,6 °C 4,1 °C 53 % 82 % 1024,2 hPa 0,0 l/m² 1,9 km/h (1 Bft) N-NO 32 ° 0 min 0 W/m² 1,3 °C 4,1 °C 3,2 km/h (1 Bft)
21.04.2024 23:45 21,6 °C 4,1 °C 53 % 82 % 1024,2 hPa 0,0 l/m² 1,1 km/h (1 Bft) N-NO 32 ° 0 min 0 W/m² 1,3 °C 4,1 °C 3,2 km/h (1 Bft)
21.04.2024 23:47 21,6 °C 4,0 °C 53 % 82 % 1024,2 hPa 0,0 l/m² 0,0 km/h (0 Bft) N-NO 32 ° 0 min 0 W/m² 1,2 °C 4,0 °C 0,0 km/h (0 Bft)
21.04.2024 23:49 21,5 °C 3,9 °C 53 % 82 % 1024,2 hPa 0,0 l/m² 0,4 km/h (0 Bft) N-NO 32 ° 0 min 0 W/m² 1,1 °C 3,9 °C 3,2 km/h (1 Bft)
21.04.2024 23:50 21,6 °C 3,8 °C 53 % 82 % 1024,2 hPa 0,0 l/m² 3,9 km/h (1 Bft) N 355 ° 0 min 0 W/m² 1,0 °C 3,8 °C 6,4 km/h (2 Bft)
21.04.2024 23:52 21,6 °C 3,7 °C 53 % 83 % 1024,2 hPa 0,0 l/m² 3,6 km/h (1 Bft) N 351 ° 0 min 0 W/m² 1,1 °C 3,7 °C 4,8 km/h (1 Bft)
21.04.2024 23:53 21,5 °C 3,7 °C 53 % 83 % 1024,2 hPa 0,0 l/m² 4,8 km/h (1 Bft) N-NW 341 ° 0 min 0 W/m² 1,1 °C 3,7 °C 6,4 km/h (2 Bft)
21.04.2024 23:55 21,6 °C 3,7 °C 53 % 83 % 1024,2 hPa 0,0 l/m² 3,3 km/h (1 Bft) N-NW 331 ° 0 min 0 W/m² 1,1 °C 3,7 °C 6,4 km/h (2 Bft)
21.04.2024 23:57 21,6 °C 3,6 °C 53 % 83 % 1024,3 hPa 0,0 l/m² 3,8 km/h (1 Bft) N-NW 331 ° 0 min 0 W/m² 1,0 °C 3,6 °C 4,8 km/h (1 Bft)
21.04.2024 23:59 21,6 °C 3,5 °C 53 % 83 % 1024,2 hPa 0,0 l/m² 3,2 km/h (1 Bft) N-NW 331 ° 0 min 0 W/m² 0,9 °C 3,5 °C 6,4 km/h (2 Bft)
_ Min-Zeit 11:37 01:40 15:24 17:40 03:01 - 23:47 - - - - 17:58 08:06 23:47
Minimum _ 21,2 °C -0,2 °C 48 % 45 % 1018,8 hPa - 0,0 km/h (0 Bft) - - - - -1,7 °C -2,7 °C 0,0 km/h (0 Bft)
_ Max-Zeit 22:08 15:49 22:02 07:12 23:57 23:59 21:37 - - 12:48 14:30 10:21 15:46 14:46
Maximum _ 21,8 °C 11,3 °C 54 % 95 % 1024,3 hPa 0,0 l/m² 20,0 km/h
N-NW (4 Bft)
- - 3 min 1032 W/m² 3,8 °C 11,1 °C 30,6 km/h
O-NO (5 Bft)
Durchschnitt _ 21,5 °C 5,3 °C 51 % 74 % 1021,4 hPa #0,0 l/m² 6,6 km/h (2 Bft) W - #12:28 h 168 W/m² 0,6 °C 3,7 °C 12,1 km/h (2 Bft)
© 2009 Mathias Hoßbach